Darstellungsparameter: Aktuell verwendete Einstellungen:
Skalierung der Graphiken ... ?
xyx+y,   Skalierungsfaktor:      Skalierung: Modus: x, Faktor: 1
Darstellungszeitraum ... ?
Vom - - bis: - -   Zeitraum: 07.12.2011 - 06.06.2012
Min/Max/Avg-Anzeige ... ?
Zeige MMA aktuell
Zeige MMA Monat
Zeige MMA alles
Zeige --A aktuell
Zeige --A Monat
Zeige --A alles
Keine MMA-Anzeige
MMA:
Keine MMA-Graphiken
MMA-Basis: 07.12.2011 - 06.06.2012
Quicknavigation für Darstellung... ?
Tage:      1T, 2T, 3T, 5T -1T -2T -3T -5T +1T +2T +3T +5T
Wochen: 1W, 2W, 3W -1W -2W -3W +1W +2W +3W
Monate: 1M, 3M, 6M -1M -3M -6M +1M +3M +6M
Jahre:    1J, 3J, 5J, 10J -1J -3J -5J -10J +1J +3J +5J +10J
Nutze für die Darstellung ... ?
Originaldaten oder ...
Mittelwerte Minima Maxima auf...
Stundenbasis Tagesbasis Wochenbasis
Monatsbasis Jahresbasis      Datenbasis: Mittelwerte auf Stundenbasis
Darstellen als:
Statistik (Auto) Statistik J:M      Darstellung:
Zur Graphik,    zurück zur Übersicht aller Sensoren.
 
Tabellarische Datenbersicht: ?
 
Sensor: Nr:Datum:Temp:Abs-Feuchte:Windchill:Wind:
Aussen-T/F 1 07-12-2011 00:00:00 5.12 C 4.58 g/m*3 5.12 C 0 km/h
2 07-12-2011 01:00:00 4.7 C 4.89 g/m*3 4.7 C 0 km/h
3 07-12-2011 02:00:00 4.58 C 5.13 g/m*3 4.58 C 0 km/h
4 07-12-2011 03:00:00 5.44 C 5.23 g/m*3 5.44 C 0 km/h
5 07-12-2011 04:00:00 6.02 C 5.2 g/m*3 6.02 C 0 km/h
6 07-12-2011 05:00:00 6.52 C 5.29 g/m*3 6.52 C 0 km/h
7 07-12-2011 06:00:00 6.48 C 5.32 g/m*3 6.48 C 0 km/h
8 07-12-2011 07:00:00 5.48 C 5.64 g/m*3 5.48 C 0 km/h
9 07-12-2011 08:00:00 5.52 C 6.03 g/m*3 5.52 C 0 km/h
10 07-12-2011 09:00:00 6.26 C 6.17 g/m*3 6.26 C 0 km/h
11 07-12-2011 10:00:00 5.94 C 5.71 g/m*3 5.94 C 0 km/h
12 07-12-2011 11:00:00 7.3 C 5.44 g/m*3 7.3 C 0 km/h
13 07-12-2011 12:00:00 7.5 C 5.19 g/m*3 7.5 C 0 km/h
14 07-12-2011 13:00:00 6.04 C 5.18 g/m*3 6.04 C 0 km/h
15 07-12-2011 14:00:00 6.12 C 5.24 g/m*3 6.12 C 0 km/h
16 07-12-2011 15:00:00 5.7 C 4.92 g/m*3 5.7 C 0 km/h
17 07-12-2011 16:00:00 5.1 C 4.82 g/m*3 5.1 C 0 km/h
18 07-12-2011 17:00:00 5.48 C 4.24 g/m*3 5.48 C 0 km/h
19 07-12-2011 18:00:00 5.06 C 4.31 g/m*3 5.06 C 0 km/h
20 07-12-2011 19:00:00 3.96 C 4.62 g/m*3 3.96 C 0 km/h
21 07-12-2011 20:00:00 4.5 C 4.58 g/m*3 4.5 C 0 km/h
22 07-12-2011 21:00:00 4.36 C 4.56 g/m*3 4.36 C 0 km/h
23 07-12-2011 22:00:00 5.32 C 3.97 g/m*3 5.32 C 0 km/h
24 07-12-2011 23:00:00 5.38 C 3.9 g/m*3 5.38 C 0 km/h
25 08-12-2011 00:00:00 6.2 C 3.66 g/m*3 6.2 C 0 km/h
Sensor: Nr:Datum:Temp:Abs-Feuchte:Windchill:Wind:
Aussen-T/F 26 08-12-2011 01:00:00 6.3 C 3.6 g/m*3 6.3 C 0 km/h
27 08-12-2011 02:00:00 5.96 C 3.66 g/m*3 5.96 C 0 km/h
28 08-12-2011 03:00:00 4.8 C 3.73 g/m*3 4.8 C 0 km/h
29 08-12-2011 04:00:00 3.98 C 3.85 g/m*3 3.98 C 0 km/h
30 08-12-2011 05:00:00 3.38 C 3.96 g/m*3 3.38 C 0 km/h
31 08-12-2011 06:00:00 2.58 C 4.09 g/m*3 2.58 C 0 km/h
32 08-12-2011 07:00:00 2.88 C 4.07 g/m*3 2.88 C 0 km/h
33 08-12-2011 08:00:00 2.32 C 4.1 g/m*3 2.32 C 0 km/h
34 08-12-2011 09:00:00 3.02 C 4.08 g/m*3 3.02 C 0 km/h
35 08-12-2011 10:00:00 4.14 C 4.13 g/m*3 4.14 C 0 km/h
36 08-12-2011 11:00:00 4.98 C 4.33 g/m*3 4.98 C 0 km/h
37 08-12-2011 12:00:00 6.1 C 4.57 g/m*3 6.1 C 0 km/h
38 08-12-2011 13:00:00 6.26 C 4.78 g/m*3 6.26 C 0 km/h
39 08-12-2011 14:00:00 6.82 C 4.95 g/m*3 6.82 C 0 km/h
40 08-12-2011 15:00:00 7.24 C 4.97 g/m*3 7.24 C 0 km/h
41 08-12-2011 16:00:00 7.48 C 4.92 g/m*3 7.48 C 0 km/h
42 08-12-2011 17:00:00 7.86 C 5 g/m*3 7.86 C 0 km/h
43 08-12-2011 18:00:00 8.66 C 5.19 g/m*3 8.66 C 0 km/h
44 08-12-2011 19:00:00 9.22 C 5.44 g/m*3 9.22 C 0 km/h
45 08-12-2011 20:00:00 9.5 C 5.57 g/m*3 9.5 C 0 km/h
46 08-12-2011 21:00:00 9.62 C 5.83 g/m*3 9.62 C 0 km/h
47 08-12-2011 22:00:00 10.04 C 5.9 g/m*3 10.04 C 0 km/h
48 08-12-2011 23:00:00 10.02 C 6.19 g/m*3 10.02 C 0 km/h
49 09-12-2011 00:00:00 10.14 C 6.35 g/m*3 10.14 C 0 km/h
50 09-12-2011 01:00:00 9.8 C 6.66 g/m*3 9.8 C 0 km/h
Sensor: Nr:Datum:Temp:Abs-Feuchte:Windchill:Wind:
Aussen-T/F 51 09-12-2011 02:00:00 10.2 C 6.66 g/m*3 10.2 C 0 km/h
52 09-12-2011 03:00:00 10.36 C 6.73 g/m*3 10.36 C 0 km/h
53 09-12-2011 04:00:00 10.36 C 6.92 g/m*3 10.36 C 0 km/h
54 09-12-2011 05:00:00 9.74 C 7.1 g/m*3 9.74 C 0 km/h
55 09-12-2011 06:00:00 7.3 C 6.12 g/m*3 7.3 C 0 km/h
56 09-12-2011 07:00:00 6.22 C 5.86 g/m*3 6.22 C 0 km/h
57 09-12-2011 08:00:00 5.94 C 4.84 g/m*3 5.94 C 0 km/h
58 09-12-2011 09:00:00 5.48 C 4.8 g/m*3 5.48 C 0 km/h
59 09-12-2011 10:00:00 5.36 C 4.79 g/m*3 5.36 C 0 km/h
60 09-12-2011 11:00:00 5.66 C 4.9 g/m*3 5.66 C 0 km/h
61 09-12-2011 12:00:00 5.94 C 4.42 g/m*3 5.94 C 0 km/h
62 09-12-2011 13:00:00 5.94 C 3.57 g/m*3 5.94 C 0 km/h
63 09-12-2011 14:00:00 5.9 C 3.91 g/m*3 5.9 C 0 km/h
64 09-12-2011 15:00:00 5.5 C 4.14 g/m*3 5.5 C 0 km/h
65 09-12-2011 16:00:00 4.16 C 4.29 g/m*3 4.16 C 0 km/h
66 09-12-2011 17:00:00 3.3 C 4.44 g/m*3 3.3 C 0 km/h
67 09-12-2011 18:00:00 2.6 C 4.41 g/m*3 2.6 C 0 km/h
68 09-12-2011 19:00:00 2.34 C 4.3 g/m*3 2.34 C 0 km/h
69 09-12-2011 20:00:00 2.54 C 4.61 g/m*3 2.54 C 0 km/h
70 09-12-2011 21:00:00 2.38 C 4.77 g/m*3 2.38 C 0 km/h
71 09-12-2011 22:00:00 2.8 C 5 g/m*3 2.8 C 0 km/h
72 09-12-2011 23:00:00 2.74 C 5.08 g/m*3 2.74 C 0 km/h
73 10-12-2011 00:00:00 4.5 C 5.1 g/m*3 4.5 C 0 km/h
74 10-12-2011 01:00:00 4.58 C 5.1 g/m*3 4.58 C 0 km/h
75 10-12-2011 02:00:00 4.26 C 4.88 g/m*3 4.26 C 0 km/h
Sensor: Nr:Datum:Temp:Abs-Feuchte:Windchill:Wind:
Aussen-T/F 76 10-12-2011 03:00:00 2.96 C 4.74 g/m*3 2.96 C 0 km/h
77 10-12-2011 04:00:00 2.14 C 4.7 g/m*3 2.14 C 0 km/h
78 10-12-2011 05:00:00 1.78 C 4.7 g/m*3 1.78 C 0 km/h
79 10-12-2011 06:00:00 1.28 C 4.57 g/m*3 1.28 C 0 km/h
80 10-12-2011 07:00:00 0.46 C 4.42 g/m*3 0.46 C 0 km/h
81 10-12-2011 08:00:00 0.34 C 4.38 g/m*3 0.34 C 0 km/h
82 10-12-2011 09:00:00 1.38 C 4.55 g/m*3 1.38 C 0 km/h
83 10-12-2011 10:00:00 2.36 C 4.36 g/m*3 2.36 C 0 km/h
84 10-12-2011 11:00:00 2.82 C 4.17 g/m*3 2.82 C 0 km/h
85 10-12-2011 12:00:00 3.5 C 3.98 g/m*3 3.5 C 0 km/h
86 10-12-2011 13:00:00 3.68 C 3.83 g/m*3 3.68 C 0 km/h
87 10-12-2011 14:00:00 4.08 C 3.66 g/m*3 4.08 C 0 km/h
88 10-12-2011 15:00:00 5 C 3.42 g/m*3 5 C 0 km/h
89 10-12-2011 16:00:00 3.34 C 3.44 g/m*3 3.34 C 0 km/h
90 10-12-2011 17:00:00 1.14 C 3.79 g/m*3 1.14 C 0 km/h
91 10-12-2011 18:00:00 0 C 3.91 g/m*3 0 C 0 km/h
92 10-12-2011 19:00:00 0.04 C 3.92 g/m*3 0.04 C 0 km/h
93 10-12-2011 20:00:00 -0.56 C 3.84 g/m*3 -0.56 C 0 km/h
94 10-12-2011 21:00:00 -0.58 C 3.88 g/m*3 -0.58 C 0 km/h
95 10-12-2011 22:00:00 -1.32 C 3.67 g/m*3 -1.32 C 0 km/h
96 10-12-2011 23:00:00 -1.94 C 3.62 g/m*3 -1.94 C 0 km/h
97 11-12-2011 00:00:00 -2.2 C 3.63 g/m*3 -2.2 C 0 km/h
98 11-12-2011 01:00:00 -2.48 C 3.59 g/m*3 -2.48 C 0 km/h
99 11-12-2011 02:00:00 -3.22 C 3.43 g/m*3 -3.22 C 0 km/h
100 11-12-2011 03:00:00 -3.08 C 3.48 g/m*3 -3.08 C 0 km/h
Sensor: Nr:Datum:Temp:Abs-Feuchte:Windchill:Wind:
Aussen-T/F 101 11-12-2011 04:00:00 -1.74 C 3.9 g/m*3 -1.74 C 0 km/h
102 11-12-2011 05:00:00 -1.06 C 4.13 g/m*3 -1.06 C 0 km/h
103 11-12-2011 06:00:00 -1.74 C 3.9 g/m*3 -1.74 C 0 km/h
104 11-12-2011 07:00:00 -2.34 C 3.72 g/m*3 -2.34 C 0 km/h
105 11-12-2011 08:00:00 -2.58 C 3.67 g/m*3 -2.58 C 0 km/h
106 11-12-2011 09:00:00 -2.1 C 3.81 g/m*3 -2.1 C 0 km/h
107 11-12-2011 10:00:00 -0.82 C 4.19 g/m*3 -0.82 C 0 km/h
108 11-12-2011 11:00:00 1.1 C 4.75 g/m*3 1.1 C 0 km/h
109 11-12-2011 12:00:00 2.74 C 4.65 g/m*3 2.74 C 0 km/h
110 11-12-2011 13:00:00 3.28 C 4.56 g/m*3 3.28 C 0 km/h
111 11-12-2011 14:00:00 3.24 C 4.54 g/m*3 3.24 C 0 km/h
112 11-12-2011 15:00:00 2.12 C 4.52 g/m*3 2.12 C 0 km/h
113 11-12-2011 16:00:00 0.68 C 4.3 g/m*3 0.68 C 0 km/h
114 11-12-2011 17:00:00 1.88 C 4.65 g/m*3 1.88 C 0 km/h
115 11-12-2011 18:00:00 2.84 C 4.02 g/m*3 2.84 C 0 km/h
116 11-12-2011 19:00:00 3.08 C 4.05 g/m*3 3.08 C 0 km/h
117 11-12-2011 20:00:00 3.32 C 4.09 g/m*3 3.32 C 0 km/h
118 11-12-2011 21:00:00 3.1 C 4.13 g/m*3 3.1 C 0 km/h
119 11-12-2011 22:00:00 3.06 C 4.55 g/m*3 3.06 C 0 km/h
120 11-12-2011 23:00:00 3.4 C 5.07 g/m*3 3.4 C 0 km/h
121 12-12-2011 00:00:00 4.48 C 5.4 g/m*3 4.48 C 0 km/h
122 12-12-2011 01:00:00 4.81429 C 5.5 g/m*3 4.81 C 0 km/h
123 12-12-2011 02:00:00 5.58 C 5.7 g/m*3 5.58 C 0 km/h
124 12-12-2011 03:00:00 5.88 C 5.8 g/m*3 5.88 C 0 km/h
125 12-12-2011 04:00:00 6.02 C 6.06 g/m*3 6.02 C 0 km/h
Sensor: Nr:Datum:Temp:Abs-Feuchte:Windchill:Wind:
Aussen-T/F 126 12-12-2011 05:00:00 7.24 C 6.3 g/m*3 7.24 C 0 km/h
127 12-12-2011 06:00:00 6.66 C 6.17 g/m*3 6.66 C 0 km/h
128 12-12-2011 07:00:00 6.88 C 6.58 g/m*3 6.88 C 0 km/h
129 12-12-2011 08:00:00 7.2 C 6.77 g/m*3 7.2 C 0 km/h
130 12-12-2011 09:00:00 7.48 C 6.81 g/m*3 7.48 C 0 km/h
131 12-12-2011 10:00:00 7.46 C 6.74 g/m*3 7.46 C 0 km/h
132 12-12-2011 11:00:00 7.84 C 6.59 g/m*3 7.84 C 0 km/h
133 12-12-2011 12:00:00 7.36 C 5.89 g/m*3 7.36 C 0 km/h
134 12-12-2011 13:00:00 7.96 C 5.48 g/m*3 7.96 C 0 km/h
135 12-12-2011 14:00:00 8.06 C 5.05 g/m*3 8.06 C 0 km/h
136 12-12-2011 15:00:00 6.68 C 4.66 g/m*3 6.68 C 0 km/h
137 12-12-2011 16:00:00 5.46 C 4.44 g/m*3 5.46 C 0 km/h
138 12-12-2011 17:00:00 3.1 C 4.53 g/m*3 3.1 C 0 km/h
139 12-12-2011 18:00:00 2.78 C 4.82 g/m*3 2.78 C 0 km/h
140 12-12-2011 19:00:00 4.74 C 4.89 g/m*3 4.74 C 0 km/h
141 12-12-2011 20:00:00 3.68 C 4.92 g/m*3 3.68 C 0 km/h
142 12-12-2011 21:00:00 4.66 C 5.13 g/m*3 4.66 C 0 km/h
143 12-12-2011 22:00:00 5.24 C 4.9 g/m*3 5.24 C 0 km/h
144 12-12-2011 23:00:00 5.94 C 4.81 g/m*3 5.94 C 0 km/h
145 13-12-2011 00:00:00 5.76 C 4.59 g/m*3 5.76 C 0 km/h
146 13-12-2011 01:00:00 4.7 C 4.64 g/m*3 4.7 C 0 km/h
147 13-12-2011 02:00:00 5.02 C 4.37 g/m*3 5.02 C 0 km/h
148 13-12-2011 03:00:00 4.96 C 4.28 g/m*3 4.96 C 0 km/h
149 13-12-2011 04:00:00 5.08 C 4.26 g/m*3 5.08 C 0 km/h
150 13-12-2011 05:00:00 4.5 C 4.65 g/m*3 4.5 C 0 km/h
Sensor: Nr:Datum:Temp:Abs-Feuchte:Windchill:Wind:
Aussen-T/F 151 13-12-2011 06:00:00 4.18 C 5.03 g/m*3 4.18 C 0 km/h
152 13-12-2011 07:00:00 4.68 C 5.04 g/m*3 4.68 C 0 km/h
153 13-12-2011 08:00:00 5.36 C 5.11 g/m*3 5.36 C 0 km/h
154 13-12-2011 09:00:00 6.06 C 5.33 g/m*3 6.06 C 0 km/h
155 13-12-2011 10:00:00 7.32 C 5.44 g/m*3 7.32 C 0 km/h
156 13-12-2011 11:00:00 10.16 C 5.6 g/m*3 10.16 C 0 km/h
157 13-12-2011 12:00:00 9.8 C 5.57 g/m*3 9.8 C 0 km/h
158 13-12-2011 13:00:00 9.84 C 5.92 g/m*3 9.84 C 0 km/h
159 13-12-2011 14:00:00 9.88 C 6.08 g/m*3 9.88 C 0 km/h
160 13-12-2011 15:00:00 8.94 C 6.57 g/m*3 8.94 C 0 km/h
161 13-12-2011 16:00:00 9.12 C 5.97 g/m*3 9.12 C 0 km/h
162 13-12-2011 17:00:00 7.32 C 6.11 g/m*3 7.32 C 0 km/h
163 13-12-2011 18:00:00 6.18 C 6.14 g/m*3 6.18 C 0 km/h
164 13-12-2011 19:00:00 7.76 C 5.5 g/m*3 7.76 C 0 km/h
165 13-12-2011 20:00:00 7.3 C 5.26 g/m*3 7.3 C 0 km/h
166 13-12-2011 21:00:00 6.68 C 5.11 g/m*3 6.68 C 0 km/h
167 13-12-2011 22:00:00 6.62 C 5.29 g/m*3 6.62 C 0 km/h
168 13-12-2011 23:00:00 7.52 C 5.27 g/m*3 7.52 C 0 km/h
169 14-12-2011 00:00:00 7.52 C 4.84 g/m*3 7.52 C 0 km/h
170 14-12-2011 02:00:00 7.12857 C 5.79 g/m*3 5.51 C 8.54286 km/h
171 14-12-2011 03:00:00 6.16667 C 5.78 g/m*3 5.05 C 6.03333 km/h
172 14-12-2011 04:00:00 6.375 C 5.86 g/m*3 5.48 C 5.475 km/h
173 14-12-2011 05:00:00 5.70833 C 5.92 g/m*3 5.71 C 3.73333 km/h
174 14-12-2011 06:00:00 5.08333 C 5.89 g/m*3 5.08 C 3.6 km/h
175 14-12-2011 07:00:00 5.725 C 6.39 g/m*3 5.73 C 4.80833 km/h
Sensor: Nr:Datum:Temp:Abs-Feuchte:Windchill:Wind:
Aussen-T/F 176 14-12-2011 08:00:00 7.41667 C 6.92 g/m*3 5.9 C 8.33333 km/h
177 14-12-2011 09:00:00 8.75 C 7.12 g/m*3 6.55 C 13.7 km/h
178 14-12-2011 10:00:00 9.475 C 7.05 g/m*3 7.25 C 15.16667 km/h
179 14-12-2011 11:00:00 9.725 C 6.76 g/m*3 7.52 C 15.43333 km/h
180 14-12-2011 12:00:00 9.175 C 6.46 g/m*3 6.59 C 17.56667 km/h
181 14-12-2011 13:00:00 8.33333 C 6.28 g/m*3 5.53 C 17.7 km/h
182 14-12-2011 14:00:00 8.1 C 6.22 g/m*3 5.17 C 18.23333 km/h
183 14-12-2011 15:00:00 7.54167 C 6.3 g/m*3 4.58 C 17.3 km/h
184 14-12-2011 16:00:00 6.54167 C 6.29 g/m*3 4.04 C 12.49167 km/h
185 14-12-2011 17:00:00 6.1 C 5.85 g/m*3 2.67 C 18.25 km/h
186 14-12-2011 18:00:00 4.66667 C 5.62 g/m*3 1.25 C 15.56667 km/h
187 14-12-2011 19:00:00 4.775 C 5.71 g/m*3 1.21 C 16.76667 km/h
188 14-12-2011 20:00:00 4.76667 C 5.55 g/m*3 2.03 C 11.68333 km/h
189 14-12-2011 21:00:00 4.31667 C 5.58 g/m*3 2.5 C 7.38333 km/h
190 14-12-2011 22:00:00 5.225 C 5.7 g/m*3 3.39 C 8.04167 km/h
191 14-12-2011 23:00:00 5.78333 C 5.56 g/m*3 3.63 C 9.81667 km/h
192 15-12-2011 00:00:00 6.30833 C 5.38 g/m*3 3.42 C 14.63333 km/h
193 15-12-2011 01:00:00 5.85833 C 5.42 g/m*3 3.81 C 9.39167 km/h
194 15-12-2011 02:00:00 5.96667 C 5.46 g/m*3 4.23 C 8.175 km/h
195 15-12-2011 03:00:00 5.79167 C 5.59 g/m*3 4.34 C 6.96667 km/h
196 15-12-2011 04:00:00 4.6 C 5.71 g/m*3 3.35 C 5.75 km/h
197 15-12-2011 05:00:00 4.45 C 5.72 g/m*3 2.78 C 6.98333 km/h
198 15-12-2011 06:00:00 4.975 C 5.7 g/m*3 2.41 C 11.025 km/h
199 15-12-2011 07:00:00 4.675 C 5.72 g/m*3 3.34 C 6.025 km/h
200 15-12-2011 08:00:00 5.13333 C 5.65 g/m*3 3.58 C 6.96667 km/h
Sensor: Nr:Datum:Temp:Abs-Feuchte:Windchill:Wind:
Aussen-T/F 201 15-12-2011 09:00:00 5.78333 C 5.69 g/m*3 3.85 C 8.85833 km/h
202 15-12-2011 10:00:00 6.54167 C 5.67 g/m*3 4.57 C 9.65833 km/h
203 15-12-2011 11:00:00 6.93333 C 5.61 g/m*3 5.56 C 7.39167 km/h
204 15-12-2011 12:00:00 7.20833 C 5.67 g/m*3 5.5 C 9.01667 km/h
205 15-12-2011 13:00:00 7.34167 C 5.73 g/m*3 5.01 C 12.5 km/h
206 15-12-2011 14:00:00 7.33333 C 5.69 g/m*3 4.77 C 13.96667 km/h
207 15-12-2011 15:00:00 7.01667 C 5.76 g/m*3 4.33 C 14.36667 km/h
208 15-12-2011 16:00:00 6.46667 C 5.76 g/m*3 4.09 C 11.7 km/h
209 15-12-2011 17:00:00 6.56667 C 5.74 g/m*3 3.98 C 13.03333 km/h
210 15-12-2011 18:00:00 6.55 C 5.71 g/m*3 3.81 C 13.96667 km/h
211 15-12-2011 19:00:00 6.39167 C 5.88 g/m*3 3.75 C 13.15 km/h
212 15-12-2011 20:00:00 6.475 C 5.87 g/m*3 3.58 C 14.9 km/h
213 15-12-2011 21:00:00 6.25 C 5.8 g/m*3 3.45 C 13.96667 km/h
214 15-12-2011 22:00:00 6.275 C 5.77 g/m*3 3.76 C 12.23333 km/h
215 15-12-2011 23:00:00 6.38333 C 5.79 g/m*3 4.61 C 8.625 km/h
216 16-12-2011 00:00:00 6.48333 C 5.87 g/m*3 5.29 C 6.44167 km/h
217 16-12-2011 01:00:00 6.275 C 5.87 g/m*3 6.28 C 3.33333 km/h
218 16-12-2011 02:00:00 5.86667 C 5.87 g/m*3 4.99 C 5.21667 km/h
219 16-12-2011 03:00:00 5.11667 C 5.97 g/m*3 5.12 C 3.73333 km/h
220 16-12-2011 04:00:00 4.39167 C 5.8 g/m*3 2.75 C 6.84167 km/h
221 16-12-2011 05:00:00 3.775 C 5.59 g/m*3 1.79 C 7.675 km/h
222 16-12-2011 06:00:00 3.35833 C 5.54 g/m*3 2.19 C 5.08333 km/h
223 16-12-2011 07:00:00 3.79167 C 5.85 g/m*3 3.79 C 2.93333 km/h
224 16-12-2011 08:00:00 5.31667 C 6.63 g/m*3 5.32 C 4.14167 km/h
225 16-12-2011 09:00:00 8.75 C 8.05 g/m*3 7.52 C 8.06667 km/h
Sensor: Nr:Datum:Temp:Abs-Feuchte:Windchill:Wind:
Aussen-T/F 226 16-12-2011 10:00:00 10.15 C 8.36 g/m*3 7.99 C 15.95833 km/h
227 16-12-2011 11:00:00 10.90833 C 8.05 g/m*3 8.26 C 23.05 km/h
228 16-12-2011 12:00:00 10.78333 C 7.66 g/m*3 8.21 C 21.725 km/h
229 16-12-2011 13:00:00 10.18333 C 7.03 g/m*3 7.64 C 19.7 km/h
230 16-12-2011 14:00:00 8.79167 C 6.18 g/m*3 5.7 C 21.58333 km/h
231 16-12-2011 15:00:00 6.98333 C 5.53 g/m*3 3.77 C 18.23333 km/h
232 16-12-2011 16:00:00 5.95 C 5.19 g/m*3 2.63 C 17.04167 km/h
233 16-12-2011 17:00:00 5.41667 C 5.23 g/m*3 2.32 C 14.63333 km/h
234 16-12-2011 18:00:00 5.15 C 5.43 g/m*3 2.19 C 13.43333 km/h
235 16-12-2011 19:00:00 4.39167 C 5.57 g/m*3 1.08 C 14.5 km/h
236 16-12-2011 20:00:00 3.80833 C 5.36 g/m*3 0.03 C 16.63333 km/h
237 16-12-2011 21:00:00 3.6 C 5.2 g/m*3 -0.15 C 16.1 km/h
238 16-12-2011 22:00:00 3.25 C 5.18 g/m*3 -0.09 C 13.16667 km/h
239 16-12-2011 23:00:00 3.24167 C 5.21 g/m*3 0.36 C 10.89167 km/h
240 17-12-2011 00:00:00 3.1 C 5.17 g/m*3 -0.01 C 11.83333 km/h
241 17-12-2011 01:00:00 3.41667 C 5.14 g/m*3 0.72 C 10.21667 km/h
242 17-12-2011 02:00:00 2.86667 C 5.19 g/m*3 0.28 C 9.3 km/h
243 17-12-2011 03:00:00 2.4 C 5.17 g/m*3 0.06 C 8.06667 km/h
244 17-12-2011 04:00:00 2.78333 C 5.34 g/m*3 2.78 C 4.94167 km/h
245 17-12-2011 05:00:00 3.075 C 5.5 g/m*3 3.08 C 4.275 km/h
246 17-12-2011 06:00:00 3.775 C 5.58 g/m*3 2.35 C 5.89167 km/h
247 17-12-2011 07:00:00 3.89167 C 5.58 g/m*3 2.54 C 5.75 km/h
248 17-12-2011 08:00:00 3.91667 C 5.47 g/m*3 2.24 C 6.7 km/h
249 17-12-2011 09:00:00 4.00833 C 5.43 g/m*3 2.44 C 6.425 km/h
250 17-12-2011 10:00:00 4.04167 C 5.36 g/m*3 2.86 C 5.35 km/h
Sensor: Nr:Datum:Temp:Abs-Feuchte:Windchill:Wind:
Aussen-T/F 251 17-12-2011 11:00:00 4.8 C 5.41 g/m*3 3.11 C 7.25 km/h
252 17-12-2011 12:00:00 5.38333 C 5.44 g/m*3 3.5 C 8.325 km/h
253 17-12-2011 13:00:00 5.225 C 5.52 g/m*3 2.85 C 10.35833 km/h
254 17-12-2011 14:00:00 5.40833 C 5.56 g/m*3 3.19 C 9.79167 km/h
255 17-12-2011 15:00:00 4.91667 C 5.43 g/m*3 2.63 C 9.68333 km/h
256 17-12-2011 16:00:00 3.925 C 5.31 g/m*3 1.24 C 10.625 km/h
257 17-12-2011 17:00:00 3.275 C 5.09 g/m*3 0.7 C 9.55833 km/h
258 17-12-2011 18:00:00 2.7 C 4.91 g/m*3 0.19 C 8.88333 km/h
259 17-12-2011 19:00:00 2.35833 C 4.87 g/m*3 0.26 C 7.24167 km/h
260 17-12-2011 20:00:00 2.33333 C 4.82 g/m*3 -0.16 C 8.58333 km/h
261 17-12-2011 21:00:00 3.225 C 4.87 g/m*3 0.72 C 9.25833 km/h
262 17-12-2011 22:00:00 3.025 C 4.95 g/m*3 0.54 C 9.00833 km/h
263 17-12-2011 23:00:00 3.39167 C 5.06 g/m*3 1.01 C 8.86667 km/h
264 18-12-2011 00:00:00 3.18333 C 4.98 g/m*3 1.06 C 7.80833 km/h
265 18-12-2011 01:00:00 3.19167 C 5.02 g/m*3 0.18 C 11.43333 km/h
266 18-12-2011 02:00:00 3.24167 C 5.07 g/m*3 0.76 C 9.15 km/h
267 18-12-2011 03:00:00 3.16667 C 5.01 g/m*3 1.04 C 7.8 km/h
268 18-12-2011 04:00:00 2.60833 C 4.85 g/m*3 -0.22 C 10.075 km/h
269 18-12-2011 05:00:00 2.55833 C 4.87 g/m*3 -0.37 C 10.48333 km/h
270 18-12-2011 06:00:00 2.225 C 4.88 g/m*3 0.68 C 5.60833 km/h
271 18-12-2011 07:00:00 2.3 C 4.92 g/m*3 2.3 C 4.80833 km/h
272 18-12-2011 08:00:00 2.26667 C 4.98 g/m*3 0.24 C 6.975 km/h
273 18-12-2011 09:00:00 1.85833 C 5.04 g/m*3 0 C 6.3 km/h
274 18-12-2011 10:00:00 1.93333 C 5.07 g/m*3 0.45 C 5.35 km/h
275 18-12-2011 11:00:00 1.29167 C 4.93 g/m*3 1.29 C 3.46667 km/h
Sensor: Nr:Datum:Temp:Abs-Feuchte:Windchill:Wind:
Aussen-T/F 276 18-12-2011 12:00:00 2.14167 C 5.12 g/m*3 0.64 C 5.48333 km/h
277 18-12-2011 13:00:00 2.775 C 5.32 g/m*3 2.78 C 2.8 km/h
278 18-12-2011 14:00:00 3.24167 C 5.44 g/m*3 3.24 C 2.675 km/h
279 18-12-2011 15:00:00 3.25 C 5.27 g/m*3 2.07 C 5.075 km/h
280 18-12-2011 16:00:00 3.21667 C 5.09 g/m*3 3.22 C 4.93333 km/h
281 18-12-2011 17:00:00 2.6 C 4.94 g/m*3 1.22 C 5.34167 km/h
282 18-12-2011 18:00:00 2.125 C 4.78 g/m*3 2.13 C 4.53333 km/h
283 18-12-2011 19:00:00 1.81667 C 4.7 g/m*3 -0.19 C 6.70833 km/h
284 18-12-2011 20:00:00 0.85 C 4.55 g/m*3 0.85 C 4.26667 km/h
285 18-12-2011 21:00:00 0.89167 C 4.51 g/m*3 -2.27 C 10.06667 km/h
286 18-12-2011 22:00:00 1.025 C 4.32 g/m*3 -2.46 C 11.56667 km/h
287 18-12-2011 23:00:00 0.425 C 4.18 g/m*3 -2.17 C 7.79167 km/h
288 19-12-2011 00:00:00 0.55 C 4.26 g/m*3 -2.24 C 8.475 km/h
289 19-12-2011 01:00:00 0.425 C 4.39 g/m*3 0.43 C 4.675 km/h
290 19-12-2011 02:00:00 0.09167 C 4.44 g/m*3 0.09 C 1.86667 km/h
291 19-12-2011 03:00:00 1.025 C 4.64 g/m*3 -0.8 C 5.89167 km/h
292 19-12-2011 04:00:00 1.13333 C 4.69 g/m*3 1.13 C 2.66667 km/h
293 19-12-2011 05:00:00 0.725 C 4.64 g/m*3 0.73 C 2.66667 km/h
294 19-12-2011 06:00:00 0.71667 C 4.69 g/m*3 0.72 C 1.86667 km/h
295 19-12-2011 07:00:00 0.825 C 4.72 g/m*3 0.83 C 2.13333 km/h
296 19-12-2011 08:00:00 0.89167 C 4.74 g/m*3 0.89 C 1.46667 km/h
297 19-12-2011 09:00:00 1.375 C 4.75 g/m*3 1.38 C 3.33333 km/h
298 19-12-2011 10:00:00 1.79167 C 4.89 g/m*3 1.79 C 1.6 km/h
299 19-12-2011 11:00:00 2.33333 C 4.89 g/m*3 2.33 C 3.33333 km/h
300 19-12-2011 12:00:00 2.775 C 4.79 g/m*3 2.78 C 4.54167 km/h
Sensor: Nr:Datum:Temp:Abs-Feuchte:Windchill:Wind:
Aussen-T/F 301 19-12-2011 13:00:00 3.125 C 4.8 g/m*3 0.77 C 8.60833 km/h
302 19-12-2011 14:00:00 3.225 C 4.86 g/m*3 1.11 C 7.79167 km/h
303 19-12-2011 15:00:00 3.16667 C 4.85 g/m*3 1.38 C 6.7 km/h
304 19-12-2011 16:00:00 2.74167 C 4.81 g/m*3 1.17 C 5.89167 km/h
305 19-12-2011 17:00:00 2.575 C 4.83 g/m*3 2.58 C 4.54167 km/h
306 19-12-2011 18:00:00 2.31667 C 4.81 g/m*3 2.32 C 3.33333 km/h
307 19-12-2011 19:00:00 1.53333 C 4.65 g/m*3 1.53 C 4.94167 km/h
308 19-12-2011 20:00:00 1.5 C 4.64 g/m*3 1.5 C 4.13333 km/h
309 19-12-2011 21:00:00 2.1 C 4.63 g/m*3 2.1 C 4.14167 km/h
310 19-12-2011 22:00:00 2.04167 C 4.59 g/m*3 2.04 C 4.94167 km/h
311 19-12-2011 23:00:00 1.86667 C 4.47 g/m*3 1.87 C 4.55 km/h
312 20-12-2011 00:00:00 2.05 C 4.4 g/m*3 2.05 C 3.46667 km/h
313 20-12-2011 01:00:00 2.04167 C 4.33 g/m*3 2.04 C 4.54167 km/h
314 20-12-2011 02:00:00 1.1 C 4.53 g/m*3 1.1 C 1.86667 km/h
315 20-12-2011 03:00:00 0.5 C 4.64 g/m*3 0.5 C 0.66667 km/h
316 20-12-2011 04:00:00 0.4 C 4.68 g/m*3 0.4 C 0.13333 km/h
317 20-12-2011 05:00:00 0.4 C 4.72 g/m*3 0.4 C 0 km/h
318 20-12-2011 06:00:00 0.425 C 4.74 g/m*3 0.43 C 0 km/h
319 20-12-2011 07:00:00 0.54167 C 4.78 g/m*3 0.54 C 0.13333 km/h
320 20-12-2011 08:00:00 0.60833 C 4.77 g/m*3 0.61 C 0.4 km/h
321 20-12-2011 09:00:00 0.7 C 4.82 g/m*3 0.7 C 1.33333 km/h
322 20-12-2011 10:00:00 1.175 C 4.93 g/m*3 -0.29 C 5.08333 km/h
323 20-12-2011 11:00:00 2.11667 C 5.17 g/m*3 -0.03 C 7.26667 km/h
324 20-12-2011 12:00:00 2.89167 C 5.41 g/m*3 0.53 C 8.45833 km/h
325 20-12-2011 13:00:00 3.35833 C 5.57 g/m*3 1.83 C 6.01667 km/h
Sensor: Nr:Datum:Temp:Abs-Feuchte:Windchill:Wind:
Aussen-T/F 326 20-12-2011 14:00:00 2.86667 C 5.47 g/m*3 2.87 C 4.55 km/h
327 20-12-2011 15:00:00 2.49167 C 5.46 g/m*3 2.49 C 3.06667 km/h
328 20-12-2011 16:00:00 2.625 C 5.51 g/m*3 2.63 C 4.26667 km/h
329 20-12-2011 17:00:00 3.00833 C 5.65 g/m*3 3.01 C 4.26667 km/h
330 20-12-2011 18:00:00 3.81667 C 5.76 g/m*3 2.22 C 6.425 km/h
331 20-12-2011 19:00:00 3.9 C 5.69 g/m*3 2.31 C 6.43333 km/h
332 20-12-2011 20:00:00 4.45833 C 5.68 g/m*3 2.08 C 9.68333 km/h
333 20-12-2011 21:00:00 4.38333 C 5.76 g/m*3 2.15 C 9.01667 km/h
334 20-12-2011 22:00:00 4.475 C 5.76 g/m*3 2.85 C 6.83333 km/h
335 20-12-2011 23:00:00 4.55833 C 5.71 g/m*3 2.63 C 7.93333 km/h
336 21-12-2011 00:00:00 4.29167 C 5.62 g/m*3 2.81 C 6.29167 km/h
337 21-12-2011 01:00:00 4.29167 C 5.6 g/m*3 2.76 C 6.43333 km/h
338 21-12-2011 02:00:00 3.99167 C 5.65 g/m*3 1.82 C 8.48333 km/h
339 21-12-2011 03:00:00 3.675 C 5.63 g/m*3 1.67 C 7.65833 km/h
340 21-12-2011 04:00:00 3.10833 C 5.61 g/m*3 3.11 C 4.54167 km/h
341 21-12-2011 05:00:00 3.375 C 5.57 g/m*3 1.66 C 6.55833 km/h
342 21-12-2011 06:00:00 3.43333 C 5.49 g/m*3 1.2 C 8.34167 km/h
343 21-12-2011 07:00:00 3.56667 C 5.48 g/m*3 1.5 C 7.80833 km/h
344 21-12-2011 08:00:00 3.70833 C 5.51 g/m*3 1.28 C 9.29167 km/h
345 21-12-2011 09:00:00 3.93333 C 5.56 g/m*3 1.87 C 8.05833 km/h
346 21-12-2011 10:00:00 4.38333 C 5.58 g/m*3 2.21 C 8.75833 km/h
347 21-12-2011 11:00:00 4.61667 C 5.6 g/m*3 2.09 C 10.49167 km/h
348 21-12-2011 12:00:00 4.70833 C 5.6 g/m*3 2.85 C 7.79167 km/h
349 21-12-2011 13:00:00 4.73333 C 5.62 g/m*3 2.84 C 7.91667 km/h
350 21-12-2011 14:00:00 4.7 C 5.66 g/m*3 3.71 C 5.075 km/h
Sensor: Nr:Datum:Temp:Abs-Feuchte:Windchill:Wind:
Aussen-T/F 351 21-12-2011 15:00:00 4.63333 C 5.65 g/m*3 3.08 C 6.7 km/h
352 21-12-2011 16:00:00 4.4 C 5.66 g/m*3 3.17 C 5.6 km/h
353 21-12-2011 17:00:00 4.4 C 5.69 g/m*3 3.22 C 5.475 km/h
354 21-12-2011 18:00:00 4.48333 C 5.74 g/m*3 3.22 C 5.74167 km/h
355 21-12-2011 19:00:00 4.58333 C 5.82 g/m*3 3.53 C 5.20833 km/h
356 21-12-2011 20:00:00 4.51667 C 5.83 g/m*3 4.52 C 4.26667 km/h
357 21-12-2011 21:00:00 4.55 C 5.87 g/m*3 3.39 C 5.475 km/h
358 21-12-2011 22:00:00 4.45833 C 5.91 g/m*3 4.46 C 2.4 km/h
359 21-12-2011 23:00:00 4.20833 C 5.93 g/m*3 4.21 C 1.06667 km/h
360 22-12-2011 00:00:00 4.23333 C 5.92 g/m*3 4.23 C 2.93333 km/h
361 22-12-2011 01:00:00 4.125 C 5.9 g/m*3 4.13 C 3.2 km/h
362 22-12-2011 02:00:00 4.15 C 5.94 g/m*3 4.15 C 1.06667 km/h
363 22-12-2011 03:00:00 4.075 C 5.97 g/m*3 4.08 C 0.93333 km/h
364 22-12-2011 04:00:00 4.25833 C 6.06 g/m*3 4.26 C 0.66667 km/h
365 22-12-2011 05:00:00 4.5 C 6.18 g/m*3 4.5 C 2.26667 km/h
366 22-12-2011 06:00:00 4.85 C 6.35 g/m*3 4.85 C 2.4 km/h
367 22-12-2011 07:00:00 4.825 C 6.4 g/m*3 4.83 C 2.4 km/h
368 22-12-2011 08:00:00 5.34167 C 6.57 g/m*3 4.02 C 6.28333 km/h
369 22-12-2011 09:00:00 5.825 C 6.74 g/m*3 5.83 C 4.54167 km/h
370 22-12-2011 10:00:00 6.10833 C 6.94 g/m*3 6.11 C 4.80833 km/h
371 22-12-2011 11:00:00 6.7 C 7.21 g/m*3 5.39 C 6.975 km/h
372 22-12-2011 12:00:00 7.225 C 7.44 g/m*3 6.04 C 6.83333 km/h
373 22-12-2011 13:00:00 7.54167 C 7.61 g/m*3 7.54 C 4.66667 km/h
374 22-12-2011 14:00:00 7.725 C 7.77 g/m*3 7.73 C 3.6 km/h
375 22-12-2011 15:00:00 7.85 C 7.86 g/m*3 7.85 C 2.66667 km/h
Sensor: Nr:Datum:Temp:Abs-Feuchte:Windchill:Wind:
Aussen-T/F 376 22-12-2011 16:00:00 8.03333 C 7.97 g/m*3 8.03 C 2.53333 km/h
377 22-12-2011 17:00:00 8.20833 C 8.13 g/m*3 8.21 C 2 km/h
378 22-12-2011 18:00:00 8.63333 C 8.35 g/m*3 8.63 C 3.33333 km/h
379 22-12-2011 19:00:00 8.8 C 8.33 g/m*3 8.8 C 2.93333 km/h
380 22-12-2011 20:00:00 8.64167 C 8.27 g/m*3 8.64 C 3.6 km/h
381 22-12-2011 21:00:00 8.76667 C 8.26 g/m*3 8.24 C 5.35 km/h
382 22-12-2011 22:00:00 8.86667 C 8.23 g/m*3 8.36 C 5.35833 km/h
383 22-12-2011 23:00:00 8.61667 C 8.17 g/m*3 8.62 C 3.33333 km/h
384 23-12-2011 00:00:00 8.53333 C 8.15 g/m*3 8.53 C 3.6 km/h
385 23-12-2011 01:00:00 8.40833 C 8.08 g/m*3 8.41 C 3.06667 km/h
386 23-12-2011 02:00:00 8.44167 C 8.09 g/m*3 8.44 C 3.06667 km/h
387 23-12-2011 03:00:00 8.325 C 8.03 g/m*3 8.32 C 2.4 km/h
388 23-12-2011 04:00:00 8.15 C 8.01 g/m*3 8.15 C 2.26667 km/h
389 23-12-2011 05:00:00 8.13333 C 8.01 g/m*3 8.13 C 1.73333 km/h
390 23-12-2011 06:00:00 8.05833 C 7.97 g/m*3 8.06 C 3.06667 km/h
391 23-12-2011 07:00:00 8.39167 C 8 g/m*3 8.39 C 4.66667 km/h
392 23-12-2011 08:00:00 8.175 C 7.93 g/m*3 8.18 C 3.6 km/h
393 23-12-2011 09:00:00 8.09167 C 7.94 g/m*3 8.09 C 2.4 km/h
394 23-12-2011 10:00:00 8.71667 C 8.03 g/m*3 7.95 C 6.15 km/h
395 23-12-2011 11:00:00 9.25833 C 8.05 g/m*3 8.12 C 8.06667 km/h
396 23-12-2011 12:00:00 9.40833 C 7.99 g/m*3 7.98 C 9.68333 km/h
397 23-12-2011 13:00:00 9.74167 C 8.01 g/m*3 8.26 C 10.35833 km/h
398 23-12-2011 14:00:00 9.6 C 7.94 g/m*3 8.73 C 7.11667 km/h
399 23-12-2011 15:00:00 9.34167 C 7.88 g/m*3 9.34 C 3.73333 km/h
400 23-12-2011 16:00:00 8.725 C 7.74 g/m*3 8.73 C 2.4 km/h
Sensor: Nr:Datum:Temp:Abs-Feuchte:Windchill:Wind:
Aussen-T/F 401 23-12-2011 17:00:00 8.4 C 7.5 g/m*3 8.4 C 4.00833 km/h
402 23-12-2011 18:00:00 8.23333 C 7.22 g/m*3 8.23 C 4.40833 km/h
403 23-12-2011 19:00:00 7.81667 C 7.12 g/m*3 6.73 C 6.83333 km/h
404 23-12-2011 20:00:00 7.55 C 6.95 g/m*3 6.68 C 5.90833 km/h
405 23-12-2011 21:00:00 7.38333 C 6.86 g/m*3 6.53 C 5.76667 km/h
406 23-12-2011 22:00:00 7.5 C 6.83 g/m*3 6.55 C 6.15833 km/h
407 23-12-2011 23:00:00 7.65 C 6.88 g/m*3 7.06 C 5.08333 km/h
408 24-12-2011 00:00:00 7.8 C 6.98 g/m*3 6.67 C 6.98333 km/h
409 24-12-2011 01:00:00 7.75833 C 7.12 g/m*3 6.85 C 6.15 km/h
410 24-12-2011 02:00:00 7.825 C 7.25 g/m*3 6.2 C 9.14167 km/h
411 24-12-2011 03:00:00 7.60833 C 6.74 g/m*3 5.19 C 13.43333 km/h
412 24-12-2011 04:00:00 6.91667 C 6.18 g/m*3 4.47 C 12.63333 km/h
413 24-12-2011 05:00:00 6.54167 C 6.05 g/m*3 4.16 C 11.825 km/h
414 24-12-2011 06:00:00 5.88333 C 6.01 g/m*3 3.22 C 12.63333 km/h
415 24-12-2011 07:00:00 4.83333 C 5.89 g/m*3 2.19 C 11.3 km/h
416 24-12-2011 08:00:00 5.025 C 5.94 g/m*3 2.56 C 10.60833 km/h
417 24-12-2011 09:00:00 5.05 C 5.93 g/m*3 2.91 C 9.13333 km/h
418 24-12-2011 10:00:00 4.35 C 5.8 g/m*3 2.39 C 7.91667 km/h
419 24-12-2011 11:00:00 6.06667 C 5.92 g/m*3 2.89 C 16.23333 km/h
420 24-12-2011 12:00:00 6.44167 C 5.88 g/m*3 3.92 C 12.48333 km/h
421 24-12-2011 13:00:00 6.43333 C 5.82 g/m*3 3.82 C 13.03333 km/h
422 24-12-2011 14:00:00 5.80833 C 6.02 g/m*3 4.1 C 7.91667 km/h
423 24-12-2011 15:00:00 6.325 C 5.65 g/m*3 4.77 C 7.66667 km/h
424 24-12-2011 16:00:00 5.5 C 5.47 g/m*3 3.61 C 8.45833 km/h
425 24-12-2011 17:00:00 4.65 C 5.56 g/m*3 3.09 C 6.70833 km/h
Sensor: Nr:Datum:Temp:Abs-Feuchte:Windchill:Wind:
Aussen-T/F 426 24-12-2011 18:00:00 4 C 5.45 g/m*3 2.81 C 5.35 km/h
427 24-12-2011 19:00:00 3.14167 C 5.28 g/m*3 3.14 C 4.675 km/h
428 24-12-2011 20:00:00 4.025 C 5.36 g/m*3 1.56 C 9.69167 km/h
429 24-12-2011 21:00:00 4.26667 C 5.36 g/m*3 1.4 C 11.83333 km/h
430 24-12-2011 22:00:00 4.4 C 5.35 g/m*3 1.34 C 13.025 km/h
431 24-12-2011 23:00:00 4.55833 C 5.4 g/m*3 2.36 C 9.00833 km/h
432 25-12-2011 00:00:00 4.29167 C 5.45 g/m*3 2.9 C 6.03333 km/h
433 25-12-2011 01:00:00 4.3 C 5.52 g/m*3 2.37 C 7.775 km/h
434 25-12-2011 02:00:00 4.73333 C 5.57 g/m*3 1.72 C 13.16667 km/h
435 25-12-2011 03:00:00 4.83333 C 5.58 g/m*3 1.91 C 12.76667 km/h
436 25-12-2011 04:00:00 4.8 C 5.58 g/m*3 2.15 C 11.3 km/h
437 25-12-2011 05:00:00 4.95833 C 5.68 g/m*3 2.5 C 10.49167 km/h
438 25-12-2011 06:00:00 5.1 C 5.77 g/m*3 3.03 C 8.875 km/h
439 25-12-2011 07:00:00 5.15833 C 5.83 g/m*3 2.24 C 13.16667 km/h
440 25-12-2011 08:00:00 5.175 C 5.86 g/m*3 2.08 C 14.23333 km/h
441 25-12-2011 09:00:00 5.29167 C 5.96 g/m*3 2.25 C 14.1 km/h
442 25-12-2011 10:00:00 5.36667 C 6.1 g/m*3 2.41 C 13.7 km/h
443 25-12-2011 11:00:00 5.74167 C 6.13 g/m*3 2.8 C 14.1 km/h
444 25-12-2011 12:00:00 6.09167 C 6.21 g/m*3 2.98 C 15.83333 km/h
445 25-12-2011 13:00:00 6.375 C 6.32 g/m*3 3.93 C 11.96667 km/h
446 25-12-2011 14:00:00 6.23333 C 6.36 g/m*3 3.78 C 11.83333 km/h
447 25-12-2011 15:00:00 6.30833 C 6.38 g/m*3 3.52 C 13.96667 km/h
448 25-12-2011 16:00:00 6.36667 C 6.44 g/m*3 4.09 C 11.03333 km/h
449 25-12-2011 17:00:00 6.36667 C 6.5 g/m*3 5.12 C 6.575 km/h
450 25-12-2011 18:00:00 6.4 C 6.56 g/m*3 4.8 C 7.91667 km/h
Sensor: Nr:Datum:Temp:Abs-Feuchte:Windchill:Wind:
Aussen-T/F 451 25-12-2011 19:00:00 6.45 C 6.63 g/m*3 6.45 C 3.86667 km/h
452 25-12-2011 20:00:00 6.43333 C 6.7 g/m*3 6.43 C 2.66667 km/h
453 25-12-2011 21:00:00 6.58333 C 6.79 g/m*3 6.58 C 3.74167 km/h
454 25-12-2011 22:00:00 6.5 C 6.86 g/m*3 6.5 C 2 km/h
455 25-12-2011 23:00:00 6.575 C 6.92 g/m*3 6.58 C 3.73333 km/h
456 26-12-2011 00:00:00 7.375 C 7.05 g/m*3 5.14 C 11.95833 km/h
457 26-12-2011 01:00:00 7.58333 C 7.08 g/m*3 5.14 C 13.56667 km/h
458 26-12-2011 02:00:00 7.63333 C 7.11 g/m*3 6 C 9.00833 km/h
459 26-12-2011 03:00:00 7.7 C 7.19 g/m*3 5.3 C 13.43333 km/h
460 26-12-2011 04:00:00 7.69167 C 7.21 g/m*3 5.42 C 12.63333 km/h
461 26-12-2011 05:00:00 7.88333 C 7.22 g/m*3 5.13 C 16.36667 km/h
462 26-12-2011 06:00:00 8.00833 C 7.28 g/m*3 5.68 C 13.43333 km/h
463 26-12-2011 07:00:00 8.025 C 7.29 g/m*3 6.33 C 9.68333 km/h
464 26-12-2011 08:00:00 7.85 C 7.25 g/m*3 6.56 C 7.65 km/h
465 26-12-2011 09:00:00 7.70833 C 7.28 g/m*3 6.39 C 7.66667 km/h
466 26-12-2011 10:00:00 7.80833 C 7.35 g/m*3 6.65 C 7.10833 km/h
467 26-12-2011 11:00:00 8.5 C 7.51 g/m*3 7.39 C 7.375 km/h
468 26-12-2011 12:00:00 8.96667 C 7.58 g/m*3 7.87 C 7.64167 km/h
469 26-12-2011 13:00:00 9 C 7.61 g/m*3 7.94 C 7.51667 km/h
470 26-12-2011 14:00:00 8.775 C 7.6 g/m*3 7.84 C 6.84167 km/h
471 26-12-2011 15:00:00 8.33333 C 7.66 g/m*3 7.51 C 6.15 km/h
472 26-12-2011 16:00:00 8.2 C 7.63 g/m*3 7.52 C 5.60833 km/h
473 26-12-2011 17:00:00 8.24167 C 7.64 g/m*3 7.49 C 5.875 km/h
474 26-12-2011 18:00:00 8.2 C 7.62 g/m*3 7.56 C 5.475 km/h
475 26-12-2011 19:00:00 8.31667 C 7.69 g/m*3 7.69 C 5.475 km/h
Sensor: Nr:Datum:Temp:Abs-Feuchte:Windchill:Wind:
Aussen-T/F 476 26-12-2011 20:00:00 8.275 C 7.75 g/m*3 7.69 C 5.33333 km/h
477 26-12-2011 21:00:00 8.25 C 7.81 g/m*3 8.25 C 4.4 km/h
478 26-12-2011 22:00:00 8.34167 C 7.81 g/m*3 8.34 C 3.86667 km/h
479 26-12-2011 23:00:00 8.26667 C 7.79 g/m*3 8.27 C 4.26667 km/h
480 27-12-2011 00:00:00 8.29167 C 7.79 g/m*3 8.29 C 2.93333 km/h
481 27-12-2011 01:00:00 8.15833 C 7.77 g/m*3 8.16 C 2.26667 km/h
482 27-12-2011 02:00:00 8.23333 C 7.81 g/m*3 8.23 C 1.86667 km/h
483 27-12-2011 03:00:00 8.3 C 7.84 g/m*3 8.3 C 3.86667 km/h
484 27-12-2011 04:00:00 8.375 C 7.8 g/m*3 8.38 C 4.66667 km/h
485 27-12-2011 05:00:00 8.51667 C 7.71 g/m*3 7.44 C 7.24167 km/h
486 27-12-2011 06:00:00 8.41667 C 7.64 g/m*3 7.77 C 5.60833 km/h
487 27-12-2011 07:00:00 8.35833 C 7.58 g/m*3 8.36 C 4 km/h
488 27-12-2011 08:00:00 8.20833 C 7.49 g/m*3 7.37 C 6.15833 km/h
489 27-12-2011 09:00:00 8.375 C 7.42 g/m*3 8.38 C 4.80833 km/h
490 27-12-2011 10:00:00 8.75833 C 7.39 g/m*3 8.76 C 4.93333 km/h
491 27-12-2011 11:00:00 9.04167 C 7.41 g/m*3 8.52 C 5.475 km/h
492 27-12-2011 12:00:00 8.9 C 7.41 g/m*3 8.9 C 2.8 km/h
493 27-12-2011 13:00:00 9.01667 C 7.39 g/m*3 9.02 C 2.8 km/h
494 27-12-2011 14:00:00 9.11667 C 7.36 g/m*3 9.12 C 3.33333 km/h
495 27-12-2011 15:00:00 9.00833 C 7.39 g/m*3 9.01 C 2.13333 km/h
496 27-12-2011 16:00:00 8.58333 C 7.55 g/m*3 8.58 C 0.93333 km/h
497 27-12-2011 17:00:00 8.00833 C 7.49 g/m*3 8.01 C 0.66667 km/h
498 27-12-2011 18:00:00 7.71667 C 7.41 g/m*3 7.72 C 0.13333 km/h
499 27-12-2011 19:00:00 7.48333 C 7.34 g/m*3 7.48 C 0.4 km/h
500 27-12-2011 20:00:00 7.36667 C 7.27 g/m*3 7.37 C 0.13333 km/h
Sensor: Nr:Datum:Temp:Abs-Feuchte:Windchill:Wind:
Aussen-T/F 501 27-12-2011 21:00:00 7.24167 C 7.21 g/m*3 7.24 C 0.26667 km/h
502 27-12-2011 22:00:00 7.26667 C 7.12 g/m*3 7.27 C 1.06667 km/h
503 27-12-2011 23:00:00 7.29167 C 6.88 g/m*3 7.29 C 1.73333 km/h
504 28-12-2011 00:00:00 7.15833 C 6.92 g/m*3 7.16 C 0.93333 km/h
505 28-12-2011 01:00:00 7 C 6.93 g/m*3 7 C 0.4 km/h
506 28-12-2011 02:00:00 7.15833 C 6.95 g/m*3 7.16 C 3.06667 km/h
507 28-12-2011 03:00:00 6.975 C 6.79 g/m*3 6.98 C 3.33333 km/h
508 28-12-2011 04:00:00 6.7 C 6.7 g/m*3 6.7 C 3.06667 km/h
509 28-12-2011 05:00:00 6.33333 C 6.56 g/m*3 6.33 C 3.86667 km/h
510 28-12-2011 06:00:00 5.80833 C 6.34 g/m*3 5.81 C 4.68333 km/h
511 28-12-2011 07:00:00 5.6 C 6.25 g/m*3 5.6 C 3.86667 km/h
512 28-12-2011 08:00:00 5.69167 C 6.27 g/m*3 4.83 C 5.09167 km/h
513 28-12-2011 09:00:00 5.80833 C 6.28 g/m*3 5.81 C 4.26667 km/h
514 28-12-2011 10:00:00 6.03333 C 6.3 g/m*3 5.03 C 5.625 km/h
515 28-12-2011 11:00:00 6.39167 C 6.31 g/m*3 5.11 C 6.7 km/h
516 28-12-2011 12:00:00 6.09167 C 6.25 g/m*3 5.06 C 5.75833 km/h
517 28-12-2011 13:00:00 5.83333 C 6.09 g/m*3 4.31 C 7.25833 km/h
518 28-12-2011 14:00:00 5.6 C 5.94 g/m*3 4.04 C 7.25 km/h
519 28-12-2011 15:00:00 5.15 C 5.83 g/m*3 3.51 C 7.25 km/h
520 28-12-2011 16:00:00 4.875 C 5.79 g/m*3 2.77 C 8.875 km/h
521 28-12-2011 17:00:00 4.78333 C 5.69 g/m*3 2.44 C 9.825 km/h
522 28-12-2011 18:00:00 4.7 C 5.66 g/m*3 2.31 C 9.96667 km/h
523 28-12-2011 19:00:00 4.75 C 5.68 g/m*3 1.77 C 13.03333 km/h
524 28-12-2011 20:00:00 4.7 C 5.66 g/m*3 1.42 C 14.76667 km/h
525 28-12-2011 21:00:00 4.65833 C 5.66 g/m*3 0.95 C 17.575 km/h
Sensor: Nr:Datum:Temp:Abs-Feuchte:Windchill:Wind:
Aussen-T/F 526 28-12-2011 22:00:00 4.675 C 5.76 g/m*3 1.3 C 15.3 km/h
527 28-12-2011 23:00:00 4.66667 C 5.82 g/m*3 1.86 C 11.96667 km/h
528 29-12-2011 00:00:00 5.09167 C 5.91 g/m*3 2.25 C 12.63333 km/h
529 29-12-2011 01:00:00 5.1 C 5.96 g/m*3 3.54 C 6.96667 km/h
530 29-12-2011 02:00:00 4.05833 C 5.72 g/m*3 2.88 C 5.34167 km/h
531 29-12-2011 03:00:00 4.00833 C 5.63 g/m*3 1.99 C 7.91667 km/h
532 29-12-2011 04:00:00 5.11667 C 5.61 g/m*3 2.72 C 10.36667 km/h
533 29-12-2011 05:00:00 5.08333 C 5.57 g/m*3 3.12 C 8.45833 km/h
534 29-12-2011 06:00:00 5.30833 C 5.59 g/m*3 3.55 C 7.79167 km/h
535 29-12-2011 07:00:00 5.44167 C 5.52 g/m*3 3.35 C 9.26667 km/h
536 29-12-2011 08:00:00 5.55 C 5.42 g/m*3 2.98 C 11.7 km/h
537 29-12-2011 09:00:00 5.60833 C 5.46 g/m*3 4.05 C 7.24167 km/h
538 29-12-2011 10:00:00 5.84167 C 5.48 g/m*3 3.56 C 10.49167 km/h
539 29-12-2011 11:00:00 6 C 5.52 g/m*3 3.43 C 12.23333 km/h
540 29-12-2011 12:00:00 6.275 C 5.36 g/m*3 3.67 C 12.76667 km/h
541 29-12-2011 13:00:00 6.3 C 5.15 g/m*3 3.55 C 13.7 km/h
542 29-12-2011 14:00:00 6.275 C 5.07 g/m*3 3.17 C 16.1 km/h
543 29-12-2011 15:00:00 5.98333 C 5.27 g/m*3 2.94 C 15.16667 km/h
544 29-12-2011 16:00:00 5.24167 C 5.59 g/m*3 2.12 C 14.5 km/h
545 29-12-2011 17:00:00 5.08333 C 5.73 g/m*3 1.93 C 14.5 km/h
546 29-12-2011 18:00:00 5.14167 C 5.82 g/m*3 2.07 C 14.1 km/h
547 29-12-2011 19:00:00 5.525 C 5.99 g/m*3 2.56 C 13.96667 km/h
548 29-12-2011 20:00:00 5.96667 C 6.07 g/m*3 2.75 C 16.36667 km/h
549 29-12-2011 21:00:00 6.03333 C 6.07 g/m*3 2.69 C 17.43333 km/h
550 29-12-2011 22:00:00 6.1 C 6.05 g/m*3 2.99 C 15.83333 km/h
Sensor: Nr:Datum:Temp:Abs-Feuchte:Windchill:Wind:
Aussen-T/F 551 29-12-2011 23:00:00 6.26667 C 6.04 g/m*3 2.84 C 18.5 km/h
552 30-12-2011 00:00:00 5.29167 C 5.97 g/m*3 2.1 C 15.03333 km/h
553 30-12-2011 01:00:00 4.9 C 5.88 g/m*3 2.07 C 12.36667 km/h
554 30-12-2011 02:00:00 4.95 C 5.76 g/m*3 2.41 C 10.9 km/h
555 30-12-2011 03:00:00 4.925 C 5.63 g/m*3 2.61 C 9.81667 km/h
556 30-12-2011 04:00:00 5.19167 C 5.34 g/m*3 1.78 C 16.36667 km/h
557 30-12-2011 05:00:00 4.33333 C 5.09 g/m*3 0.49 C 17.975 km/h
558 30-12-2011 06:00:00 2.65833 C 5.15 g/m*3 0.18 C 8.73333 km/h
559 30-12-2011 07:00:00 2.99167 C 5.16 g/m*3 0.57 C 8.73333 km/h
560 30-12-2011 08:00:00 3.55 C 5.25 g/m*3 0.54 C 11.80833 km/h
561 30-12-2011 09:00:00 4.16667 C 5.26 g/m*3 0.98 C 13.43333 km/h
562 30-12-2011 10:00:00 4.70833 C 5.33 g/m*3 1.84 C 12.36667 km/h
563 30-12-2011 11:00:00 4.375 C 5.5 g/m*3 1.33 C 12.9 km/h
564 30-12-2011 12:00:00 3.99167 C 5.63 g/m*3 2.09 C 7.50833 km/h
565 30-12-2011 13:00:00 4.85833 C 5.65 g/m*3 2.75 C 8.88333 km/h
566 30-12-2011 14:00:00 5.025 C 5.47 g/m*3 2.34 C 11.7 km/h
567 30-12-2011 15:00:00 5.375 C 5.46 g/m*3 3.42 C 8.6 km/h
568 30-12-2011 16:00:00 4.7 C 5.53 g/m*3 2.84 C 7.8 km/h
569 30-12-2011 17:00:00 4.65833 C 5.31 g/m*3 2.68 C 8.19167 km/h
570 30-12-2011 18:00:00 3.46667 C 5.22 g/m*3 2.32 C 5.06667 km/h
571 30-12-2011 19:00:00 3.775 C 5.38 g/m*3 2.4 C 5.75833 km/h
572 30-12-2011 20:00:00 4.28333 C 5.3 g/m*3 2.66 C 6.71667 km/h
573 30-12-2011 21:00:00 4.05833 C 5.15 g/m*3 1.77 C 9 km/h
574 30-12-2011 22:00:00 2.96667 C 4.93 g/m*3 0.77 C 7.93333 km/h
575 30-12-2011 23:00:00 2.76667 C 4.92 g/m*3 1.46 C 5.225 km/h
Sensor: Nr:Datum:Temp:Abs-Feuchte:Windchill:Wind:
Aussen-T/F 576 31-12-2011 00:00:00 2.24167 C 4.99 g/m*3 2.24 C 2 km/h
577 31-12-2011 01:00:00 2.41667 C 5.05 g/m*3 2.42 C 2.54167 km/h
578 31-12-2011 02:00:00 3.19167 C 5.13 g/m*3 1.58 C 6.18333 km/h
579 31-12-2011 03:00:00 3.41667 C 5.32 g/m*3 3.42 C 4.275 km/h
580 31-12-2011 04:00:00 2.71667 C 5.43 g/m*3 2.72 C 0.93333 km/h
581 31-12-2011 05:00:00 2.55833 C 5.42 g/m*3 2.56 C 1.73333 km/h
582 31-12-2011 06:00:00 2.575 C 5.45 g/m*3 2.58 C 1.73333 km/h
583 31-12-2011 07:00:00 2.5 C 5.46 g/m*3 2.5 C 0.93333 km/h
584 31-12-2011 08:00:00 2.58333 C 5.54 g/m*3 2.58 C 0 km/h
585 31-12-2011 09:00:00 2.825 C 5.64 g/m*3 2.83 C 0.13333 km/h
586 31-12-2011 10:00:00 3.30833 C 5.83 g/m*3 3.31 C 0.4 km/h
587 31-12-2011 11:00:00 3.925 C 6.08 g/m*3 3.93 C 0.66667 km/h
588 31-12-2011 12:00:00 4.625 C 6.35 g/m*3 4.63 C 2.4 km/h
589 31-12-2011 13:00:00 5.80833 C 6.7 g/m*3 5.81 C 4.26667 km/h
590 31-12-2011 14:00:00 6.58333 C 7.05 g/m*3 6.58 C 3.73333 km/h
591 31-12-2011 15:00:00 6.875 C 7.22 g/m*3 6.88 C 3.86667 km/h
592 31-12-2011 16:00:00 7.075 C 7.32 g/m*3 7.08 C 4.13333 km/h
593 31-12-2011 17:00:00 7.30833 C 7.44 g/m*3 6.68 C 5.06667 km/h
594 31-12-2011 18:00:00 7.30833 C 7.57 g/m*3 7.31 C 2.8 km/h
595 31-12-2011 19:00:00 7.975 C 7.91 g/m*3 7.34 C 5.34167 km/h
596 31-12-2011 20:00:00 8.55833 C 8.13 g/m*3 8.56 C 4.13333 km/h
597 31-12-2011 21:00:00 8.58333 C 8.24 g/m*3 8.58 C 3.2 km/h
598 31-12-2011 22:00:00 8.75833 C 8.33 g/m*3 8.76 C 3.6 km/h
599 31-12-2011 23:00:00 10.05833 C 8.82 g/m*3 9.01 C 8.31667 km/h
600 01-01-2012 00:00:00 10.38333 C 8.84 g/m*3 9.47 C 7.91667 km/h
Sensor: Nr:Datum:Temp:Abs-Feuchte:Windchill:Wind:
Aussen-T/F 601 01-01-2012 01:00:00 10.45833 C 8.93 g/m*3 10.06 C 5.75 km/h
602 01-01-2012 02:00:00 9.775 C 8.78 g/m*3 9.78 C 4 km/h
603 01-01-2012 03:00:00 9.575 C 8.78 g/m*3 9.57 C 3.2 km/h
604 01-01-2012 04:00:00 9.61667 C 8.81 g/m*3 9.62 C 2.8 km/h
605 01-01-2012 05:00:00 9.88333 C 8.97 g/m*3 9.88 C 2.94167 km/h
606 01-01-2012 06:00:00 11.00833 C 9.26 g/m*3 11.01 C 10.19167 km/h
607 01-01-2012 07:00:00 11.73333 C 9.42 g/m*3 11.73 C 11.96667 km/h
608 01-01-2012 08:00:00 11.98889 C 9.43 g/m*3 11.99 C 11.3 km/h
609 01-01-2012 09:00:00 12.15 C 9.48 g/m*3 12.15 C 10.23333 km/h
610 01-01-2012 10:00:00 12.425 C 9.62 g/m*3 12.43 C 13.7 km/h
611 01-01-2012 11:00:00 12.7 C 9.66 g/m*3 12.7 C 12.76667 km/h
612 01-01-2012 12:00:00 13.15833 C 9.71 g/m*3 13.16 C 14.5 km/h
613 01-01-2012 13:00:00 13.20833 C 9.75 g/m*3 13.21 C 13.03333 km/h
614 01-01-2012 14:00:00 13.275 C 9.75 g/m*3 13.28 C 13.43333 km/h
615 01-01-2012 15:00:00 13.15833 C 9.73 g/m*3 13.16 C 9.01667 km/h
616 01-01-2012 16:00:00 12.725 C 9.68 g/m*3 12.73 C 7.25 km/h
617 01-01-2012 17:00:00 12.51667 C 9.62 g/m*3 12.52 C 7.50833 km/h
618 01-01-2012 18:00:00 12.66667 C 9.67 g/m*3 12.67 C 6.43333 km/h
619 01-01-2012 19:00:00 12.68333 C 9.8 g/m*3 12.68 C 6.55833 km/h
620 01-01-2012 20:00:00 13.39167 C 9.68 g/m*3 13.39 C 9.94167 km/h
621 01-01-2012 21:00:00 13.35 C 9.63 g/m*3 13.35 C 7.11667 km/h
622 01-01-2012 22:00:00 13.425 C 9.6 g/m*3 13.43 C 11.14167 km/h
623 01-01-2012 23:00:00 13.40833 C 9.62 g/m*3 13.41 C 8.74167 km/h
624 02-01-2012 00:00:00 13.54167 C 9.57 g/m*3 13.54 C 10.88333 km/h
625 02-01-2012 01:00:00 13.83333 C 9.35 g/m*3 13.83 C 13.83333 km/h
Sensor: Nr:Datum:Temp:Abs-Feuchte:Windchill:Wind:
Aussen-T/F 626 02-01-2012 02:00:00 13.7 C 9.24 g/m*3 13.7 C 11.96667 km/h
627 02-01-2012 03:00:00 13.29167 C 9.27 g/m*3 13.29 C 14.5 km/h
628 02-01-2012 04:00:00 12.60833 C 9.21 g/m*3 12.61 C 11.7 km/h
629 02-01-2012 05:00:00 11.31667 C 9.05 g/m*3 11.32 C 4.95 km/h
630 02-01-2012 06:00:00 9.76667 C 8.68 g/m*3 9.77 C 1.33333 km/h
631 02-01-2012 07:00:00 9.25833 C 8.56 g/m*3 9.26 C 0 km/h
632 02-01-2012 08:00:00 8.98333 C 8.45 g/m*3 8.98 C 0 km/h
633 02-01-2012 09:00:00 8.95833 C 8.41 g/m*3 8.96 C 2.675 km/h
634 02-01-2012 10:00:00 8.675 C 7.76 g/m*3 7.72 C 6.85 km/h
635 02-01-2012 11:00:00 7.83333 C 7.4 g/m*3 7.05 C 5.76667 km/h
636 02-01-2012 12:00:00 7.55 C 7.47 g/m*3 7.55 C 2.93333 km/h
637 02-01-2012 13:00:00 7.58333 C 7.59 g/m*3 7.58 C 2.93333 km/h
638 02-01-2012 14:00:00 8.175 C 7.51 g/m*3 7.49 C 5.61667 km/h
639 02-01-2012 15:00:00 7.85833 C 7.49 g/m*3 7.86 C 4.13333 km/h
640 02-01-2012 16:00:00 7.83333 C 7.29 g/m*3 6.78 C 6.7 km/h
641 02-01-2012 17:00:00 7.68333 C 6.97 g/m*3 6.09 C 8.875 km/h
642 02-01-2012 18:00:00 7.25833 C 6.63 g/m*3 5 C 11.96667 km/h
643 02-01-2012 19:00:00 6.55833 C 6.46 g/m*3 4.95 C 8.05833 km/h
644 02-01-2012 20:00:00 5.95833 C 6.41 g/m*3 4.81 C 6.03333 km/h
645 02-01-2012 21:00:00 4.94167 C 6.2 g/m*3 4.94 C 3.73333 km/h
646 02-01-2012 22:00:00 4.875 C 5.97 g/m*3 3.01 C 7.91667 km/h
647 02-01-2012 23:00:00 5.04167 C 5.81 g/m*3 2.12 C 13.025 km/h
648 03-01-2012 00:00:00 5.10833 C 5.71 g/m*3 2.09 C 13.7 km/h
649 03-01-2012 01:00:00 5.175 C 5.7 g/m*3 2.5 C 11.83333 km/h
650 03-01-2012 02:00:00 5.11667 C 5.64 g/m*3 3.12 C 8.6 km/h
Sensor: Nr:Datum:Temp:Abs-Feuchte:Windchill:Wind:
Aussen-T/F 651 03-01-2012 03:00:00 4.8 C 5.64 g/m*3 3.44 C 6.175 km/h
652 03-01-2012 04:00:00 4.91667 C 5.64 g/m*3 2.6 C 9.81667 km/h
653 03-01-2012 05:00:00 5.325 C 5.64 g/m*3 3.2 C 9.28333 km/h
654 03-01-2012 06:00:00 5.15 C 5.58 g/m*3 2.45 C 11.95833 km/h
655 03-01-2012 07:00:00 5.29167 C 5.65 g/m*3 3.05 C 9.8 km/h
656 03-01-2012 08:00:00 5.46667 C 5.65 g/m*3 3.85 C 7.36667 km/h
657 03-01-2012 09:00:00 6.16667 C 5.83 g/m*3 4.09 C 9.8 km/h
658 03-01-2012 10:00:00 6.96667 C 6.09 g/m*3 4.77 C 11.28333 km/h
659 03-01-2012 11:00:00 7.675 C 6.21 g/m*3 5.87 C 9.94167 km/h
660 03-01-2012 12:00:00 8.7 C 6.39 g/m*3 6.27 C 15.3 km/h
661 03-01-2012 13:00:00 9.26667 C 6.52 g/m*3 6.83 C 16.50833 km/h
662 03-01-2012 14:00:00 9.73333 C 6.88 g/m*3 7.3 C 17.43333 km/h
663 03-01-2012 15:00:00 9.05833 C 7.21 g/m*3 7.04 C 12.89167 km/h
664 03-01-2012 16:00:00 8.525 C 7.52 g/m*3 6.91 C 9.8 km/h
665 03-01-2012 17:00:00 9.06667 C 7.85 g/m*3 7.03 C 13.03333 km/h
666 03-01-2012 18:00:00 9.93333 C 8.06 g/m*3 7.55 C 17.43333 km/h
667 03-01-2012 19:00:00 10.44167 C 8.2 g/m*3 7.61 C 23.725 km/h
668 03-01-2012 20:00:00 10.84167 C 8.44 g/m*3 8.46 C 19.70833 km/h
669 03-01-2012 21:00:00 9.80833 C 8 g/m*3 8.11 C 11.81667 km/h
670 03-01-2012 22:00:00 8.18333 C 6.92 g/m*3 6.23 C 11.29167 km/h
671 03-01-2012 23:00:00 7.7 C 6.71 g/m*3 6.03 C 9.275 km/h
672 04-01-2012 00:00:00 7.29167 C 6.71 g/m*3 5.69 C 8.60833 km/h
673 04-01-2012 01:00:00 7.35 C 6.7 g/m*3 5.88 C 8.05833 km/h
674 04-01-2012 02:00:00 7.5 C 6.58 g/m*3 5.65 C 9.95 km/h
675 04-01-2012 03:00:00 7.275 C 6.3 g/m*3 5.44 C 9.65833 km/h
Sensor: Nr:Datum:Temp:Abs-Feuchte:Windchill:Wind:
Aussen-T/F 676 04-01-2012 04:00:00 6.51667 C 6.04 g/m*3 4.77 C 8.59167 km/h
677 04-01-2012 05:00:00 6.05833 C 5.77 g/m*3 4.08 C 9.28333 km/h
678 04-01-2012 06:00:00 5.28333 C 5.53 g/m*3 3.04 C 9.81667 km/h
679 04-01-2012 07:00:00 5.66667 C 5.59 g/m*3 2.43 C 15.96667 km/h
680 04-01-2012 08:00:00 5.93333 C 5.48 g/m*3 3.3 C 12.5 km/h
681 04-01-2012 09:00:00 6.10833 C 5.46 g/m*3 3.76 C 11.14167 km/h
682 04-01-2012 10:00:00 6.46667 C 5.46 g/m*3 3.84 C 13.16667 km/h
683 04-01-2012 11:00:00 7 C 5.31 g/m*3 4.19 C 15.16667 km/h
684 04-01-2012 12:00:00 7.13333 C 5.31 g/m*3 4.85 C 11.96667 km/h
685 04-01-2012 13:00:00 7.025 C 5.26 g/m*3 4.46 C 13.56667 km/h
686 04-01-2012 14:00:00 6.775 C 5.37 g/m*3 4.39 C 12.1 km/h
687 04-01-2012 15:00:00 6.71667 C 5.26 g/m*3 4.56 C 10.76667 km/h
688 04-01-2012 16:00:00 6.33333 C 5.24 g/m*3 4.05 C 11.03333 km/h
689 04-01-2012 17:00:00 6.24167 C 5.28 g/m*3 3.65 C 12.625 km/h
690 04-01-2012 18:00:00 6.26667 C 5.45 g/m*3 3.4 C 14.375 km/h
691 04-01-2012 19:00:00 6.66667 C 5.67 g/m*3 3.71 C 15.7 km/h
692 04-01-2012 20:00:00 6.44167 C 5.92 g/m*3 3.45 C 15.56667 km/h
693 04-01-2012 21:00:00 6.525 C 5.97 g/m*3 3.01 C 19.83333 km/h
694 04-01-2012 22:00:00 6.425 C 6.31 g/m*3 3.39 C 15.83333 km/h
695 04-01-2012 23:00:00 6.65 C 6.46 g/m*3 3.61 C 16.23333 km/h
696 05-01-2012 00:00:00 6.73333 C 6.53 g/m*3 3.43 C 18.5 km/h
697 05-01-2012 01:00:00 6.475 C 6.45 g/m*3 3.14 C 18.23333 km/h
698 05-01-2012 02:00:00 6.5 C 6.42 g/m*3 2.78 C 21.59167 km/h
699 05-01-2012 03:00:00 7.01667 C 6.54 g/m*3 3.2 C 24 km/h
700 05-01-2012 04:00:00 7.44167 C 6.71 g/m*3 3.67 C 24.78333 km/h
Sensor: Nr:Datum:Temp:Abs-Feuchte:Windchill:Wind:
Aussen-T/F 701 05-01-2012 05:00:00 7.81667 C 6.81 g/m*3 4.26 C 23.6 km/h
702 05-01-2012 06:00:00 7.6 C 6.89 g/m*3 4.13 C 22.11667 km/h
703 05-01-2012 07:00:00 7.76667 C 7.03 g/m*3 4.62 C 19.43333 km/h
704 05-01-2012 08:00:00 8.1 C 7.23 g/m*3 4.93 C 20.5 km/h
705 05-01-2012 09:00:00 8.54167 C 7.48 g/m*3 5.18 C 23.73333 km/h
706 05-01-2012 10:00:00 6.83333 C 6.76 g/m*3 3.44 C 19.45 km/h
707 05-01-2012 11:00:00 5.875 C 6.35 g/m*3 2.73 C 15.7 km/h
708 05-01-2012 12:00:00 6.83333 C 6.45 g/m*3 3.95 C 15.43333 km/h
709 05-01-2012 13:00:00 7.50833 C 6.23 g/m*3 4.53 C 17.43333 km/h
710 05-01-2012 14:00:00 8.25833 C 5.98 g/m*3 5.2 C 19.84167 km/h
711 05-01-2012 15:00:00 7.8 C 5.78 g/m*3 5 C 16.50833 km/h
712 05-01-2012 16:00:00 7.76667 C 5.26 g/m*3 4.49 C 20.65 km/h
713 05-01-2012 17:00:00 7.38333 C 5.34 g/m*3 4.66 C 15.16667 km/h
714 05-01-2012 18:00:00 7.21667 C 5.51 g/m*3 5.09 C 11.14167 km/h
715 05-01-2012 19:00:00 6.45 C 5.54 g/m*3 3.63 C 14.36667 km/h
716 05-01-2012 20:00:00 3.81667 C 5.46 g/m*3 1.23 C 10.075 km/h
717 05-01-2012 21:00:00 5.11667 C 5.54 g/m*3 1.65 C 16.63333 km/h
718 05-01-2012 22:00:00 5.14167 C 5.29 g/m*3 0.97 C 22.38333 km/h
719 05-01-2012 23:00:00 5.21667 C 4.98 g/m*3 1.25 C 20.775 km/h
720 06-01-2012 00:00:00 4.88333 C 4.99 g/m*3 0.91 C 20.10833 km/h
721 06-01-2012 01:00:00 3.7 C 5.24 g/m*3 0.07 C 15.45 km/h
722 06-01-2012 02:00:00 4.5 C 5.22 g/m*3 0.54 C 19.16667 km/h
723 06-01-2012 03:00:00 4.71667 C 5.23 g/m*3 1.14 C 16.775 km/h
724 06-01-2012 04:00:00 4.94167 C 5.2 g/m*3 1.71 C 14.76667 km/h
725 06-01-2012 05:00:00 5.35 C 5.29 g/m*3 2.06 C 15.83333 km/h
Sensor: Nr:Datum:Temp:Abs-Feuchte:Windchill:Wind:
Aussen-T/F 726 06-01-2012 06:00:00 5.76667 C 5.41 g/m*3 2.53 C 16.1 km/h
727 06-01-2012 07:00:00 6 C 5.58 g/m*3 2.54 C 18.25 km/h
728 06-01-2012 08:00:00 5.8 C 5.67 g/m*3 2.67 C 15.43333 km/h
729 06-01-2012 09:00:00 6.16667 C 5.67 g/m*3 3.24 C 14.63333 km/h
730 06-01-2012 10:00:00 5.75833 C 5.89 g/m*3 2.58 C 15.7 km/h
731 06-01-2012 11:00:00 6.325 C 6.01 g/m*3 3.58 C 13.69167 km/h
732 06-01-2012 12:00:00 6.68333 C 6.08 g/m*3 3.58 C 16.775 km/h
733 06-01-2012 13:00:00 6.725 C 6.08 g/m*3 4.17 C 13.03333 km/h
734 06-01-2012 14:00:00 7.05833 C 6.09 g/m*3 4.44 C 13.96667 km/h
735 06-01-2012 15:00:00 6.19167 C 6.16 g/m*3 4.18 C 9.51667 km/h
736 06-01-2012 16:00:00 5.46667 C 6.24 g/m*3 4.12 C 6.43333 km/h
737 06-01-2012 17:00:00 5 C 6.17 g/m*3 4.05 C 5.075 km/h
738 06-01-2012 18:00:00 5.15 C 6 g/m*3 2.87 C 9.83333 km/h
739 06-01-2012 19:00:00 5.08333 C 5.84 g/m*3 3.56 C 6.83333 km/h
740 06-01-2012 20:00:00 4.7 C 5.8 g/m*3 2.73 C 8.19167 km/h
741 06-01-2012 21:00:00 4.85 C 5.77 g/m*3 2.83 C 8.48333 km/h
742 06-01-2012 22:00:00 4.41667 C 5.65 g/m*3 2.5 C 7.8 km/h
743 06-01-2012 23:00:00 4.41667 C 5.49 g/m*3 2.37 C 8.31667 km/h
744 07-01-2012 00:00:00 4.08333 C 5.38 g/m*3 2.04 C 8.06667 km/h
745 07-01-2012 01:00:00 3.7 C 5.16 g/m*3 1.05 C 10.225 km/h
746 07-01-2012 02:00:00 3.95833 C 5.19 g/m*3 1.75 C 8.60833 km/h
747 07-01-2012 03:00:00 4.26667 C 5.36 g/m*3 1.4 C 11.81667 km/h
748 07-01-2012 04:00:00 4.39167 C 5.44 g/m*3 1.38 C 12.76667 km/h
749 07-01-2012 05:00:00 4.41667 C 5.55 g/m*3 0.96 C 15.43333 km/h
750 07-01-2012 06:00:00 4.59167 C 5.62 g/m*3 0.96 C 16.9 km/h
Sensor: Nr:Datum:Temp:Abs-Feuchte:Windchill:Wind:
Aussen-T/F 751 07-01-2012 07:00:00 4.60833 C 5.81 g/m*3 0.68 C 19.16667 km/h
752 07-01-2012 08:00:00 4.775 C 5.92 g/m*3 0.69 C 20.76667 km/h
753 07-01-2012 09:00:00 5.08333 C 6.09 g/m*3 1.14 C 20.23333 km/h
754 07-01-2012 10:00:00 5.83333 C 6.31 g/m*3 2.85 C 14.5 km/h
755 07-01-2012 11:00:00 6.49167 C 6.57 g/m*3 3.76 C 13.83333 km/h
756 07-01-2012 12:00:00 6.8 C 6.85 g/m*3 4.71 C 10.48333 km/h
757 07-01-2012 13:00:00 7.28333 C 6.97 g/m*3 5.19 C 11.01667 km/h
758 07-01-2012 14:00:00 7.80833 C 6.7 g/m*3 5.88 C 10.725 km/h
759 07-01-2012 15:00:00 7.15 C 6.6 g/m*3 4.87 C 11.96667 km/h
760 07-01-2012 16:00:00 7.175 C 6.4 g/m*3 4.88 C 12.1 km/h
761 07-01-2012 17:00:00 6.70833 C 6.15 g/m*3 4.41 C 11.55 km/h
762 07-01-2012 18:00:00 6.83333 C 5.98 g/m*3 4.2 C 13.7 km/h
763 07-01-2012 19:00:00 7.03333 C 5.82 g/m*3 4.47 C 13.56667 km/h
764 07-01-2012 20:00:00 5.54167 C 5.99 g/m*3 3.23 C 10.35 km/h
765 07-01-2012 21:00:00 5 C 5.99 g/m*3 3.23 C 7.65833 km/h
766 07-01-2012 22:00:00 5.01667 C 6.04 g/m*3 2.96 C 8.75 km/h
767 07-01-2012 23:00:00 4.56667 C 6 g/m*3 3.27 C 5.88333 km/h
768 08-01-2012 00:00:00 5.19167 C 6.03 g/m*3 2.73 C 10.75 km/h
769 08-01-2012 01:00:00 4.95833 C 6.04 g/m*3 3.67 C 6.01667 km/h
770 08-01-2012 02:00:00 5.20833 C 6.09 g/m*3 4.09 C 5.625 km/h
771 08-01-2012 03:00:00 5.625 C 6.1 g/m*3 3.89 C 7.91667 km/h
772 08-01-2012 04:00:00 5.61667 C 6.12 g/m*3 3.67 C 8.75 km/h
773 08-01-2012 05:00:00 5.51667 C 6.19 g/m*3 3.66 C 8.33333 km/h
774 08-01-2012 06:00:00 5.41667 C 6.21 g/m*3 3.79 C 7.39167 km/h
775 08-01-2012 07:00:00 5.375 C 6.2 g/m*3 3.7 C 7.51667 km/h
Sensor: Nr:Datum:Temp:Abs-Feuchte:Windchill:Wind:
Aussen-T/F 776 08-01-2012 08:00:00 5.61667 C 6.22 g/m*3 4.43 C 6.00833 km/h
777 08-01-2012 09:00:00 4.70833 C 5.98 g/m*3 2.67 C 8.45833 km/h
778 08-01-2012 10:00:00 5.46667 C 6.25 g/m*3 4.13 C 6.41667 km/h
779 08-01-2012 11:00:00 6.30833 C 6.33 g/m*3 5.13 C 6.3 km/h
780 08-01-2012 12:00:00 7.1 C 6.28 g/m*3 5.26 C 9.53333 km/h
781 08-01-2012 13:00:00 7.53333 C 6.13 g/m*3 5.77 C 9.55833 km/h
782 08-01-2012 14:00:00 7.60833 C 5.79 g/m*3 5.61 C 10.9 km/h
783 08-01-2012 15:00:00 7.63333 C 5.72 g/m*3 5.66 C 10.75833 km/h
784 08-01-2012 16:00:00 7.625 C 5.67 g/m*3 5.15 C 13.83333 km/h
785 08-01-2012 17:00:00 7.04167 C 6.01 g/m*3 5.52 C 8.05833 km/h
786 08-01-2012 18:00:00 6.36667 C 6.21 g/m*3 4.8 C 7.775 km/h
787 08-01-2012 19:00:00 6.25833 C 6.21 g/m*3 4.74 C 7.51667 km/h
788 08-01-2012 20:00:00 6.11667 C 6.2 g/m*3 4.3 C 8.6 km/h
789 08-01-2012 21:00:00 5.33333 C 6.2 g/m*3 5.33 C 4.26667 km/h
790 08-01-2012 22:00:00 4.93333 C 6.27 g/m*3 4.93 C 3.33333 km/h
791 08-01-2012 23:00:00 4.49167 C 6.12 g/m*3 4.49 C 4.66667 km/h
792 09-01-2012 00:00:00 4.93333 C 6.16 g/m*3 4.93 C 4.93333 km/h
793 09-01-2012 01:00:00 4.61667 C 6.12 g/m*3 4.62 C 3.2 km/h
794 09-01-2012 02:00:00 4.50833 C 6.08 g/m*3 4.51 C 3.33333 km/h
795 09-01-2012 03:00:00 4.65833 C 6.07 g/m*3 4.66 C 4.80833 km/h
796 09-01-2012 04:00:00 4.56667 C 6.05 g/m*3 4.57 C 2.8 km/h
797 09-01-2012 05:00:00 4.70833 C 5.95 g/m*3 4.71 C 4.54167 km/h
798 09-01-2012 06:00:00 4.86667 C 5.96 g/m*3 3.75 C 5.475 km/h
799 09-01-2012 07:00:00 4.95833 C 6.06 g/m*3 4.96 C 4.26667 km/h
800 09-01-2012 08:00:00 5.06667 C 6.23 g/m*3 5.07 C 4.8 km/h
Sensor: Nr:Datum:Temp:Abs-Feuchte:Windchill:Wind:
Aussen-T/F 801 09-01-2012 09:00:00 5.29167 C 6.38 g/m*3 4.14 C 5.75 km/h
802 09-01-2012 10:00:00 5.55833 C 6.5 g/m*3 3.92 C 7.50833 km/h
803 09-01-2012 11:00:00 6.13333 C 6.69 g/m*3 3.99 C 10.1 km/h
804 09-01-2012 12:00:00 6.66667 C 6.86 g/m*3 4.38 C 11.41667 km/h
805 09-01-2012 13:00:00 7.05 C 7 g/m*3 5.2 C 9.55833 km/h
806 09-01-2012 14:00:00 7.11667 C 7.07 g/m*3 5.39 C 9.01667 km/h
807 09-01-2012 15:00:00 7.24167 C 7.06 g/m*3 5.78 C 7.93333 km/h
808 09-01-2012 16:00:00 7.14167 C 7.04 g/m*3 6.06 C 6.43333 km/h
809 09-01-2012 17:00:00 6.99167 C 6.92 g/m*3 5.89 C 6.425 km/h
810 09-01-2012 18:00:00 7.4 C 6.8 g/m*3 6.24 C 6.85 km/h
811 09-01-2012 19:00:00 7.525 C 6.85 g/m*3 6.15 C 7.79167 km/h
812 09-01-2012 20:00:00 7.46667 C 6.86 g/m*3 6.21 C 7.25 km/h
813 09-01-2012 21:00:00 7.41667 C 7.01 g/m*3 6.19 C 7.125 km/h
814 09-01-2012 22:00:00 7.34167 C 7.16 g/m*3 5.66 C 9 km/h
815 09-01-2012 23:00:00 7.51667 C 7.26 g/m*3 5.92 C 8.74167 km/h
816 10-01-2012 00:00:00 7.48333 C 7.41 g/m*3 7.48 C 4.93333 km/h
817 10-01-2012 01:00:00 7.91667 C 7.63 g/m*3 7.28 C 5.33333 km/h
818 10-01-2012 02:00:00 7.825 C 7.46 g/m*3 7.83 C 4.26667 km/h
819 10-01-2012 03:00:00 7.88333 C 7.39 g/m*3 7.88 C 4.41667 km/h
820 10-01-2012 04:00:00 7.825 C 7.29 g/m*3 7.83 C 4.675 km/h
821 10-01-2012 05:00:00 7.40833 C 7.13 g/m*3 7.41 C 3.46667 km/h
822 10-01-2012 06:00:00 6.69167 C 6.88 g/m*3 6.69 C 3.6 km/h
823 10-01-2012 07:00:00 5.55833 C 6.49 g/m*3 5.56 C 3.86667 km/h
824 10-01-2012 08:00:00 5.46667 C 6.39 g/m*3 5.47 C 4.8 km/h
825 10-01-2012 09:00:00 4.475 C 6.16 g/m*3 4.47 C 1.73333 km/h
Sensor: Nr:Datum:Temp:Abs-Feuchte:Windchill:Wind:
Aussen-T/F 826 10-01-2012 10:00:00 5.09167 C 6.48 g/m*3 5.09 C 2.53333 km/h
827 10-01-2012 11:00:00 6.6 C 6.9 g/m*3 6.6 C 3.73333 km/h
828 10-01-2012 12:00:00 7.45833 C 7.15 g/m*3 7.46 C 2 km/h
829 10-01-2012 13:00:00 7.75 C 7.23 g/m*3 7.75 C 2 km/h
830 10-01-2012 14:00:00 7.98333 C 7.33 g/m*3 7.98 C 2.26667 km/h
831 10-01-2012 15:00:00 8.29167 C 7.39 g/m*3 8.29 C 1.86667 km/h
832 10-01-2012 16:00:00 7.74167 C 7.34 g/m*3 7.74 C 1.06667 km/h
833 10-01-2012 17:00:00 6.89167 C 7.07 g/m*3 6.89 C 2.53333 km/h
834 10-01-2012 18:00:00 6.78333 C 7.12 g/m*3 6.78 C 1.6 km/h
835 10-01-2012 19:00:00 6.675 C 7.13 g/m*3 6.68 C 0.4 km/h
836 10-01-2012 20:00:00 6.55 C 7.07 g/m*3 6.55 C 1.86667 km/h
837 10-01-2012 21:00:00 6.46667 C 6.9 g/m*3 6.47 C 2.53333 km/h
838 10-01-2012 22:00:00 6.71667 C 6.78 g/m*3 6.72 C 3.6 km/h
839 10-01-2012 23:00:00 6.8 C 6.76 g/m*3 6.8 C 3.6 km/h
840 11-01-2012 00:00:00 7.09167 C 6.67 g/m*3 7.09 C 4.55 km/h
841 11-01-2012 01:00:00 7.41667 C 6.67 g/m*3 6.45 C 6.16667 km/h
842 11-01-2012 02:00:00 7.21667 C 6.7 g/m*3 7.22 C 4.13333 km/h
843 11-01-2012 03:00:00 7.19167 C 6.71 g/m*3 7.19 C 4.94167 km/h
844 11-01-2012 04:00:00 7.15 C 6.72 g/m*3 7.15 C 4 km/h
845 11-01-2012 05:00:00 7.1 C 6.69 g/m*3 6.26 C 5.60833 km/h
846 11-01-2012 06:00:00 7.175 C 6.7 g/m*3 7.18 C 4.14167 km/h
847 11-01-2012 07:00:00 7.30833 C 6.65 g/m*3 6.26 C 6.41667 km/h
848 11-01-2012 08:00:00 7.45833 C 6.55 g/m*3 6.46 C 6.3 km/h
849 11-01-2012 09:00:00 7.46667 C 6.54 g/m*3 7.47 C 4 km/h
850 11-01-2012 10:00:00 7.95833 C 6.55 g/m*3 6.75 C 7.39167 km/h
Sensor: Nr:Datum:Temp:Abs-Feuchte:Windchill:Wind:
Aussen-T/F 851 11-01-2012 11:00:00 8.28333 C 6.56 g/m*3 6.86 C 8.60833 km/h
852 11-01-2012 12:00:00 8.86667 C 6.69 g/m*3 7.82 C 7.38333 km/h
853 11-01-2012 13:00:00 9.26667 C 6.87 g/m*3 8.32 C 7.24167 km/h
854 11-01-2012 14:00:00 9.28333 C 6.91 g/m*3 8.33 C 7.24167 km/h
855 11-01-2012 15:00:00 9.44167 C 7.01 g/m*3 8.43 C 7.65833 km/h
856 11-01-2012 16:00:00 8.99167 C 7.08 g/m*3 8.27 C 6.16667 km/h
857 11-01-2012 17:00:00 8.35 C 7.2 g/m*3 8.35 C 3.06667 km/h
858 11-01-2012 18:00:00 8.25 C 7.23 g/m*3 8.25 C 2.26667 km/h
859 11-01-2012 19:00:00 8.28333 C 7.16 g/m*3 8.28 C 4.14167 km/h
860 11-01-2012 20:00:00 8.83333 C 7.07 g/m*3 7.69 C 7.775 km/h
861 11-01-2012 21:00:00 8.9 C 7.04 g/m*3 7.82 C 7.525 km/h
862 11-01-2012 22:00:00 8.825 C 7.05 g/m*3 7.24 C 9.93333 km/h
863 11-01-2012 23:00:00 8.675 C 7.01 g/m*3 6.89 C 10.9 km/h
864 12-01-2012 00:00:00 8.55 C 7.04 g/m*3 6.79 C 10.63333 km/h
865 12-01-2012 01:00:00 8.4 C 7.08 g/m*3 7.06 C 8.31667 km/h
866 12-01-2012 02:00:00 8.16667 C 7.16 g/m*3 6.84 C 8.05 km/h
867 12-01-2012 03:00:00 7.85833 C 7.2 g/m*3 6.03 C 10.23333 km/h
868 12-01-2012 04:00:00 7.98333 C 7.12 g/m*3 6.65 C 7.93333 km/h
869 12-01-2012 05:00:00 7.94167 C 7.08 g/m*3 6.74 C 7.38333 km/h
870 12-01-2012 06:00:00 7.94167 C 7.01 g/m*3 6.11 C 10.34167 km/h
871 12-01-2012 07:00:00 7.9 C 7.01 g/m*3 5.98 C 10.75833 km/h
872 12-01-2012 08:00:00 8.05833 C 7.05 g/m*3 6.06 C 11.425 km/h
873 12-01-2012 09:00:00 8.06667 C 7.06 g/m*3 5.24 C 17.3 km/h
874 12-01-2012 10:00:00 8.26667 C 7.06 g/m*3 5.49 C 17.3 km/h
875 12-01-2012 11:00:00 8.525 C 7.12 g/m*3 6.02 C 15.56667 km/h
Sensor: Nr:Datum:Temp:Abs-Feuchte:Windchill:Wind:
Aussen-T/F 876 12-01-2012 12:00:00 8.65833 C 7.03 g/m*3 6.53 C 13.03333 km/h
877 12-01-2012 13:00:00 8.975 C 6.87 g/m*3 6.39 C 17.16667 km/h
878 12-01-2012 14:00:00 9.46667 C 6.88 g/m*3 6.97 C 17.43333 km/h
879 12-01-2012 15:00:00 9.65833 C 6.95 g/m*3 7.44 C 15.44167 km/h
880 12-01-2012 16:00:00 9.375 C 7.01 g/m*3 6.92 C 16.9 km/h
881 12-01-2012 17:00:00 8.28333 C 7.11 g/m*3 5.76 C 15.3 km/h
882 12-01-2012 18:00:00 7.75 C 7.18 g/m*3 5.51 C 12.5 km/h
883 12-01-2012 19:00:00 8.175 C 7.02 g/m*3 6.73 C 8.60833 km/h
884 12-01-2012 20:00:00 8.3 C 6.81 g/m*3 6.49 C 10.61667 km/h
885 12-01-2012 21:00:00 7.45 C 6.21 g/m*3 5.17 C 12.35833 km/h
886 12-01-2012 22:00:00 6.58333 C 5.81 g/m*3 4.3 C 11.28333 km/h
887 12-01-2012 23:00:00 6.18333 C 5.7 g/m*3 4.38 C 8.60833 km/h
888 13-01-2012 00:00:00 6.10833 C 5.52 g/m*3 3.88 C 10.48333 km/h
889 13-01-2012 01:00:00 5.9 C 5.37 g/m*3 4.01 C 8.74167 km/h
890 13-01-2012 02:00:00 5.925 C 5.33 g/m*3 3.83 C 9.7 km/h
891 13-01-2012 03:00:00 5.48333 C 5.18 g/m*3 3.94 C 7.1 km/h
892 13-01-2012 04:00:00 5.50833 C 5.22 g/m*3 3.65 C 8.33333 km/h
893 13-01-2012 05:00:00 4.85 C 5.21 g/m*3 2.7 C 9.01667 km/h
894 13-01-2012 06:00:00 4.64167 C 5.25 g/m*3 2.09 C 10.63333 km/h
895 13-01-2012 07:00:00 4.35 C 5.25 g/m*3 1.77 C 10.49167 km/h
896 13-01-2012 08:00:00 4.48333 C 5.53 g/m*3 2.11 C 9.675 km/h
897 13-01-2012 09:00:00 5.225 C 5.64 g/m*3 2.69 C 11.15833 km/h
898 13-01-2012 10:00:00 5.00833 C 5.51 g/m*3 1.95 C 13.83333 km/h
899 13-01-2012 11:00:00 4.55833 C 5.42 g/m*3 2.2 C 9.69167 km/h
900 13-01-2012 12:00:00 5.49167 C 5.49 g/m*3 2.58 C 13.56667 km/h
Sensor: Nr:Datum:Temp:Abs-Feuchte:Windchill:Wind:
Aussen-T/F 901 13-01-2012 13:00:00 5.70833 C 5.26 g/m*3 2.74 C 14.23333 km/h
902 13-01-2012 14:00:00 5.81667 C 5.12 g/m*3 3.09 C 12.89167 km/h
903 13-01-2012 15:00:00 5.76667 C 5.07 g/m*3 3.24 C 11.69167 km/h
904 13-01-2012 16:00:00 5.40833 C 4.96 g/m*3 3.18 C 9.825 km/h
905 13-01-2012 17:00:00 5.025 C 4.77 g/m*3 3.18 C 7.925 km/h
906 13-01-2012 18:00:00 4.85833 C 4.87 g/m*3 3.65 C 5.75 km/h
907 13-01-2012 19:00:00 4.45833 C 5.15 g/m*3 3.14 C 5.89167 km/h
908 13-01-2012 20:00:00 4.58333 C 5.03 g/m*3 3.02 C 6.7 km/h
909 13-01-2012 21:00:00 4.66667 C 4.86 g/m*3 3.15 C 6.575 km/h
910 13-01-2012 22:00:00 4.51667 C 4.83 g/m*3 4.52 C 4.675 km/h
911 13-01-2012 23:00:00 4.675 C 4.82 g/m*3 3.21 C 6.43333 km/h
912 14-01-2012 00:00:00 4.71667 C 4.86 g/m*3 3.53 C 5.61667 km/h
913 14-01-2012 01:00:00 4.55833 C 4.91 g/m*3 3.3 C 5.75833 km/h
914 14-01-2012 02:00:00 4.375 C 4.92 g/m*3 3.04 C 5.89167 km/h
915 14-01-2012 03:00:00 4.30833 C 4.8 g/m*3 2.3 C 8.06667 km/h
916 14-01-2012 04:00:00 4.225 C 4.8 g/m*3 4.22 C 4.81667 km/h
917 14-01-2012 05:00:00 4.03333 C 4.74 g/m*3 4.03 C 3.6 km/h
918 14-01-2012 06:00:00 3.78333 C 4.78 g/m*3 3.78 C 3.33333 km/h
919 14-01-2012 07:00:00 3.55833 C 4.76 g/m*3 3.56 C 4.95 km/h
920 14-01-2012 08:00:00 3.29167 C 4.74 g/m*3 1.56 C 6.575 km/h
921 14-01-2012 09:00:00 3.33333 C 4.86 g/m*3 1.95 C 5.61667 km/h
922 14-01-2012 10:00:00 3.65 C 5.03 g/m*3 3.65 C 2.93333 km/h
923 14-01-2012 11:00:00 4.375 C 5.22 g/m*3 4.38 C 4.66667 km/h
924 14-01-2012 12:00:00 5.09167 C 5.29 g/m*3 4.06 C 5.34167 km/h
925 14-01-2012 13:00:00 5.19167 C 5.14 g/m*3 4.08 C 5.60833 km/h
Sensor: Nr:Datum:Temp:Abs-Feuchte:Windchill:Wind:
Aussen-T/F 926 14-01-2012 14:00:00 5.56667 C 5.09 g/m*3 4.04 C 7.11667 km/h
927 14-01-2012 15:00:00 5.24167 C 4.95 g/m*3 5.24 C 4.94167 km/h
928 14-01-2012 16:00:00 4.94167 C 5.16 g/m*3 4.94 C 2 km/h
929 14-01-2012 17:00:00 4.5 C 5.14 g/m*3 4.5 C 2.8 km/h
930 14-01-2012 18:00:00 3.83333 C 5.21 g/m*3 3.83 C 3.2 km/h
931 14-01-2012 19:00:00 3.25 C 5.21 g/m*3 3.25 C 2.66667 km/h
932 14-01-2012 20:00:00 3.25833 C 5.26 g/m*3 3.26 C 2 km/h
933 14-01-2012 21:00:00 2.74167 C 5.16 g/m*3 2.74 C 1.46667 km/h
934 14-01-2012 22:00:00 2.05 C 4.99 g/m*3 2.05 C 2 km/h
935 14-01-2012 23:00:00 1.025 C 4.74 g/m*3 1.02 C 1.2 km/h
936 15-01-2012 00:00:00 0.25 C 4.59 g/m*3 0.25 C 0.4 km/h
937 15-01-2012 01:00:00 0.09167 C 4.58 g/m*3 0.09 C 0.53333 km/h
938 15-01-2012 02:00:00 -0.33333 C 4.45 g/m*3 -0.33 C 1.2 km/h
939 15-01-2012 03:00:00 -0.66667 C 4.39 g/m*3 -0.67 C 0.66667 km/h
940 15-01-2012 04:00:00 -0.81667 C 4.35 g/m*3 -0.82 C 0.53333 km/h
941 15-01-2012 05:00:00 -0.78333 C 4.37 g/m*3 -0.78 C 2.4 km/h
942 15-01-2012 06:00:00 -1.11667 C 4.3 g/m*3 -1.12 C 1.2 km/h
943 15-01-2012 07:00:00 -0.85833 C 4.38 g/m*3 -0.86 C 0.26667 km/h
944 15-01-2012 08:00:00 -0.4 C 4.55 g/m*3 -0.4 C 0 km/h
945 15-01-2012 09:00:00 -0.05 C 4.65 g/m*3 -0.05 C 0.13333 km/h
946 15-01-2012 10:00:00 0.29167 C 4.8 g/m*3 0.29 C 2.26667 km/h
947 15-01-2012 11:00:00 0.4 C 4.79 g/m*3 0.4 C 3.06667 km/h
948 15-01-2012 12:00:00 0.54167 C 4.8 g/m*3 0.54 C 3.2 km/h
949 15-01-2012 13:00:00 0.99167 C 4.87 g/m*3 0.99 C 3.6 km/h
950 15-01-2012 14:00:00 1.36667 C 4.9 g/m*3 1.37 C 4 km/h
Sensor: Nr:Datum:Temp:Abs-Feuchte:Windchill:Wind:
Aussen-T/F 951 15-01-2012 15:00:00 1.04167 C 4.79 g/m*3 1.04 C 3.46667 km/h
952 15-01-2012 16:00:00 0.63333 C 4.71 g/m*3 0.63 C 3.46667 km/h
953 15-01-2012 17:00:00 0.15 C 4.57 g/m*3 0.15 C 2.8 km/h
954 15-01-2012 18:00:00 -0.38333 C 4.46 g/m*3 -0.38 C 2 km/h
955 15-01-2012 19:00:00 -0.64167 C 4.41 g/m*3 -0.64 C 1.86667 km/h
956 15-01-2012 20:00:00 -0.94167 C 4.36 g/m*3 -0.94 C 2 km/h
957 15-01-2012 21:00:00 -1.18333 C 4.28 g/m*3 -1.18 C 2.4 km/h
958 15-01-2012 22:00:00 -1.56667 C 4.17 g/m*3 -1.57 C 1.6 km/h
959 15-01-2012 23:00:00 -1.70833 C 4.13 g/m*3 -1.71 C 1.6 km/h
960 16-01-2012 00:00:00 -1.68333 C 4.14 g/m*3 -1.68 C 2 km/h
961 16-01-2012 01:00:00 -1.7 C 4.13 g/m*3 -1.7 C 2.4 km/h
962 16-01-2012 02:00:00 -1.825 C 4.1 g/m*3 -1.83 C 2.4 km/h
963 16-01-2012 03:00:00 -1.95833 C 4.06 g/m*3 -1.96 C 1.86667 km/h
964 16-01-2012 04:00:00 -1.99167 C 4.05 g/m*3 -1.99 C 0.93333 km/h
965 16-01-2012 05:00:00 -1.925 C 4.06 g/m*3 -1.93 C 2.13333 km/h
966 16-01-2012 06:00:00 -2.2 C 3.92 g/m*3 -2.2 C 2.53333 km/h
967 16-01-2012 07:00:00 -2.25833 C 3.91 g/m*3 -2.26 C 1.33333 km/h
968 16-01-2012 08:00:00 -2.76667 C 3.72 g/m*3 -2.77 C 1.33333 km/h
969 16-01-2012 09:00:00 -2.99167 C 3.7 g/m*3 -2.99 C 0.4 km/h
970 16-01-2012 10:00:00 -2.15 C 3.93 g/m*3 -2.15 C 2.4 km/h
971 16-01-2012 11:00:00 -1.64167 C 4.03 g/m*3 -1.64 C 2.4 km/h
972 16-01-2012 12:00:00 -1.425 C 4.08 g/m*3 -1.43 C 0.26667 km/h
973 16-01-2012 13:00:00 -1.00833 C 4.25 g/m*3 -1.01 C 2.53333 km/h
974 16-01-2012 14:00:00 -0.38333 C 4.39 g/m*3 -0.38 C 2.26667 km/h
975 16-01-2012 15:00:00 -0.4 C 4.43 g/m*3 -0.4 C 2.8 km/h
Sensor: Nr:Datum:Temp:Abs-Feuchte:Windchill:Wind:
Aussen-T/F 976 16-01-2012 16:00:00 -0.5 C 4.4 g/m*3 -0.5 C 2.53333 km/h
977 16-01-2012 17:00:00 -0.93333 C 4.26 g/m*3 -0.93 C 3.2 km/h
978 16-01-2012 18:00:00 -1.28333 C 4.1 g/m*3 -1.28 C 2.8 km/h
979 16-01-2012 19:00:00 -1.76667 C 3.97 g/m*3 -1.77 C 1.33333 km/h
980 16-01-2012 20:00:00 -2.1 C 3.89 g/m*3 -2.1 C 1.33333 km/h
981 16-01-2012 21:00:00 -2.45833 C 3.77 g/m*3 -2.46 C 1.06667 km/h
982 16-01-2012 22:00:00 -2.8 C 3.68 g/m*3 -2.8 C 0.8 km/h
983 16-01-2012 23:00:00 -3.125 C 3.62 g/m*3 -3.13 C 0.93333 km/h
984 17-01-2012 00:00:00 -3.21667 C 3.61 g/m*3 -3.22 C 0.8 km/h
985 17-01-2012 01:00:00 -3.43333 C 3.57 g/m*3 -3.43 C 0.66667 km/h
986 17-01-2012 02:00:00 -3.76667 C 3.5 g/m*3 -3.77 C 0.53333 km/h
987 17-01-2012 03:00:00 -4.075 C 3.42 g/m*3 -4.08 C 1.6 km/h
988 17-01-2012 04:00:00 -4.125 C 3.41 g/m*3 -4.13 C 0.66667 km/h
989 17-01-2012 05:00:00 -4.375 C 3.35 g/m*3 -4.38 C 1.2 km/h
990 17-01-2012 06:00:00 -4.575 C 3.3 g/m*3 -4.58 C 0.26667 km/h
991 17-01-2012 07:00:00 -4.675 C 3.28 g/m*3 -4.68 C 0.8 km/h
992 17-01-2012 08:00:00 -4.84167 C 3.23 g/m*3 -4.84 C 0.4 km/h
993 17-01-2012 09:00:00 -4.69167 C 3.27 g/m*3 -4.69 C 0.53333 km/h
994 17-01-2012 10:00:00 -4.2 C 3.39 g/m*3 -4.2 C 0.4 km/h
995 17-01-2012 11:00:00 -3.30833 C 3.57 g/m*3 -3.31 C 0.93333 km/h
996 17-01-2012 12:00:00 -2.38333 C 3.83 g/m*3 -2.38 C 0.13333 km/h
997 17-01-2012 13:00:00 -1.01667 C 4.16 g/m*3 -1.02 C 1.06667 km/h
998 17-01-2012 14:00:00 0.06667 C 4.38 g/m*3 0.07 C 1.2 km/h
999 17-01-2012 15:00:00 0.40833 C 4.49 g/m*3 0.41 C 2.4 km/h
1000 17-01-2012 16:00:00 0.03333 C 4.36 g/m*3 0.03 C 3.2 km/h
Sensor: Nr:Datum:Temp:Abs-Feuchte:Windchill:Wind:
Aussen-T/F 1001 17-01-2012 17:00:00 -0.84167 C 4.08 g/m*3 -0.84 C 3.06667 km/h
1002 17-01-2012 18:00:00 -1.24167 C 3.99 g/m*3 -1.24 C 3.06667 km/h
1003 17-01-2012 19:00:00 -1.675 C 3.91 g/m*3 -1.68 C 1.33333 km/h
1004 17-01-2012 20:00:00 -2.21667 C 3.8 g/m*3 -2.22 C 0.66667 km/h
1005 17-01-2012 21:00:00 -2.575 C 3.72 g/m*3 -2.58 C 0.26667 km/h
1006 17-01-2012 22:00:00 -2.85833 C 3.68 g/m*3 -2.86 C 0.66667 km/h
1007 17-01-2012 23:00:00 -3.225 C 3.6 g/m*3 -3.23 C 0.66667 km/h
1008 18-01-2012 00:00:00 -3.325 C 3.59 g/m*3 -3.33 C 0.4 km/h
1009 18-01-2012 01:00:00 -3.65833 C 3.52 g/m*3 -3.66 C 0.26667 km/h
1010 18-01-2012 02:00:00 -3.86667 C 3.47 g/m*3 -3.87 C 0.26667 km/h
1011 18-01-2012 03:00:00 -4.03333 C 3.43 g/m*3 -4.03 C 1.06667 km/h
1012 18-01-2012 04:00:00 -4.18333 C 3.4 g/m*3 -4.18 C 0.26667 km/h
1013 18-01-2012 05:00:00 -4.25833 C 3.38 g/m*3 -4.26 C 0.8 km/h
1014 18-01-2012 06:00:00 -3.95 C 3.46 g/m*3 -3.95 C 2.66667 km/h
1015 18-01-2012 07:00:00 -3.25 C 3.53 g/m*3 -3.25 C 2.93333 km/h
1016 18-01-2012 08:00:00 -3.63333 C 3.47 g/m*3 -3.63 C 0.93333 km/h
1017 18-01-2012 09:00:00 -3.45833 C 3.53 g/m*3 -3.46 C 0.4 km/h
1018 18-01-2012 10:00:00 -2.10833 C 3.83 g/m*3 -2.11 C 0.4 km/h
1019 18-01-2012 11:00:00 -0.175 C 4.24 g/m*3 -0.18 C 2.66667 km/h
1020 18-01-2012 12:00:00 1.7 C 4.56 g/m*3 1.7 C 4.94167 km/h
1021 18-01-2012 13:00:00 2.96667 C 4.75 g/m*3 -0.3 C 12.49167 km/h
1022 18-01-2012 14:00:00 3.11667 C 4.98 g/m*3 -0.23 C 13.03333 km/h
1023 18-01-2012 15:00:00 2.93333 C 5.07 g/m*3 -0.45 C 13.03333 km/h
1024 18-01-2012 16:00:00 2.95 C 5.16 g/m*3 -0.53 C 13.56667 km/h
1025 18-01-2012 17:00:00 3.33333 C 5.22 g/m*3 -0.5 C 16.23333 km/h
Sensor: Nr:Datum:Temp:Abs-Feuchte:Windchill:Wind:
Aussen-T/F 1026 18-01-2012 18:00:00 3.56667 C 5.27 g/m*3 -0.13 C 15.7 km/h
1027 18-01-2012 19:00:00 3.325 C 5.36 g/m*3 -0.43 C 15.7 km/h
1028 18-01-2012 20:00:00 3.1 C 5.45 g/m*3 0.04 C 11.56667 km/h
1029 18-01-2012 21:00:00 3.175 C 5.48 g/m*3 -0.76 C 16.63333 km/h
1030 18-01-2012 22:00:00 3.25833 C 5.55 g/m*3 -0.8 C 17.56667 km/h
1031 18-01-2012 23:00:00 3.425 C 5.58 g/m*3 -0.79 C 19.03333 km/h
1032 19-01-2012 00:00:00 3.54167 C 5.64 g/m*3 -0.44 C 17.56667 km/h
1033 19-01-2012 01:00:00 3.56667 C 5.7 g/m*3 -0.17 C 15.96667 km/h
1034 19-01-2012 02:00:00 3.675 C 5.75 g/m*3 0.09 C 15.16667 km/h
1035 19-01-2012 03:00:00 3.99167 C 5.8 g/m*3 0.16 C 17.3 km/h
1036 19-01-2012 04:00:00 4.35833 C 5.87 g/m*3 0.35 C 19.3 km/h
1037 19-01-2012 05:00:00 4.70833 C 5.97 g/m*3 1.18 C 16.36667 km/h
1038 19-01-2012 06:00:00 5.04167 C 6.12 g/m*3 1.5 C 17.03333 km/h
1039 19-01-2012 07:00:00 5.45833 C 6.3 g/m*3 2.06 C 16.76667 km/h
1040 19-01-2012 08:00:00 6.05833 C 6.56 g/m*3 2.65 C 17.96667 km/h
1041 19-01-2012 09:00:00 6.75833 C 6.83 g/m*3 3.86 C 15.43333 km/h
1042 19-01-2012 10:00:00 7.73333 C 7.23 g/m*3 4.59 C 19.30833 km/h
1043 19-01-2012 11:00:00 8.51667 C 7.65 g/m*3 5.36 C 21.44167 km/h
1044 19-01-2012 12:00:00 9.09167 C 8.03 g/m*3 6.23 C 19.96667 km/h
1045 19-01-2012 13:00:00 9.76667 C 8.34 g/m*3 7.36 C 17.3 km/h
1046 19-01-2012 14:00:00 10.225 C 8.6 g/m*3 8.08 C 15.96667 km/h
1047 19-01-2012 15:00:00 10.64167 C 8.78 g/m*3 8.65 C 15.43333 km/h
1048 19-01-2012 16:00:00 10.71667 C 8.72 g/m*3 8.6 C 16.76667 km/h
1049 19-01-2012 17:00:00 8.725 C 7.73 g/m*3 6.41 C 14.5 km/h
1050 19-01-2012 18:00:00 7.6 C 7.06 g/m*3 6.27 C 7.65833 km/h
Sensor: Nr:Datum:Temp:Abs-Feuchte:Windchill:Wind:
Aussen-T/F 1051 19-01-2012 19:00:00 6.85 C 6.78 g/m*3 5.61 C 6.81667 km/h
1052 19-01-2012 20:00:00 6.225 C 6.72 g/m*3 6.23 C 4.66667 km/h
1053 19-01-2012 21:00:00 6.00833 C 6.59 g/m*3 5.01 C 5.60833 km/h
1054 19-01-2012 22:00:00 5.34167 C 6.35 g/m*3 4.25 C 5.61667 km/h
1055 19-01-2012 23:00:00 5.63333 C 6.34 g/m*3 3.64 C 9 km/h
1056 20-01-2012 00:00:00 5.64167 C 6.32 g/m*3 3.14 C 11.425 km/h
1057 20-01-2012 01:00:00 5.34167 C 6.17 g/m*3 3.63 C 7.65 km/h
1058 20-01-2012 02:00:00 5.46667 C 6.11 g/m*3 2.81 C 12.075 km/h
1059 20-01-2012 03:00:00 4.2 C 5.66 g/m*3 1.3 C 11.95 km/h
1060 20-01-2012 04:00:00 4.33333 C 5.53 g/m*3 2.19 C 8.6 km/h
1061 20-01-2012 05:00:00 4.4 C 5.37 g/m*3 2.57 C 7.50833 km/h
1062 20-01-2012 06:00:00 4.88333 C 5.11 g/m*3 1.66 C 14.63333 km/h
1063 20-01-2012 07:00:00 4.2 C 5.19 g/m*3 1.29 C 11.96667 km/h
1064 20-01-2012 08:00:00 4.63333 C 4.9 g/m*3 1.82 C 11.96667 km/h
1065 20-01-2012 09:00:00 4.38333 C 5.09 g/m*3 1.42 C 12.5 km/h
1066 20-01-2012 10:00:00 3.71667 C 5.34 g/m*3 1.4 C 8.875 km/h
1067 20-01-2012 11:00:00 3.48333 C 5.51 g/m*3 1.34 C 8.05 km/h
1068 20-01-2012 12:00:00 4.36667 C 5.61 g/m*3 2.07 C 9.275 km/h
1069 20-01-2012 13:00:00 4.41667 C 5.71 g/m*3 2.07 C 9.53333 km/h
1070 20-01-2012 14:00:00 4.75833 C 5.79 g/m*3 2.76 C 8.33333 km/h
1071 20-01-2012 15:00:00 5.10833 C 5.73 g/m*3 2.86 C 9.66667 km/h
1072 20-01-2012 16:00:00 4.40833 C 5.67 g/m*3 2.38 C 8.21667 km/h
1073 20-01-2012 17:00:00 3.225 C 5.56 g/m*3 3.23 C 4.275 km/h
1074 20-01-2012 18:00:00 2.83333 C 5.5 g/m*3 2.83 C 4.14167 km/h
1075 20-01-2012 19:00:00 2.71667 C 5.47 g/m*3 2.72 C 3.86667 km/h
Sensor: Nr:Datum:Temp:Abs-Feuchte:Windchill:Wind:
Aussen-T/F 1076 20-01-2012 20:00:00 2.79167 C 5.44 g/m*3 2.79 C 3.2 km/h
1077 20-01-2012 21:00:00 2.98333 C 5.4 g/m*3 1.76 C 5.09167 km/h
1078 20-01-2012 22:00:00 2.325 C 5.33 g/m*3 2.33 C 3.2 km/h
1079 20-01-2012 23:00:00 1.98333 C 5.25 g/m*3 1.98 C 2.8 km/h
1080 21-01-2012 00:00:00 1.69167 C 5.13 g/m*3 1.69 C 2.53333 km/h
1081 21-01-2012 01:00:00 0.96667 C 4.91 g/m*3 0.97 C 3.6 km/h
1082 21-01-2012 02:00:00 1.075 C 4.89 g/m*3 1.08 C 4.13333 km/h
1083 21-01-2012 03:00:00 1.50833 C 4.99 g/m*3 1.51 C 4.8 km/h
1084 21-01-2012 04:00:00 2.35 C 5.23 g/m*3 0.99 C 5.20833 km/h
1085 21-01-2012 05:00:00 2.25 C 5.32 g/m*3 2.25 C 3.2 km/h
1086 21-01-2012 06:00:00 2.30833 C 5.38 g/m*3 2.31 C 3.73333 km/h
1087 21-01-2012 07:00:00 2.74167 C 5.53 g/m*3 0.84 C 6.83333 km/h
1088 21-01-2012 08:00:00 3.36667 C 5.78 g/m*3 1.48 C 7.10833 km/h
1089 21-01-2012 09:00:00 4.16667 C 6.08 g/m*3 4.17 C 3.06667 km/h
1090 21-01-2012 10:00:00 5.28333 C 6.53 g/m*3 3.16 C 9.25833 km/h
1091 21-01-2012 11:00:00 6.80833 C 7.08 g/m*3 4.86 C 9.80833 km/h
1092 21-01-2012 12:00:00 8.01667 C 7.52 g/m*3 5.45 C 15.16667 km/h
1093 21-01-2012 13:00:00 9.24167 C 7.86 g/m*3 6.55 C 18.76667 km/h
1094 21-01-2012 14:00:00 9.925 C 8.06 g/m*3 7.83 C 14.9 km/h
1095 21-01-2012 15:00:00 10.20833 C 8.1 g/m*3 8.32 C 13.83333 km/h
1096 21-01-2012 16:00:00 9.825 C 8.13 g/m*3 8.05 C 12.35 km/h
1097 21-01-2012 17:00:00 9.275 C 7.98 g/m*3 7.57 C 11.16667 km/h
1098 21-01-2012 18:00:00 9.125 C 7.81 g/m*3 6.95 C 14.1 km/h
1099 21-01-2012 19:00:00 8.45 C 7.47 g/m*3 6.38 C 12.35 km/h
1100 21-01-2012 20:00:00 7.475 C 6.73 g/m*3 4.62 C 16.38333 km/h
Sensor: Nr:Datum:Temp:Abs-Feuchte:Windchill:Wind:
Aussen-T/F 1101 21-01-2012 21:00:00 7.325 C 6.3 g/m*3 5.15 C 11.55833 km/h
1102 21-01-2012 22:00:00 7.64167 C 6.2 g/m*3 5.02 C 14.9 km/h
1103 21-01-2012 23:00:00 6.65833 C 5.98 g/m*3 3.55 C 16.76667 km/h
1104 22-01-2012 00:00:00 6.95833 C 5.65 g/m*3 4.68 C 11.69167 km/h
1105 22-01-2012 01:00:00 7.09167 C 5.59 g/m*3 4.64 C 12.9 km/h
1106 22-01-2012 02:00:00 7.075 C 5.48 g/m*3 4.97 C 10.9 km/h
1107 22-01-2012 03:00:00 6.825 C 5.5 g/m*3 4.69 C 10.75833 km/h
1108 22-01-2012 04:00:00 6.63333 C 5.51 g/m*3 4.38 C 11.16667 km/h
1109 22-01-2012 05:00:00 6.70833 C 5.34 g/m*3 4.33 C 11.96667 km/h
1110 22-01-2012 06:00:00 6.60833 C 5.28 g/m*3 4.26 C 11.69167 km/h
1111 22-01-2012 07:00:00 6.39167 C 5.25 g/m*3 4 C 11.7 km/h
1112 22-01-2012 08:00:00 6.24167 C 5.32 g/m*3 3.59 C 13.03333 km/h
1113 22-01-2012 09:00:00 6.14167 C 5.38 g/m*3 3.67 C 11.83333 km/h
1114 22-01-2012 10:00:00 6.01667 C 5.43 g/m*3 3.75 C 10.625 km/h
1115 22-01-2012 11:00:00 6.43333 C 5.35 g/m*3 4.17 C 11.025 km/h
1116 22-01-2012 12:00:00 6.8 C 5.68 g/m*3 3.87 C 15.7 km/h
1117 22-01-2012 13:00:00 6.81667 C 6.02 g/m*3 3.44 C 19.3 km/h
1118 22-01-2012 14:00:00 6.50833 C 6.35 g/m*3 3.35 C 16.91667 km/h
1119 22-01-2012 15:00:00 6.55 C 6.6 g/m*3 2.76 C 22.39167 km/h
1120 22-01-2012 16:00:00 6.875 C 6.74 g/m*3 3.62 C 18.36667 km/h
1121 22-01-2012 17:00:00 7.18333 C 6.74 g/m*3 4.38 C 15.43333 km/h
1122 22-01-2012 18:00:00 7.775 C 6.58 g/m*3 5.01 C 16.23333 km/h
1123 22-01-2012 19:00:00 8.175 C 6.4 g/m*3 5.68 C 14.9 km/h
1124 22-01-2012 20:00:00 7.725 C 6.22 g/m*3 5.1 C 15.03333 km/h
1125 22-01-2012 21:00:00 6.675 C 6.23 g/m*3 4.73 C 9.675 km/h
Sensor: Nr:Datum:Temp:Abs-Feuchte:Windchill:Wind:
Aussen-T/F 1126 22-01-2012 22:00:00 7.35833 C 5.9 g/m*3 4.93 C 13.16667 km/h
1127 22-01-2012 23:00:00 7.01667 C 5.75 g/m*3 5.36 C 8.60833 km/h
1128 23-01-2012 00:00:00 6.49167 C 5.57 g/m*3 5.01 C 7.51667 km/h
1129 23-01-2012 01:00:00 5.3 C 5.42 g/m*3 3.65 C 7.38333 km/h
1130 23-01-2012 02:00:00 4.89167 C 5.39 g/m*3 3.03 C 7.91667 km/h
1131 23-01-2012 03:00:00 5.025 C 5.54 g/m*3 2.85 C 9.28333 km/h
1132 23-01-2012 04:00:00 4.98333 C 5.67 g/m*3 3.48 C 6.71667 km/h
1133 23-01-2012 05:00:00 4.79167 C 5.74 g/m*3 3.38 C 6.30833 km/h
1134 23-01-2012 06:00:00 4.54167 C 5.74 g/m*3 2.65 C 7.80833 km/h
1135 23-01-2012 07:00:00 4.11667 C 5.7 g/m*3 2.89 C 5.48333 km/h
1136 23-01-2012 08:00:00 4.45833 C 5.78 g/m*3 3.29 C 5.475 km/h
1137 23-01-2012 09:00:00 4.91667 C 5.87 g/m*3 3.4 C 6.71667 km/h
1138 23-01-2012 10:00:00 5.66667 C 5.96 g/m*3 3.97 C 7.8 km/h
1139 23-01-2012 11:00:00 6.41667 C 5.98 g/m*3 4.56 C 9.03333 km/h
1140 23-01-2012 12:00:00 7.1 C 5.92 g/m*3 5.4 C 8.88333 km/h
1141 23-01-2012 13:00:00 7.375 C 5.78 g/m*3 5.19 C 11.69167 km/h
1142 23-01-2012 14:00:00 6.81667 C 5.66 g/m*3 4.14 C 13.96667 km/h
1143 23-01-2012 15:00:00 6.80833 C 5.58 g/m*3 4.43 C 12.1 km/h
1144 23-01-2012 16:00:00 6.425 C 5.53 g/m*3 4.48 C 9.425 km/h
1145 23-01-2012 17:00:00 6.11667 C 5.53 g/m*3 4.33 C 8.46667 km/h
1146 23-01-2012 18:00:00 5.24167 C 5.77 g/m*3 3.37 C 8.18333 km/h
1147 23-01-2012 19:00:00 3.89167 C 5.69 g/m*3 1.89 C 7.78333 km/h
1148 23-01-2012 20:00:00 3.70833 C 5.69 g/m*3 1.72 C 7.65 km/h
1149 23-01-2012 21:00:00 3.9 C 5.73 g/m*3 3.9 C 4.94167 km/h
1150 23-01-2012 22:00:00 3.58333 C 5.76 g/m*3 3.58 C 3.73333 km/h
Sensor: Nr:Datum:Temp:Abs-Feuchte:Windchill:Wind:
Aussen-T/F 1151 23-01-2012 23:00:00 2.88333 C 5.44 g/m*3 0.92 C 7.10833 km/h
1152 24-01-2012 00:00:00 2.56667 C 5.41 g/m*3 2.57 C 4 km/h
1153 24-01-2012 01:00:00 2.46667 C 5.38 g/m*3 2.47 C 4.14167 km/h
1154 24-01-2012 02:00:00 2.54167 C 5.34 g/m*3 0.47 C 7.25 km/h
1155 24-01-2012 03:00:00 2.425 C 5.37 g/m*3 2.42 C 1.2 km/h
1156 24-01-2012 04:00:00 2.375 C 5.41 g/m*3 2.38 C 3.06667 km/h
1157 24-01-2012 05:00:00 2.45 C 5.4 g/m*3 2.45 C 3.34167 km/h
1158 24-01-2012 06:00:00 2.55833 C 5.44 g/m*3 2.56 C 3.6 km/h
1159 24-01-2012 07:00:00 2.69167 C 5.45 g/m*3 2.69 C 3.73333 km/h
1160 24-01-2012 08:00:00 2.95 C 5.51 g/m*3 2.95 C 2.8 km/h
1161 24-01-2012 09:00:00 3.1 C 5.52 g/m*3 3.1 C 2.53333 km/h
1162 24-01-2012 10:00:00 3.425 C 5.61 g/m*3 3.43 C 3.46667 km/h
1163 24-01-2012 11:00:00 4.03333 C 5.66 g/m*3 2.9 C 5.20833 km/h
1164 24-01-2012 12:00:00 4.70833 C 5.68 g/m*3 3.39 C 6.00833 km/h
1165 24-01-2012 13:00:00 5.05833 C 5.68 g/m*3 3.37 C 7.38333 km/h
1166 24-01-2012 14:00:00 5.24167 C 5.66 g/m*3 3.66 C 7.11667 km/h
1167 24-01-2012 15:00:00 4.98333 C 5.6 g/m*3 3.79 C 5.75 km/h
1168 24-01-2012 16:00:00 4.54167 C 5.59 g/m*3 3.33 C 5.61667 km/h
1169 24-01-2012 17:00:00 3.75833 C 5.52 g/m*3 3.76 C 4.66667 km/h
1170 24-01-2012 18:00:00 3.34167 C 5.47 g/m*3 3.34 C 3.86667 km/h
1171 24-01-2012 19:00:00 3.075 C 5.48 g/m*3 3.08 C 2.66667 km/h
1172 24-01-2012 20:00:00 2.79167 C 5.42 g/m*3 2.79 C 1.73333 km/h
1173 24-01-2012 21:00:00 2.19167 C 5.23 g/m*3 2.19 C 2.13333 km/h
1174 24-01-2012 22:00:00 1.14167 C 4.9 g/m*3 1.14 C 2.53333 km/h
1175 24-01-2012 23:00:00 0.44167 C 4.7 g/m*3 0.44 C 1.2 km/h
Sensor: Nr:Datum:Temp:Abs-Feuchte:Windchill:Wind:
Aussen-T/F 1176 25-01-2012 00:00:00 -0.05 C 4.58 g/m*3 -0.05 C 0.93333 km/h
1177 25-01-2012 01:00:00 -0.45 C 4.46 g/m*3 -0.45 C 1.06667 km/h
1178 25-01-2012 02:00:00 -0.55833 C 4.47 g/m*3 -0.56 C 0.4 km/h
1179 25-01-2012 03:00:00 -0.55 C 4.48 g/m*3 -0.55 C 0.93333 km/h
1180 25-01-2012 04:00:00 -0.34167 C 4.56 g/m*3 -0.34 C 0.26667 km/h
1181 25-01-2012 05:00:00 -0.54167 C 4.48 g/m*3 -0.54 C 0.4 km/h
1182 25-01-2012 06:00:00 -0.66667 C 4.46 g/m*3 -0.67 C 1.33333 km/h
1183 25-01-2012 07:00:00 -0.6 C 4.51 g/m*3 -0.6 C 0.93333 km/h
1184 25-01-2012 08:00:00 -0.43333 C 4.56 g/m*3 -0.43 C 1.33333 km/h
1185 25-01-2012 09:00:00 -0.2 C 4.64 g/m*3 -0.2 C 1.33333 km/h
1186 25-01-2012 10:00:00 0.56667 C 4.89 g/m*3 0.57 C 2.4 km/h
1187 25-01-2012 11:00:00 0.95833 C 4.94 g/m*3 0.96 C 1.2 km/h
1188 25-01-2012 12:00:00 1.2 C 5 g/m*3 1.2 C 2.26667 km/h
1189 25-01-2012 13:00:00 1.89167 C 5.18 g/m*3 1.89 C 2.8 km/h
1190 25-01-2012 14:00:00 2.2 C 5.21 g/m*3 2.2 C 3.86667 km/h
1191 25-01-2012 15:00:00 2.41667 C 5.15 g/m*3 2.42 C 4.8 km/h
1192 25-01-2012 16:00:00 1.90833 C 5.01 g/m*3 1.91 C 3.33333 km/h
1193 25-01-2012 17:00:00 0.66667 C 4.71 g/m*3 0.67 C 3.06667 km/h
1194 25-01-2012 18:00:00 0.21667 C 4.64 g/m*3 0.22 C 2.66667 km/h
1195 25-01-2012 19:00:00 0.31667 C 4.7 g/m*3 0.32 C 2 km/h
1196 25-01-2012 20:00:00 0.625 C 4.77 g/m*3 0.63 C 1.46667 km/h
1197 25-01-2012 21:00:00 0.76667 C 4.82 g/m*3 0.77 C 2 km/h
1198 25-01-2012 22:00:00 0.98333 C 4.87 g/m*3 0.98 C 1.86667 km/h
1199 25-01-2012 23:00:00 1.125 C 4.92 g/m*3 1.13 C 1.73333 km/h
1200 26-01-2012 00:00:00 1.21667 C 4.93 g/m*3 1.22 C 0.93333 km/h
Sensor: Nr:Datum:Temp:Abs-Feuchte:Windchill:Wind:
Aussen-T/F 1201 26-01-2012 01:00:00 1.075 C 4.82 g/m*3 1.08 C 1.33333 km/h
1202 26-01-2012 02:00:00 0.73333 C 4.78 g/m*3 0.73 C 0.13333 km/h
1203 26-01-2012 03:00:00 0.75 C 4.75 g/m*3 0.75 C 0.53333 km/h
1204 26-01-2012 04:00:00 0.75 C 4.71 g/m*3 0.75 C 0.13333 km/h
1205 26-01-2012 05:00:00 0.74167 C 4.56 g/m*3 0.74 C 3.6 km/h
1206 26-01-2012 06:00:00 0.625 C 4.52 g/m*3 0.63 C 1.86667 km/h
1207 26-01-2012 07:00:00 0.65833 C 4.52 g/m*3 0.66 C 1.2 km/h
1208 26-01-2012 08:00:00 0.7 C 4.5 g/m*3 0.7 C 2.13333 km/h
1209 26-01-2012 09:00:00 1.05 C 4.52 g/m*3 1.05 C 1.73333 km/h
1210 26-01-2012 10:00:00 1.66667 C 4.51 g/m*3 1.67 C 3.86667 km/h
1211 26-01-2012 11:00:00 2.09167 C 4.45 g/m*3 2.09 C 4.93333 km/h
1212 26-01-2012 12:00:00 2.375 C 4.4 g/m*3 0.41 C 6.83333 km/h
1213 26-01-2012 13:00:00 2.625 C 4.4 g/m*3 0.45 C 7.65 km/h
1214 26-01-2012 14:00:00 2.79167 C 4.44 g/m*3 1.43 C 5.35833 km/h
1215 26-01-2012 15:00:00 2.9 C 4.47 g/m*3 1.25 C 6.16667 km/h
1216 26-01-2012 16:00:00 2.8 C 4.47 g/m*3 0.42 C 8.45 km/h
1217 26-01-2012 17:00:00 2.79167 C 4.52 g/m*3 1.17 C 6.03333 km/h
1218 26-01-2012 18:00:00 2.8 C 4.57 g/m*3 2.8 C 3.33333 km/h
1219 26-01-2012 19:00:00 2.61667 C 4.75 g/m*3 2.62 C 2.8 km/h
1220 26-01-2012 20:00:00 2.50833 C 4.85 g/m*3 2.51 C 4.00833 km/h
1221 26-01-2012 21:00:00 2.58333 C 4.82 g/m*3 2.58 C 3.33333 km/h
1222 26-01-2012 22:00:00 2.61667 C 4.87 g/m*3 2.62 C 2.26667 km/h
1223 26-01-2012 23:00:00 2.725 C 4.87 g/m*3 2.73 C 3.075 km/h
1224 27-01-2012 00:00:00 2.65833 C 4.94 g/m*3 2.66 C 1.86667 km/h
1225 27-01-2012 01:00:00 2.19167 C 5.05 g/m*3 2.19 C 0.66667 km/h
Sensor: Nr:Datum:Temp:Abs-Feuchte:Windchill:Wind:
Aussen-T/F 1226 27-01-2012 02:00:00 2.025 C 5.11 g/m*3 2.03 C 0 km/h
1227 27-01-2012 03:00:00 1.75 C 5.1 g/m*3 1.75 C 0.13333 km/h
1228 27-01-2012 04:00:00 1.63333 C 5.13 g/m*3 1.63 C 0.13333 km/h
1229 27-01-2012 05:00:00 1.65 C 5.15 g/m*3 1.65 C 0 km/h
1230 27-01-2012 06:00:00 1.325 C 5.04 g/m*3 1.33 C 0.66667 km/h
1231 27-01-2012 07:00:00 1.03333 C 4.96 g/m*3 1.03 C 0.66667 km/h
1232 27-01-2012 08:00:00 1.325 C 5.09 g/m*3 1.33 C 0 km/h
1233 27-01-2012 09:00:00 1.9 C 5.3 g/m*3 1.9 C 0.4 km/h
1234 27-01-2012 10:00:00 2.69167 C 5.53 g/m*3 1.43 C 5.08333 km/h
1235 27-01-2012 11:00:00 3.2 C 5.62 g/m*3 3.2 C 4.13333 km/h
1236 27-01-2012 12:00:00 3.63333 C 5.64 g/m*3 3.63 C 4.94167 km/h
1237 27-01-2012 13:00:00 3.875 C 5.65 g/m*3 2.78 C 5.06667 km/h
1238 27-01-2012 14:00:00 4.35 C 5.72 g/m*3 4.35 C 3.06667 km/h
1239 27-01-2012 15:00:00 4.775 C 5.78 g/m*3 4.78 C 2 km/h
1240 27-01-2012 16:00:00 4.98333 C 5.81 g/m*3 4.98 C 3.46667 km/h
1241 27-01-2012 17:00:00 4.19167 C 5.71 g/m*3 4.19 C 2.66667 km/h
1242 27-01-2012 18:00:00 2.79167 C 5.38 g/m*3 2.79 C 2.66667 km/h
1243 27-01-2012 19:00:00 2.35833 C 5.28 g/m*3 2.36 C 2.4 km/h
1244 27-01-2012 20:00:00 2.10833 C 5.21 g/m*3 2.11 C 2.26667 km/h
1245 27-01-2012 21:00:00 1.81667 C 5.13 g/m*3 1.82 C 1.73333 km/h
1246 27-01-2012 22:00:00 1.7 C 5.12 g/m*3 1.7 C 0.8 km/h
1247 27-01-2012 23:00:00 2.05833 C 5.26 g/m*3 2.06 C 0.8 km/h
1248 28-01-2012 00:00:00 2.06667 C 5.25 g/m*3 2.07 C 0.13333 km/h
1249 28-01-2012 01:00:00 2.15 C 5.32 g/m*3 2.15 C 0.26667 km/h
1250 28-01-2012 02:00:00 2.28333 C 5.32 g/m*3 2.28 C 0.4 km/h
Sensor: Nr:Datum:Temp:Abs-Feuchte:Windchill:Wind:
Aussen-T/F 1251 28-01-2012 03:00:00 2.09167 C 5.26 g/m*3 2.09 C 1.06667 km/h
1252 28-01-2012 04:00:00 1.8 C 5.18 g/m*3 1.8 C 0.93333 km/h
1253 28-01-2012 05:00:00 1.95833 C 5.26 g/m*3 1.96 C 0 km/h
1254 28-01-2012 06:00:00 2.15833 C 5.34 g/m*3 2.16 C 0 km/h
1255 28-01-2012 07:00:00 2.225 C 5.36 g/m*3 2.23 C 0 km/h
1256 28-01-2012 08:00:00 2.31667 C 5.39 g/m*3 2.32 C 0 km/h
1257 28-01-2012 09:00:00 2.61667 C 5.48 g/m*3 2.62 C 0 km/h
1258 28-01-2012 10:00:00 3.125 C 5.59 g/m*3 3.13 C 0.8 km/h
1259 28-01-2012 11:00:00 3.46667 C 5.57 g/m*3 3.47 C 2 km/h
1260 28-01-2012 12:00:00 3.86667 C 5.64 g/m*3 3.87 C 2.4 km/h
1261 28-01-2012 13:00:00 4.30833 C 5.48 g/m*3 4.31 C 2.93333 km/h
1262 28-01-2012 14:00:00 4.46667 C 5.18 g/m*3 4.47 C 3.33333 km/h
1263 28-01-2012 15:00:00 4.28333 C 5.06 g/m*3 4.28 C 1.33333 km/h
1264 28-01-2012 16:00:00 4.06667 C 5.06 g/m*3 4.07 C 1.6 km/h
1265 28-01-2012 17:00:00 3.41667 C 4.91 g/m*3 3.42 C 3.6 km/h
1266 28-01-2012 18:00:00 2.7 C 4.8 g/m*3 2.7 C 1.33333 km/h
1267 28-01-2012 19:00:00 2.30833 C 4.79 g/m*3 2.31 C 0.8 km/h
1268 28-01-2012 20:00:00 2.3 C 4.54 g/m*3 2.3 C 1.86667 km/h
1269 28-01-2012 21:00:00 2.14167 C 4.35 g/m*3 2.14 C 3.20833 km/h
1270 28-01-2012 22:00:00 1.58333 C 4.36 g/m*3 -0.11 C 5.76667 km/h
1271 28-01-2012 23:00:00 1.075 C 4.27 g/m*3 1.08 C 3.6 km/h
1272 29-01-2012 00:00:00 0.90833 C 4.35 g/m*3 0.91 C 0.4 km/h
1273 29-01-2012 01:00:00 0.85 C 4.41 g/m*3 0.85 C 0.26667 km/h
1274 29-01-2012 02:00:00 1.03333 C 4.44 g/m*3 1.03 C 2.93333 km/h
1275 29-01-2012 03:00:00 0.91667 C 4.32 g/m*3 0.92 C 1.86667 km/h
Sensor: Nr:Datum:Temp:Abs-Feuchte:Windchill:Wind:
Aussen-T/F 1276 29-01-2012 04:00:00 0.9 C 4.33 g/m*3 0.9 C 3.34167 km/h
1277 29-01-2012 05:00:00 0.95833 C 4.34 g/m*3 0.96 C 2.93333 km/h
1278 29-01-2012 06:00:00 1.08333 C 4.28 g/m*3 -0.68 C 5.75 km/h
1279 29-01-2012 07:00:00 0.94167 C 4.19 g/m*3 -1.01 C 6.16667 km/h
1280 29-01-2012 08:00:00 0.96667 C 4.19 g/m*3 -0.76 C 5.60833 km/h
1281 29-01-2012 09:00:00 1.13333 C 4.22 g/m*3 -1.21 C 7.38333 km/h
1282 29-01-2012 10:00:00 1.175 C 4.17 g/m*3 -0.89 C 6.56667 km/h
1283 29-01-2012 11:00:00 1.2 C 4.2 g/m*3 -1.31 C 7.925 km/h
1284 29-01-2012 12:00:00 1.20833 C 4.22 g/m*3 -1.34 C 8.08333 km/h
1285 29-01-2012 13:00:00 1.18333 C 4.25 g/m*3 -1.29 C 7.8 km/h
1286 29-01-2012 14:00:00 1.06667 C 4.21 g/m*3 -1.55 C 8.2 km/h
1287 29-01-2012 15:00:00 0.975 C 4.08 g/m*3 -1.53 C 7.79167 km/h
1288 29-01-2012 16:00:00 0.95833 C 4.08 g/m*3 -0.71 C 5.48333 km/h
1289 29-01-2012 17:00:00 0.775 C 4.08 g/m*3 0.78 C 3.86667 km/h
1290 29-01-2012 18:00:00 0.69167 C 4.07 g/m*3 0.69 C 3.73333 km/h
1291 29-01-2012 19:00:00 0.6 C 4.07 g/m*3 0.6 C 3.2 km/h
1292 29-01-2012 20:00:00 0.45833 C 4.04 g/m*3 0.46 C 4.14167 km/h
1293 29-01-2012 21:00:00 0.25 C 3.93 g/m*3 0.25 C 3.6 km/h
1294 29-01-2012 22:00:00 0.125 C 3.91 g/m*3 0.13 C 2.8 km/h
1295 29-01-2012 23:00:00 -0.05833 C 3.9 g/m*3 -0.06 C 0.8 km/h
1296 30-01-2012 00:00:00 -0.1 C 3.88 g/m*3 -0.1 C 1.33333 km/h
1297 30-01-2012 01:00:00 -0.15 C 3.84 g/m*3 -0.15 C 2.53333 km/h
1298 30-01-2012 02:00:00 -0.24167 C 3.87 g/m*3 -0.24 C 0.66667 km/h
1299 30-01-2012 03:00:00 -0.325 C 3.88 g/m*3 -0.33 C 0.8 km/h
1300 30-01-2012 04:00:00 -0.44167 C 3.88 g/m*3 -0.44 C 0.4 km/h
Sensor: Nr:Datum:Temp:Abs-Feuchte:Windchill:Wind:
Aussen-T/F 1301 30-01-2012 05:00:00 -0.45 C 3.87 g/m*3 -0.45 C 1.6 km/h
1302 30-01-2012 06:00:00 -0.43333 C 3.88 g/m*3 -0.43 C 2 km/h
1303 30-01-2012 07:00:00 -0.5 C 3.87 g/m*3 -0.5 C 1.2 km/h
1304 30-01-2012 08:00:00 -0.475 C 3.89 g/m*3 -0.48 C 2 km/h
1305 30-01-2012 09:00:00 -0.29167 C 3.92 g/m*3 -0.29 C 2.26667 km/h
1306 30-01-2012 10:00:00 0.08333 C 3.97 g/m*3 0.08 C 4 km/h
1307 30-01-2012 11:00:00 0.34167 C 3.97 g/m*3 0.34 C 4.80833 km/h
1308 30-01-2012 12:00:00 0.53333 C 3.98 g/m*3 -1.08 C 5.20833 km/h
1309 30-01-2012 13:00:00 0.6 C 4.01 g/m*3 0.6 C 4.8 km/h
1310 30-01-2012 14:00:00 0.58333 C 3.99 g/m*3 0.58 C 4.66667 km/h
1311 30-01-2012 15:00:00 0.6 C 3.99 g/m*3 0.6 C 3.6 km/h
1312 30-01-2012 16:00:00 0.59167 C 3.97 g/m*3 0.59 C 3.2 km/h
1313 30-01-2012 17:00:00 0.41667 C 3.94 g/m*3 0.42 C 2 km/h
1314 30-01-2012 18:00:00 0.38333 C 3.92 g/m*3 0.38 C 2.66667 km/h
1315 30-01-2012 19:00:00 0.25833 C 3.9 g/m*3 0.26 C 1.46667 km/h
1316 30-01-2012 20:00:00 0.075 C 3.79 g/m*3 0.08 C 4.14167 km/h
1317 30-01-2012 21:00:00 -0.15833 C 3.74 g/m*3 -0.16 C 4 km/h
1318 30-01-2012 22:00:00 -0.40833 C 3.75 g/m*3 -0.41 C 2.13333 km/h
1319 30-01-2012 23:00:00 -0.54167 C 3.75 g/m*3 -0.54 C 1.46667 km/h
1320 31-01-2012 00:00:00 -0.69167 C 3.78 g/m*3 -0.69 C 1.2 km/h
1321 31-01-2012 01:00:00 -0.70833 C 3.75 g/m*3 -0.71 C 1.06667 km/h
1322 31-01-2012 02:00:00 -0.7 C 3.73 g/m*3 -0.7 C 0.93333 km/h
1323 31-01-2012 03:00:00 -0.675 C 3.65 g/m*3 -0.68 C 4.26667 km/h
1324 31-01-2012 04:00:00 -0.725 C 3.57 g/m*3 -0.73 C 3.6 km/h
1325 31-01-2012 05:00:00 -0.85833 C 3.44 g/m*3 -0.86 C 4.675 km/h
Sensor: Nr:Datum:Temp:Abs-Feuchte:Windchill:Wind:
Aussen-T/F 1326 31-01-2012 06:00:00 -1.21667 C 3.24 g/m*3 -3.76 C 6.83333 km/h
1327 31-01-2012 07:00:00 -1.5 C 3.1 g/m*3 -4.38 C 7.65 km/h
1328 31-01-2012 08:00:00 -1.65833 C 3.02 g/m*3 -3.94 C 6.01667 km/h
1329 31-01-2012 09:00:00 -2.03333 C 2.93 g/m*3 -4.13 C 5.475 km/h
1330 31-01-2012 10:00:00 -2.53333 C 2.81 g/m*3 -2.53 C 4.00833 km/h
1331 31-01-2012 11:00:00 -2.40833 C 2.79 g/m*3 -2.41 C 4.94167 km/h
1332 31-01-2012 12:00:00 -1.66667 C 2.78 g/m*3 -4.38 C 7.11667 km/h
1333 31-01-2012 13:00:00 -1.2 C 2.71 g/m*3 -3.79 C 6.96667 km/h
1334 31-01-2012 14:00:00 -0.39167 C 2.77 g/m*3 -3.26 C 8.19167 km/h
1335 31-01-2012 15:00:00 -0.16667 C 2.72 g/m*3 -3.53 C 10.075 km/h
1336 31-01-2012 16:00:00 -1.00833 C 2.68 g/m*3 -4.32 C 9.28333 km/h
1337 31-01-2012 17:00:00 -1.78333 C 2.65 g/m*3 -3.97 C 5.76667 km/h
1338 31-01-2012 18:00:00 -2.48333 C 2.65 g/m*3 -4.89 C 6.03333 km/h
1339 31-01-2012 19:00:00 -3 C 2.63 g/m*3 -5.61 C 6.30833 km/h
1340 31-01-2012 20:00:00 -3.68333 C 2.61 g/m*3 -3.68 C 4.825 km/h
1341 31-01-2012 21:00:00 -4.41667 C 2.58 g/m*3 -6.65 C 5.09167 km/h
1342 31-01-2012 22:00:00 -4.86667 C 2.52 g/m*3 -8.33 C 7.65833 km/h
1343 31-01-2012 23:00:00 -5.45833 C 2.45 g/m*3 -5.46 C 4.13333 km/h
1344 01-02-2012 00:00:00 -5.725 C 2.38 g/m*3 -9.05 C 6.975 km/h
1345 01-02-2012 01:00:00 -6.05833 C 2.32 g/m*3 -6.06 C 4.95 km/h
1346 01-02-2012 02:00:00 -6.2 C 2.29 g/m*3 -9.23 C 6.15833 km/h
1347 01-02-2012 03:00:00 -6.625 C 2.26 g/m*3 -6.63 C 4.68333 km/h
1348 01-02-2012 04:00:00 -6.85833 C 2.23 g/m*3 -9.57 C 5.35 km/h
1349 01-02-2012 05:00:00 -7.175 C 2.21 g/m*3 -7.18 C 4.95 km/h
1350 01-02-2012 06:00:00 -7.75 C 2.19 g/m*3 -7.75 C 3.2 km/h
Sensor: Nr:Datum:Temp:Abs-Feuchte:Windchill:Wind:
Aussen-T/F 1351 01-02-2012 07:00:00 -7.825 C 2.18 g/m*3 -7.83 C 3.86667 km/h
1352 01-02-2012 08:00:00 -7.64167 C 2.19 g/m*3 -7.64 C 3.73333 km/h
1353 01-02-2012 09:00:00 -7.14167 C 2.23 g/m*3 -7.14 C 3.74167 km/h
1354 01-02-2012 10:00:00 -5.94167 C 2.24 g/m*3 -10.48 C 10.21667 km/h
1355 01-02-2012 11:00:00 -5.10833 C 2.24 g/m*3 -10.09 C 12.36667 km/h
1356 01-02-2012 12:00:00 -4.16667 C 2.26 g/m*3 -8.28 C 9.95833 km/h
1357 01-02-2012 13:00:00 -3.025 C 2.2 g/m*3 -7.81 C 13.43333 km/h
1358 01-02-2012 14:00:00 -1.725 C 2.12 g/m*3 -6.3 C 13.83333 km/h
1359 01-02-2012 15:00:00 -1.18333 C 1.81 g/m*3 -5.32 C 12.35833 km/h
1360 01-02-2012 16:00:00 -1.7 C 1.6 g/m*3 -6.27 C 13.825 km/h
1361 01-02-2012 17:00:00 -2.425 C 1.59 g/m*3 -6.46 C 10.89167 km/h
1362 01-02-2012 18:00:00 -3.36667 C 1.54 g/m*3 -7.59 C 10.88333 km/h
1363 01-02-2012 19:00:00 -4.3 C 1.53 g/m*3 -7.71 C 7.79167 km/h
1364 01-02-2012 20:00:00 -5.25 C 1.54 g/m*3 -7.94 C 5.75 km/h
1365 01-02-2012 21:00:00 -5.9 C 1.57 g/m*3 -10.38 C 10.06667 km/h
1366 01-02-2012 22:00:00 -6.60833 C 1.62 g/m*3 -10.25 C 7.375 km/h
1367 01-02-2012 23:00:00 -7.11667 C 1.67 g/m*3 -11.27 C 8.45833 km/h
1368 02-02-2012 00:00:00 -7.59167 C 1.73 g/m*3 -11.83 C 8.45833 km/h
1369 02-02-2012 01:00:00 -7.99167 C 1.75 g/m*3 -10.94 C 5.49167 km/h
1370 02-02-2012 02:00:00 -8.35 C 1.75 g/m*3 -11.35 C 5.49167 km/h
1371 02-02-2012 03:00:00 -8.58333 C 1.75 g/m*3 -8.58 C 4.675 km/h
1372 02-02-2012 04:00:00 -9.13333 C 1.71 g/m*3 -9.13 C 4.275 km/h
1373 02-02-2012 05:00:00 -9.23333 C 1.68 g/m*3 -9.23 C 4.26667 km/h
1374 02-02-2012 06:00:00 -9.4 C 1.68 g/m*3 -9.4 C 4.40833 km/h
1375 02-02-2012 07:00:00 -9.80833 C 1.65 g/m*3 -9.81 C 4 km/h
Sensor: Nr:Datum:Temp:Abs-Feuchte:Windchill:Wind:
Aussen-T/F 1376 02-02-2012 08:00:00 -9.625 C 1.56 g/m*3 -9.63 C 4 km/h
1377 02-02-2012 09:00:00 -8.85 C 1.52 g/m*3 -12.36 C 6.31667 km/h
1378 02-02-2012 10:00:00 -8.225 C 1.48 g/m*3 -11.64 C 6.31667 km/h
1379 02-02-2012 11:00:00 -7.14167 C 1.45 g/m*3 -10.88 C 7.39167 km/h
1380 02-02-2012 12:00:00 -5.88333 C 1.38 g/m*3 -9.97 C 8.88333 km/h
1381 02-02-2012 13:00:00 -4.74167 C 1.34 g/m*3 -7.96 C 7.10833 km/h
1382 02-02-2012 14:00:00 -2.98333 C 1.29 g/m*3 -6.83 C 9.83333 km/h
1383 02-02-2012 15:00:00 -2.30833 C 1.25 g/m*3 -6.35 C 11.025 km/h
1384 02-02-2012 16:00:00 -3.275 C 1.2 g/m*3 -6.97 C 9.14167 km/h
1385 02-02-2012 17:00:00 -4.275 C 1.21 g/m*3 -8.15 C 9.14167 km/h
1386 02-02-2012 18:00:00 -5.35833 C 1.23 g/m*3 -8.33 C 6.30833 km/h
1387 02-02-2012 19:00:00 -6.375 C 1.33 g/m*3 -8.86 C 5.075 km/h
1388 02-02-2012 20:00:00 -6.925 C 1.3 g/m*3 -9.49 C 5.075 km/h
1389 02-02-2012 21:00:00 -7.825 C 1.36 g/m*3 -10.51 C 5.075 km/h
1390 02-02-2012 22:00:00 -8.21667 C 1.32 g/m*3 -8.22 C 4 km/h
1391 02-02-2012 23:00:00 -8.875 C 1.31 g/m*3 -8.88 C 4.41667 km/h
1392 03-02-2012 00:00:00 -9.175 C 1.33 g/m*3 -9.18 C 4.675 km/h
1393 03-02-2012 01:00:00 -10.33333 C 1.38 g/m*3 -10.33 C 4.4 km/h
1394 03-02-2012 02:00:00 -10.7 C 1.41 g/m*3 -10.7 C 3.33333 km/h
1395 03-02-2012 03:00:00 -10.86667 C 1.44 g/m*3 -10.87 C 3.46667 km/h
1396 03-02-2012 04:00:00 -11.18333 C 1.45 g/m*3 -11.18 C 3.33333 km/h
1397 03-02-2012 05:00:00 -11.71667 C 1.49 g/m*3 -11.72 C 2.4 km/h
1398 03-02-2012 06:00:00 -12.1 C 1.5 g/m*3 -12.1 C 1.73333 km/h
1399 03-02-2012 07:00:00 -12.34167 C 1.5 g/m*3 -12.34 C 1.86667 km/h
1400 03-02-2012 08:00:00 -12.5 C 1.52 g/m*3 -12.5 C 0.53333 km/h
Sensor: Nr:Datum:Temp:Abs-Feuchte:Windchill:Wind:
Aussen-T/F 1401 03-02-2012 09:00:00 -12.175 C 1.58 g/m*3 -12.18 C 0.53333 km/h
1402 03-02-2012 10:00:00 -10.90833 C 1.67 g/m*3 -10.91 C 1.73333 km/h
1403 03-02-2012 11:00:00 -9.48333 C 1.74 g/m*3 -9.48 C 1.46667 km/h
1404 03-02-2012 12:00:00 -8.15833 C 1.87 g/m*3 -8.16 C 2.4 km/h
1405 03-02-2012 13:00:00 -6.89167 C 2.02 g/m*3 -6.89 C 1.73333 km/h
1406 03-02-2012 14:00:00 -4.925 C 2.11 g/m*3 -4.93 C 2.93333 km/h
1407 03-02-2012 15:00:00 -3.64167 C 1.99 g/m*3 -3.64 C 4.26667 km/h
1408 03-02-2012 16:00:00 -5.1 C 2.14 g/m*3 -5.1 C 3.46667 km/h
1409 03-02-2012 17:00:00 -5.95833 C 2.13 g/m*3 -5.96 C 4.26667 km/h
1410 03-02-2012 18:00:00 -6.21667 C 2.15 g/m*3 -6.22 C 3.73333 km/h
1411 03-02-2012 19:00:00 -5.79167 C 2.18 g/m*3 -5.79 C 3.2 km/h
1412 03-02-2012 20:00:00 -5.30833 C 2.19 g/m*3 -5.31 C 1.6 km/h
1413 03-02-2012 21:00:00 -5.55 C 2.23 g/m*3 -5.55 C 4.81667 km/h
1414 03-02-2012 22:00:00 -6.08333 C 2.29 g/m*3 -6.08 C 3.2 km/h
1415 03-02-2012 23:00:00 -7.45833 C 2.14 g/m*3 -7.46 C 3.6 km/h
1416 04-02-2012 00:00:00 -8.20833 C 2.11 g/m*3 -8.21 C 2.8 km/h
1417 04-02-2012 01:00:00 -8.9 C 2.06 g/m*3 -8.9 C 2.66667 km/h
1418 04-02-2012 02:00:00 -9.43333 C 2.01 g/m*3 -9.43 C 2.8 km/h
1419 04-02-2012 03:00:00 -9.83333 C 1.98 g/m*3 -9.83 C 2.26667 km/h
1420 04-02-2012 04:00:00 -10.21667 C 1.95 g/m*3 -10.22 C 1.2 km/h
1421 04-02-2012 05:00:00 -10.55833 C 1.94 g/m*3 -10.56 C 1.06667 km/h
1422 04-02-2012 06:00:00 -10.775 C 1.93 g/m*3 -10.78 C 1.2 km/h
1423 04-02-2012 07:00:00 -11.28333 C 1.87 g/m*3 -11.28 C 0.53333 km/h
1424 04-02-2012 08:00:00 -11.6 C 1.84 g/m*3 -11.6 C 0.13333 km/h
1425 04-02-2012 09:00:00 -11.19167 C 1.92 g/m*3 -11.19 C 0.26667 km/h
Sensor: Nr:Datum:Temp:Abs-Feuchte:Windchill:Wind:
Aussen-T/F 1426 04-02-2012 10:00:00 -10.11667 C 2.05 g/m*3 -10.12 C 0.93333 km/h
1427 04-02-2012 11:00:00 -8.875 C 2.19 g/m*3 -8.88 C 1.6 km/h
1428 04-02-2012 12:00:00 -8.04167 C 2.27 g/m*3 -8.04 C 2 km/h
1429 04-02-2012 13:00:00 -6.73333 C 2.31 g/m*3 -6.73 C 2.93333 km/h
1430 04-02-2012 14:00:00 -5.20833 C 2.32 g/m*3 -5.21 C 3.06667 km/h
1431 04-02-2012 15:00:00 -4.34167 C 2.33 g/m*3 -4.34 C 2.93333 km/h
1432 04-02-2012 16:00:00 -5.23333 C 2.28 g/m*3 -5.23 C 3.2 km/h
1433 04-02-2012 17:00:00 -6.04167 C 2.26 g/m*3 -6.04 C 3.06667 km/h
1434 04-02-2012 18:00:00 -5.76667 C 2.27 g/m*3 -5.77 C 0.8 km/h
1435 04-02-2012 19:00:00 -5.825 C 2.13 g/m*3 -5.83 C 2.4 km/h
1436 04-02-2012 20:00:00 -6.5 C 1.97 g/m*3 -6.5 C 2.4 km/h
1437 04-02-2012 21:00:00 -7.275 C 1.94 g/m*3 -7.28 C 3.06667 km/h
1438 04-02-2012 22:00:00 -8.5 C 1.87 g/m*3 -8.5 C 3.73333 km/h
1439 04-02-2012 23:00:00 -9.075 C 1.84 g/m*3 -9.07 C 3.33333 km/h
1440 05-02-2012 00:00:00 -9.625 C 1.84 g/m*3 -9.63 C 2.66667 km/h
1441 05-02-2012 01:00:00 -10.11667 C 1.83 g/m*3 -10.12 C 2.26667 km/h
1442 05-02-2012 02:00:00 -10.68333 C 1.78 g/m*3 -10.68 C 1.86667 km/h
1443 05-02-2012 03:00:00 -11.325 C 1.76 g/m*3 -11.33 C 2.13333 km/h
1444 05-02-2012 04:00:00 -11.275 C 1.79 g/m*3 -11.28 C 2.66667 km/h
1445 05-02-2012 05:00:00 -11.55833 C 1.76 g/m*3 -11.56 C 1.86667 km/h
1446 05-02-2012 06:00:00 -11.85 C 1.75 g/m*3 -11.85 C 1.6 km/h
1447 05-02-2012 07:00:00 -12.1 C 1.72 g/m*3 -12.1 C 1.6 km/h
1448 05-02-2012 08:00:00 -12.16667 C 1.74 g/m*3 -12.17 C 0.4 km/h
1449 05-02-2012 09:00:00 -11.68333 C 1.81 g/m*3 -11.68 C 0 km/h
1450 05-02-2012 10:00:00 -10.18333 C 1.96 g/m*3 -10.18 C 0.93333 km/h
Sensor: Nr:Datum:Temp:Abs-Feuchte:Windchill:Wind:
Aussen-T/F 1451 05-02-2012 11:00:00 -8.225 C 2 g/m*3 -8.23 C 4.14167 km/h
1452 05-02-2012 12:00:00 -7.10833 C 1.95 g/m*3 -7.11 C 3.73333 km/h
1453 05-02-2012 13:00:00 -5.41667 C 1.81 g/m*3 -5.42 C 4.80833 km/h
1454 05-02-2012 14:00:00 -4.06667 C 1.62 g/m*3 -6.24 C 5.075 km/h
1455 05-02-2012 15:00:00 -3.8 C 1.72 g/m*3 -3.8 C 3.33333 km/h
1456 05-02-2012 16:00:00 -5.425 C 1.92 g/m*3 -5.43 C 3.33333 km/h
1457 05-02-2012 17:00:00 -6.575 C 1.94 g/m*3 -6.58 C 3.33333 km/h
1458 05-02-2012 18:00:00 -7.65 C 1.75 g/m*3 -7.65 C 3.2 km/h
1459 05-02-2012 19:00:00 -8.36667 C 1.75 g/m*3 -8.37 C 3.06667 km/h
1460 05-02-2012 20:00:00 -9.075 C 1.8 g/m*3 -9.07 C 1.46667 km/h
1461 05-02-2012 21:00:00 -9.15833 C 1.74 g/m*3 -9.16 C 0.93333 km/h
1462 05-02-2012 22:00:00 -9.78333 C 1.72 g/m*3 -9.78 C 0.93333 km/h
1463 05-02-2012 23:00:00 -9.95 C 1.72 g/m*3 -9.95 C 1.33333 km/h
1464 06-02-2012 00:00:00 -10.125 C 1.75 g/m*3 -10.13 C 1.86667 km/h
1465 06-02-2012 01:00:00 -10.18333 C 1.74 g/m*3 -10.18 C 1.46667 km/h
1466 06-02-2012 02:00:00 -10.63333 C 1.68 g/m*3 -10.63 C 1.6 km/h
1467 06-02-2012 03:00:00 -11.14167 C 1.62 g/m*3 -11.14 C 1.73333 km/h
1468 06-02-2012 04:00:00 -11.39167 C 1.61 g/m*3 -11.39 C 1.6 km/h
1469 06-02-2012 05:00:00 -11.9 C 1.59 g/m*3 -11.9 C 1.33333 km/h
1470 06-02-2012 06:00:00 -12.41667 C 1.58 g/m*3 -12.42 C 1.33333 km/h
1471 06-02-2012 07:00:00 -12.75 C 1.55 g/m*3 -12.75 C 1.46667 km/h
1472 06-02-2012 08:00:00 -13 C 1.57 g/m*3 -13 C 0.4 km/h
1473 06-02-2012 09:00:00 -12.68333 C 1.62 g/m*3 -12.68 C 0.8 km/h
1474 06-02-2012 10:00:00 -11.70833 C 1.69 g/m*3 -11.71 C 0.4 km/h
1475 06-02-2012 11:00:00 -10.33333 C 1.84 g/m*3 -10.33 C 2.13333 km/h
Sensor: Nr:Datum:Temp:Abs-Feuchte:Windchill:Wind:
Aussen-T/F 1476 06-02-2012 12:00:00 -8.36667 C 1.88 g/m*3 -8.37 C 3.6 km/h
1477 06-02-2012 13:00:00 -6.09167 C 1.78 g/m*3 -6.09 C 4 km/h
1478 06-02-2012 14:00:00 -5.01667 C 1.75 g/m*3 -5.02 C 3.60833 km/h
1479 06-02-2012 15:00:00 -3.99167 C 1.64 g/m*3 -3.99 C 4.675 km/h
1480 06-02-2012 16:00:00 -5.3 C 1.69 g/m*3 -5.3 C 4.26667 km/h
1481 06-02-2012 17:00:00 -6.95833 C 1.67 g/m*3 -6.96 C 3.6 km/h
1482 06-02-2012 18:00:00 -8.33333 C 1.58 g/m*3 -8.33 C 3.6 km/h
1483 06-02-2012 19:00:00 -9.05833 C 1.64 g/m*3 -9.06 C 3.46667 km/h
1484 06-02-2012 20:00:00 -9.525 C 1.63 g/m*3 -9.53 C 3.2 km/h
1485 06-02-2012 21:00:00 -9.95 C 1.64 g/m*3 -9.95 C 2.13333 km/h
1486 06-02-2012 22:00:00 -10.44167 C 1.59 g/m*3 -10.44 C 2.4 km/h
1487 06-02-2012 23:00:00 -10.94167 C 1.46 g/m*3 -10.94 C 2.66667 km/h
1488 07-02-2012 00:00:00 -11.56667 C 1.36 g/m*3 -11.57 C 2.53333 km/h
1489 07-02-2012 01:00:00 -12.1 C 1.3 g/m*3 -12.1 C 3.46667 km/h
1490 07-02-2012 02:00:00 -12.50909 C 1.23 g/m*3 -12.51 C 3.05455 km/h
1491 07-02-2012 07:00:00 -15.15833 C 1.08 g/m*3 -15.16 C 1.06667 km/h
1492 07-02-2012 08:00:00 -15.275 C 1.14 g/m*3 -15.28 C 0.66667 km/h
1493 07-02-2012 09:00:00 -14.975 C 1.2 g/m*3 -14.98 C 0.4 km/h
1494 07-02-2012 10:00:00 -13.42727 C 1.26 g/m*3 -13.43 C 2.61818 km/h
1495 07-02-2012 11:00:00 -11.30833 C 1.34 g/m*3 -11.31 C 4.00833 km/h
1496 07-02-2012 12:00:00 -9.08333 C 1.42 g/m*3 -9.08 C 4.4 km/h
1497 07-02-2012 13:00:00 -6.71667 C 1.63 g/m*3 -9.89 C 6.29167 km/h
1498 07-02-2012 14:00:00 -5.21667 C 1.86 g/m*3 -9.49 C 9.825 km/h
1499 07-02-2012 15:00:00 -4.95 C 2.03 g/m*3 -9.05 C 9.425 km/h
1500 07-02-2012 16:00:00 -5.325 C 2.33 g/m*3 -9.87 C 10.63333 km/h
Sensor: Nr:Datum:Temp:Abs-Feuchte:Windchill:Wind:
Aussen-T/F 1501 07-02-2012 17:00:00 -5.98333 C 2.5 g/m*3 -9.89 C 8.34167 km/h
1502 07-02-2012 18:00:00 -6.41667 C 2.35 g/m*3 -10.75 C 9.29167 km/h
1503 07-02-2012 19:00:00 -6.975 C 2.43 g/m*3 -10.44 C 6.83333 km/h
1504 07-02-2012 20:00:00 -7.2 C 2.49 g/m*3 -10.03 C 5.475 km/h
1505 07-02-2012 21:00:00 -6.95833 C 2.38 g/m*3 -9.9 C 5.75 km/h
1506 07-02-2012 22:00:00 -6.75 C 2.2 g/m*3 -11.32 C 9.83333 km/h
1507 07-02-2012 23:00:00 -6.7 C 2.16 g/m*3 -11.17 C 9.55 km/h
1508 08-02-2012 00:00:00 -6.73333 C 2.16 g/m*3 -11.38 C 10.075 km/h
1509 08-02-2012 01:00:00 -6.60833 C 2.16 g/m*3 -11.83 C 12.09167 km/h
1510 08-02-2012 02:00:00 -6.48333 C 2.2 g/m*3 -11.09 C 10.09167 km/h
1511 08-02-2012 03:00:00 -6.44167 C 2.24 g/m*3 -10.58 C 8.75 km/h
1512 08-02-2012 04:00:00 -6.73333 C 2.23 g/m*3 -10.56 C 7.79167 km/h
1513 08-02-2012 05:00:00 -7.30833 C 2.19 g/m*3 -7.31 C 4.675 km/h
1514 08-02-2012 06:00:00 -7.55 C 2.2 g/m*3 -10.44 C 5.49167 km/h
1515 08-02-2012 07:00:00 -7.575 C 2.21 g/m*3 -7.58 C 3.86667 km/h
1516 08-02-2012 08:00:00 -7.23333 C 2.25 g/m*3 -7.23 C 4.94167 km/h
1517 08-02-2012 09:00:00 -6.50833 C 2.28 g/m*3 -10.14 C 7.39167 km/h
1518 08-02-2012 10:00:00 -5.78333 C 2.33 g/m*3 -10.29 C 10.21667 km/h
1519 08-02-2012 11:00:00 -4.9 C 2.41 g/m*3 -9.76 C 12.1 km/h
1520 08-02-2012 12:00:00 -4.01667 C 2.47 g/m*3 -8.22 C 10.35833 km/h
1521 08-02-2012 13:00:00 -3.13333 C 2.52 g/m*3 -7.16 C 10.36667 km/h
1522 08-02-2012 14:00:00 -2.13333 C 2.61 g/m*3 -5.57 C 9.01667 km/h
1523 08-02-2012 15:00:00 -1.34167 C 2.63 g/m*3 -4.33 C 8.05 km/h
1524 08-02-2012 16:00:00 -2.05 C 2.65 g/m*3 -2.05 C 4.80833 km/h
1525 08-02-2012 17:00:00 -3.75 C 2.7 g/m*3 -3.75 C 4.13333 km/h
Sensor: Nr:Datum:Temp:Abs-Feuchte:Windchill:Wind:
Aussen-T/F 1526 08-02-2012 18:00:00 -4.55833 C 2.55 g/m*3 -4.56 C 3.86667 km/h
1527 08-02-2012 19:00:00 -5.61667 C 2.53 g/m*3 -5.62 C 3.73333 km/h
1528 08-02-2012 20:00:00 -5.68333 C 2.43 g/m*3 -5.68 C 4.4 km/h
1529 08-02-2012 21:00:00 -6.50833 C 2.37 g/m*3 -6.51 C 3.06667 km/h
1530 08-02-2012 22:00:00 -7.30833 C 2.29 g/m*3 -7.31 C 2.26667 km/h
1531 08-02-2012 23:00:00 -7.74167 C 2.28 g/m*3 -7.74 C 1.6 km/h
1532 09-02-2012 00:00:00 -8.35833 C 2.19 g/m*3 -8.36 C 1.2 km/h
1533 09-02-2012 01:00:00 -9.1 C 2.09 g/m*3 -9.1 C 1.86667 km/h
1534 09-02-2012 02:00:00 -9.71667 C 2.03 g/m*3 -9.72 C 1.2 km/h
1535 09-02-2012 03:00:00 -10.18333 C 1.99 g/m*3 -10.18 C 1.06667 km/h
1536 09-02-2012 04:00:00 -10.61667 C 1.95 g/m*3 -10.62 C 1.2 km/h
1537 09-02-2012 05:00:00 -11.06667 C 1.92 g/m*3 -11.07 C 1.33333 km/h
1538 09-02-2012 06:00:00 -11.36667 C 1.89 g/m*3 -11.37 C 1.2 km/h
1539 09-02-2012 07:00:00 -11.55 C 1.86 g/m*3 -11.55 C 1.06667 km/h
1540 09-02-2012 08:00:00 -11.59167 C 1.87 g/m*3 -11.59 C 0.4 km/h
1541 09-02-2012 09:00:00 -9.475 C 2.19 g/m*3 -9.48 C 4 km/h
1542 09-02-2012 10:00:00 -7.975 C 2.36 g/m*3 -7.98 C 3.33333 km/h
1543 09-02-2012 11:00:00 -6.73333 C 2.45 g/m*3 -6.73 C 2.66667 km/h
1544 09-02-2012 12:00:00 -5.40833 C 2.61 g/m*3 -5.41 C 4.13333 km/h
1545 09-02-2012 13:00:00 -4.53333 C 2.85 g/m*3 -4.53 C 4.26667 km/h
1546 09-02-2012 14:00:00 -4.15833 C 3.04 g/m*3 -4.16 C 4.13333 km/h
1547 09-02-2012 15:00:00 -3.75833 C 3.23 g/m*3 -5.97 C 5.21667 km/h
1548 09-02-2012 16:00:00 -3.43333 C 3.36 g/m*3 -3.43 C 3.34167 km/h
1549 09-02-2012 17:00:00 -3.45 C 3.32 g/m*3 -3.45 C 4.66667 km/h
1550 09-02-2012 18:00:00 -4.39167 C 3.15 g/m*3 -4.39 C 3.86667 km/h
Sensor: Nr:Datum:Temp:Abs-Feuchte:Windchill:Wind:
Aussen-T/F 1551 09-02-2012 19:00:00 -4.525 C 3.1 g/m*3 -4.53 C 4.13333 km/h
1552 09-02-2012 20:00:00 -5.675 C 2.88 g/m*3 -5.68 C 3.46667 km/h
1553 09-02-2012 21:00:00 -6.45 C 2.77 g/m*3 -6.45 C 2.13333 km/h
1554 09-02-2012 22:00:00 -6.60833 C 2.77 g/m*3 -6.61 C 1.33333 km/h
1555 09-02-2012 23:00:00 -7.35 C 2.58 g/m*3 -7.35 C 1.46667 km/h
1556 10-02-2012 00:00:00 -8.24167 C 2.43 g/m*3 -8.24 C 1.2 km/h
1557 10-02-2012 01:00:00 -8.71667 C 2.36 g/m*3 -8.72 C 0.8 km/h
1558 10-02-2012 02:00:00 -8.625 C 2.39 g/m*3 -8.63 C 0.26667 km/h
1559 10-02-2012 03:00:00 -8.19167 C 2.48 g/m*3 -8.19 C 0 km/h
1560 10-02-2012 04:00:00 -7.75 C 2.55 g/m*3 -7.75 C 0 km/h
1561 10-02-2012 05:00:00 -7.64167 C 2.56 g/m*3 -7.64 C 0.53333 km/h
1562 10-02-2012 06:00:00 -7.18333 C 2.67 g/m*3 -7.18 C 0 km/h
1563 10-02-2012 07:00:00 -6.74167 C 2.68 g/m*3 -6.74 C 1.6 km/h
1564 10-02-2012 08:00:00 -7.06667 C 2.51 g/m*3 -7.07 C 3.2 km/h
1565 10-02-2012 09:00:00 -6.80833 C 2.54 g/m*3 -6.81 C 3.33333 km/h
1566 10-02-2012 10:00:00 -5.54167 C 2.59 g/m*3 -8.89 C 7.1 km/h
1567 10-02-2012 11:00:00 -4.88333 C 2.46 g/m*3 -8.69 C 8.59167 km/h
1568 10-02-2012 12:00:00 -4.35833 C 2.42 g/m*3 -7.23 C 6.43333 km/h
1569 10-02-2012 13:00:00 -2.84167 C 2.47 g/m*3 -6.1 C 8.06667 km/h
1570 10-02-2012 14:00:00 -2.08333 C 2.4 g/m*3 -5.34 C 8.46667 km/h
1571 10-02-2012 15:00:00 -2.06667 C 2.29 g/m*3 -6.72 C 13.83333 km/h
1572 10-02-2012 16:00:00 -2.725 C 2.24 g/m*3 -5.4 C 6.575 km/h
1573 10-02-2012 17:00:00 -3.91667 C 2.21 g/m*3 -6.35 C 5.61667 km/h
1574 10-02-2012 18:00:00 -5.725 C 2.23 g/m*3 -5.73 C 4.93333 km/h
1575 10-02-2012 19:00:00 -6.59167 C 2.2 g/m*3 -6.59 C 4.53333 km/h
Sensor: Nr:Datum:Temp:Abs-Feuchte:Windchill:Wind:
Aussen-T/F 1576 10-02-2012 20:00:00 -6.61667 C 2.09 g/m*3 -6.62 C 4.275 km/h
1577 10-02-2012 21:00:00 -6.74167 C 1.94 g/m*3 -10.57 C 7.78333 km/h
1578 10-02-2012 22:00:00 -7.63333 C 1.85 g/m*3 -10.45 C 5.35 km/h
1579 10-02-2012 23:00:00 -8.15833 C 1.78 g/m*3 -10.89 C 5.075 km/h
1580 11-02-2012 00:00:00 -9.61667 C 1.77 g/m*3 -9.62 C 3.6 km/h
1581 11-02-2012 01:00:00 -10.11667 C 1.73 g/m*3 -10.12 C 4.13333 km/h
1582 11-02-2012 02:00:00 -10.775 C 1.67 g/m*3 -10.78 C 3.73333 km/h
1583 11-02-2012 03:00:00 -11.26667 C 1.66 g/m*3 -11.27 C 3.73333 km/h
1584 11-02-2012 04:00:00 -11.55 C 1.64 g/m*3 -11.55 C 3.2 km/h
1585 11-02-2012 05:00:00 -11.70833 C 1.66 g/m*3 -11.71 C 3.46667 km/h
1586 11-02-2012 06:00:00 -11.95833 C 1.64 g/m*3 -11.96 C 3.6 km/h
1587 11-02-2012 07:00:00 -11.95 C 1.67 g/m*3 -11.95 C 3.6 km/h
1588 11-02-2012 08:00:00 -12.025 C 1.69 g/m*3 -12.03 C 2.4 km/h
1589 11-02-2012 09:00:00 -10.93333 C 1.81 g/m*3 -10.93 C 2.66667 km/h
1590 11-02-2012 10:00:00 -9.24167 C 1.92 g/m*3 -9.24 C 4.95 km/h
1591 11-02-2012 11:00:00 -7.74167 C 1.99 g/m*3 -7.74 C 4.95 km/h
1592 11-02-2012 12:00:00 -5.875 C 1.98 g/m*3 -9.11 C 6.71667 km/h
1593 11-02-2012 13:00:00 -3.78333 C 2 g/m*3 -7.11 C 7.79167 km/h
1594 11-02-2012 14:00:00 -2.65833 C 1.95 g/m*3 -6.19 C 9.00833 km/h
1595 11-02-2012 15:00:00 -1.6 C 1.96 g/m*3 -4.2 C 6.83333 km/h
1596 11-02-2012 16:00:00 -2.875 C 1.97 g/m*3 -5.21 C 5.74167 km/h
1597 11-02-2012 17:00:00 -4.5 C 2.08 g/m*3 -4.5 C 4.93333 km/h
1598 11-02-2012 18:00:00 -6.09167 C 2.04 g/m*3 -8.69 C 5.33333 km/h
1599 11-02-2012 19:00:00 -6.99167 C 2.04 g/m*3 -6.99 C 4.8 km/h
1600 11-02-2012 20:00:00 -7.31667 C 2.01 g/m*3 -7.32 C 4.8 km/h
Sensor: Nr:Datum:Temp:Abs-Feuchte:Windchill:Wind:
Aussen-T/F 1601 11-02-2012 21:00:00 -8.38333 C 2 g/m*3 -8.38 C 2.66667 km/h
1602 11-02-2012 22:00:00 -9.21667 C 1.98 g/m*3 -9.22 C 2.4 km/h
1603 11-02-2012 23:00:00 -9.80833 C 1.93 g/m*3 -9.81 C 1.2 km/h
1604 12-02-2012 00:00:00 -10.425 C 1.89 g/m*3 -10.43 C 1.86667 km/h
1605 12-02-2012 01:00:00 -11.06667 C 1.83 g/m*3 -11.07 C 1.46667 km/h
1606 12-02-2012 02:00:00 -11.5 C 1.8 g/m*3 -11.5 C 1.06667 km/h
1607 12-02-2012 03:00:00 -11.75 C 1.79 g/m*3 -11.75 C 1.2 km/h
1608 12-02-2012 04:00:00 -12.20833 C 1.75 g/m*3 -12.21 C 1.46667 km/h
1609 12-02-2012 05:00:00 -11.99167 C 1.79 g/m*3 -11.99 C 1.86667 km/h
1610 12-02-2012 06:00:00 -11.625 C 1.83 g/m*3 -11.63 C 0.66667 km/h
1611 12-02-2012 07:00:00 -11.48333 C 1.85 g/m*3 -11.48 C 1.33333 km/h
1612 12-02-2012 08:00:00 -10.94167 C 1.91 g/m*3 -10.94 C 1.46667 km/h
1613 12-02-2012 09:00:00 -9.88333 C 2.02 g/m*3 -9.88 C 1.33333 km/h
1614 12-02-2012 10:00:00 -9.03333 C 2.1 g/m*3 -9.03 C 1.6 km/h
1615 12-02-2012 13:00:00 -2.78 C 2.32 g/m*3 -2.78 C 3.68 km/h
1616 12-02-2012 14:00:00 -2.05833 C 2.29 g/m*3 -2.06 C 3.6 km/h
1617 12-02-2012 15:00:00 -1.48333 C 2.29 g/m*3 -1.48 C 2.66667 km/h
1618 12-02-2012 16:00:00 -1.36667 C 2.27 g/m*3 -1.37 C 1.6 km/h
1619 12-02-2012 17:00:00 -1.75833 C 2.45 g/m*3 -1.76 C 1.73333 km/h
1620 12-02-2012 18:00:00 -2.19167 C 2.47 g/m*3 -2.19 C 3.33333 km/h
1621 12-02-2012 19:00:00 -2.26667 C 2.59 g/m*3 -2.27 C 2.8 km/h
1622 12-02-2012 20:00:00 -2.45833 C 2.63 g/m*3 -2.46 C 2.66667 km/h
1623 12-02-2012 21:00:00 -2.475 C 2.56 g/m*3 -2.48 C 3.6 km/h
1624 12-02-2012 22:00:00 -2.6 C 2.61 g/m*3 -2.6 C 2 km/h
1625 12-02-2012 23:00:00 -2.63333 C 2.63 g/m*3 -2.63 C 1.86667 km/h
Sensor: Nr:Datum:Temp:Abs-Feuchte:Windchill:Wind:
Aussen-T/F 1626 13-02-2012 00:00:00 -2.64167 C 2.66 g/m*3 -2.64 C 4.00833 km/h
1627 13-02-2012 01:00:00 -2.7 C 2.73 g/m*3 -2.7 C 2.26667 km/h
1628 13-02-2012 02:00:00 -2.725 C 2.85 g/m*3 -2.73 C 0.66667 km/h
1629 13-02-2012 03:00:00 -2.78333 C 2.9 g/m*3 -2.78 C 0.26667 km/h
1630 13-02-2012 04:00:00 -2.8 C 2.94 g/m*3 -2.8 C 0.93333 km/h
1631 13-02-2012 05:00:00 -2.7 C 2.92 g/m*3 -2.7 C 2.13333 km/h
1632 13-02-2012 06:00:00 -2.6 C 2.93 g/m*3 -2.6 C 2.13333 km/h
1633 13-02-2012 07:00:00 -2.41667 C 2.99 g/m*3 -2.42 C 2 km/h
1634 13-02-2012 08:00:00 -2.04167 C 3.04 g/m*3 -2.04 C 2.8 km/h
1635 13-02-2012 09:00:00 -1.35 C 3.09 g/m*3 -1.35 C 4.53333 km/h
1636 13-02-2012 10:00:00 -0.71667 C 3.5 g/m*3 -0.72 C 4.8 km/h
1637 13-02-2012 11:00:00 -0.93333 C 3.94 g/m*3 -0.93 C 4.8 km/h
1638 13-02-2012 12:00:00 -0.46667 C 4.21 g/m*3 -2.27 C 5.33333 km/h
1639 13-02-2012 13:00:00 0.125 C 4.38 g/m*3 0.13 C 3.46667 km/h
1640 13-02-2012 14:00:00 0.34167 C 4.49 g/m*3 0.34 C 2.93333 km/h
1641 13-02-2012 15:00:00 0.53333 C 4.57 g/m*3 0.53 C 1.46667 km/h
1642 13-02-2012 16:00:00 0.60833 C 4.61 g/m*3 0.61 C 1.06667 km/h
1643 13-02-2012 17:00:00 0.68333 C 4.69 g/m*3 0.68 C 2.66667 km/h
1644 13-02-2012 18:00:00 0.49167 C 4.65 g/m*3 0.49 C 0.8 km/h
1645 13-02-2012 19:00:00 0.35833 C 4.66 g/m*3 0.36 C 0.26667 km/h
1646 13-02-2012 20:00:00 0.4 C 4.68 g/m*3 0.4 C 1.73333 km/h
1647 13-02-2012 21:00:00 0.6 C 4.73 g/m*3 0.6 C 1.86667 km/h
1648 13-02-2012 22:00:00 0.69167 C 4.82 g/m*3 0.69 C 2.53333 km/h
1649 13-02-2012 23:00:00 0.68333 C 4.82 g/m*3 0.68 C 1.6 km/h
1650 14-02-2012 00:00:00 0.6 C 4.8 g/m*3 0.6 C 2.13333 km/h
Sensor: Nr:Datum:Temp:Abs-Feuchte:Windchill:Wind:
Aussen-T/F 1651 14-02-2012 01:00:00 0.60833 C 4.8 g/m*3 0.61 C 4 km/h
1652 14-02-2012 02:00:00 0.59167 C 4.75 g/m*3 0.59 C 2.66667 km/h
1653 14-02-2012 03:00:00 0.34167 C 4.71 g/m*3 0.34 C 1.06667 km/h
1654 14-02-2012 04:00:00 0.31667 C 4.7 g/m*3 0.32 C 0.93333 km/h
1655 14-02-2012 05:00:00 0.5 C 4.75 g/m*3 0.5 C 3.06667 km/h
1656 14-02-2012 06:00:00 0.91667 C 4.79 g/m*3 0.92 C 4.81667 km/h
1657 14-02-2012 07:00:00 1.025 C 4.8 g/m*3 1.02 C 4 km/h
1658 14-02-2012 08:00:00 1.11667 C 4.82 g/m*3 1.12 C 4.4 km/h
1659 14-02-2012 09:00:00 1.15833 C 4.92 g/m*3 1.16 C 3.73333 km/h
1660 14-02-2012 10:00:00 1.49167 C 5.02 g/m*3 1.49 C 3.2 km/h
1661 14-02-2012 11:00:00 1.36667 C 4.99 g/m*3 1.37 C 2.26667 km/h
1662 14-02-2012 12:00:00 1.71667 C 5.18 g/m*3 1.72 C 1.6 km/h
1663 14-02-2012 13:00:00 2.16667 C 5.35 g/m*3 2.17 C 2.13333 km/h
1664 14-02-2012 14:00:00 2.45833 C 5.43 g/m*3 2.46 C 4 km/h
1665 14-02-2012 15:00:00 2.625 C 5.48 g/m*3 2.63 C 4.13333 km/h
1666 14-02-2012 16:00:00 2.33333 C 5.34 g/m*3 2.33 C 4.13333 km/h
1667 14-02-2012 17:00:00 2.19167 C 5.27 g/m*3 2.19 C 4.66667 km/h
1668 14-02-2012 18:00:00 2.63333 C 5.27 g/m*3 1.15 C 5.61667 km/h
1669 14-02-2012 19:00:00 2.65 C 5.26 g/m*3 0.47 C 7.65833 km/h
1670 14-02-2012 20:00:00 2.44167 C 5.2 g/m*3 1.1 C 5.2 km/h
1671 14-02-2012 21:00:00 2.325 C 5.21 g/m*3 0.45 C 6.56667 km/h
1672 14-02-2012 22:00:00 2.23333 C 5.24 g/m*3 -0.01 C 7.65 km/h
1673 14-02-2012 23:00:00 2.575 C 5.27 g/m*3 -0.78 C 12.5 km/h
1674 15-02-2012 00:00:00 2.775 C 5.33 g/m*3 -0.35 C 11.56667 km/h
1675 15-02-2012 01:00:00 2.58333 C 5.33 g/m*3 -0.61 C 11.7 km/h
Sensor: Nr:Datum:Temp:Abs-Feuchte:Windchill:Wind:
Aussen-T/F 1676 15-02-2012 02:00:00 2.75 C 5.42 g/m*3 -0.8 C 13.7 km/h
1677 15-02-2012 03:00:00 3.2 C 5.6 g/m*3 -0.07 C 12.76667 km/h
1678 15-02-2012 04:00:00 4.19167 C 5.89 g/m*3 0.92 C 13.96667 km/h
1679 15-02-2012 05:00:00 5.16667 C 6.1 g/m*3 1.91 C 15.3 km/h
1680 15-02-2012 06:00:00 5.11667 C 6.12 g/m*3 1.65 C 16.63333 km/h
1681 15-02-2012 07:00:00 5.15 C 5.88 g/m*3 1.48 C 18.23333 km/h
1682 15-02-2012 08:00:00 4.95 C 5.58 g/m*3 1.39 C 17.03333 km/h
1683 15-02-2012 09:00:00 4.56667 C 5.45 g/m*3 1.34 C 14.23333 km/h
1684 15-02-2012 10:00:00 4.55833 C 5.41 g/m*3 1.89 C 11.15 km/h
1685 15-02-2012 11:00:00 3.2 C 5.36 g/m*3 0.56 C 9.78333 km/h
1686 15-02-2012 12:00:00 4.70833 C 5.62 g/m*3 1.56 C 13.96667 km/h
1687 15-02-2012 13:00:00 4.775 C 5.52 g/m*3 1.45 C 15.16667 km/h
1688 15-02-2012 14:00:00 4.68333 C 5.52 g/m*3 1.29 C 15.43333 km/h
1689 15-02-2012 15:00:00 4.775 C 5.5 g/m*3 1.31 C 16.1 km/h
1690 15-02-2012 16:00:00 4.725 C 5.41 g/m*3 2.31 C 10.09167 km/h
1691 15-02-2012 17:00:00 4.375 C 5.38 g/m*3 1.78 C 10.61667 km/h
1692 15-02-2012 18:00:00 4.08333 C 5.31 g/m*3 2.12 C 7.775 km/h
1693 15-02-2012 19:00:00 3.74167 C 5.22 g/m*3 0.96 C 10.89167 km/h
1694 15-02-2012 20:00:00 3.29167 C 5.12 g/m*3 1.23 C 7.65833 km/h
1695 15-02-2012 21:00:00 3.09167 C 5.08 g/m*3 1.16 C 7.10833 km/h
1696 15-02-2012 22:00:00 2.59167 C 5.02 g/m*3 2.59 C 4.94167 km/h
1697 15-02-2012 23:00:00 2.39167 C 4.98 g/m*3 2.39 C 4.14167 km/h
1698 16-02-2012 00:00:00 2.56667 C 5.07 g/m*3 2.57 C 3.73333 km/h
1699 16-02-2012 01:00:00 2.13333 C 5.12 g/m*3 2.13 C 3.86667 km/h
1700 16-02-2012 02:00:00 2.3 C 5.14 g/m*3 2.3 C 4.26667 km/h
Sensor: Nr:Datum:Temp:Abs-Feuchte:Windchill:Wind:
Aussen-T/F 1701 16-02-2012 03:00:00 2.44167 C 5.14 g/m*3 2.44 C 4.53333 km/h
1702 16-02-2012 04:00:00 2.65 C 5.15 g/m*3 1.39 C 5.075 km/h
1703 16-02-2012 05:00:00 2.20833 C 5.03 g/m*3 0.61 C 5.75 km/h
1704 16-02-2012 06:00:00 1.98333 C 4.99 g/m*3 1.98 C 4.80833 km/h
1705 16-02-2012 07:00:00 2.1 C 5.02 g/m*3 2.1 C 4.40833 km/h
1706 16-02-2012 08:00:00 2.10833 C 5.08 g/m*3 2.11 C 2 km/h
1707 16-02-2012 09:00:00 2.65 C 5.26 g/m*3 2.65 C 3.06667 km/h
1708 16-02-2012 10:00:00 3.5 C 5.4 g/m*3 3.5 C 3.46667 km/h
1709 16-02-2012 11:00:00 3.15833 C 5.55 g/m*3 1.91 C 5.2 km/h
1710 16-02-2012 12:00:00 3.60833 C 5.82 g/m*3 2.22 C 5.74167 km/h
1711 16-02-2012 13:00:00 4.425 C 6.02 g/m*3 3.11 C 5.875 km/h
1712 16-02-2012 14:00:00 5.53333 C 6.23 g/m*3 3.71 C 8.18333 km/h
1713 16-02-2012 15:00:00 5.825 C 6.32 g/m*3 4.8 C 5.61667 km/h
1714 16-02-2012 16:00:00 5.30833 C 6.46 g/m*3 5.31 C 4.54167 km/h
1715 16-02-2012 17:00:00 5.00833 C 6.39 g/m*3 3.68 C 6.15833 km/h
1716 16-02-2012 18:00:00 4.38333 C 6.14 g/m*3 4.38 C 4.26667 km/h
1717 16-02-2012 19:00:00 4.29167 C 6.13 g/m*3 3.05 C 5.60833 km/h
1718 16-02-2012 20:00:00 4.18333 C 6.03 g/m*3 2.97 C 5.475 km/h
1719 16-02-2012 21:00:00 4.175 C 6.04 g/m*3 2.63 C 6.44167 km/h
1720 16-02-2012 22:00:00 4.275 C 6.02 g/m*3 2.53 C 7.11667 km/h
1721 16-02-2012 23:00:00 4.35833 C 5.96 g/m*3 2.71 C 6.84167 km/h
1722 17-02-2012 00:00:00 4.74167 C 5.94 g/m*3 2.21 C 10.63333 km/h
1723 17-02-2012 01:00:00 4.825 C 5.92 g/m*3 2.34 C 10.5 km/h
1724 17-02-2012 02:00:00 4.68333 C 5.89 g/m*3 3.22 C 6.41667 km/h
1725 17-02-2012 03:00:00 4.225 C 5.81 g/m*3 2.87 C 5.88333 km/h
Sensor: Nr:Datum:Temp:Abs-Feuchte:Windchill:Wind:
Aussen-T/F 1726 17-02-2012 04:00:00 4.89167 C 5.85 g/m*3 2.99 C 8.06667 km/h
1727 17-02-2012 05:00:00 4.68333 C 5.86 g/m*3 3.05 C 6.96667 km/h
1728 17-02-2012 06:00:00 4.76667 C 5.96 g/m*3 2.11 C 11.28333 km/h
1729 17-02-2012 07:00:00 5.06667 C 5.95 g/m*3 2.84 C 9.54167 km/h
1730 17-02-2012 08:00:00 4.98333 C 6 g/m*3 3 C 8.46667 km/h
1731 17-02-2012 09:00:00 5.625 C 6.11 g/m*3 2.97 C 12.23333 km/h
1732 17-02-2012 10:00:00 6.175 C 6.33 g/m*3 3.46 C 13.3 km/h
1733 17-02-2012 11:00:00 6.875 C 6.43 g/m*3 4 C 15.43333 km/h
1734 17-02-2012 12:00:00 6.75833 C 6.41 g/m*3 4.44 C 11.7 km/h
1735 17-02-2012 13:00:00 6.7 C 6.38 g/m*3 4.56 C 10.63333 km/h
1736 17-02-2012 14:00:00 6.7 C 6.46 g/m*3 4.93 C 8.875 km/h
1737 17-02-2012 15:00:00 6.64167 C 6.47 g/m*3 5.44 C 6.56667 km/h
1738 17-02-2012 16:00:00 6.075 C 6.58 g/m*3 4.49 C 7.65 km/h
1739 17-02-2012 17:00:00 5.9 C 6.58 g/m*3 4.5 C 6.85 km/h
1740 17-02-2012 18:00:00 5.91667 C 6.52 g/m*3 4.34 C 7.51667 km/h
1741 17-02-2012 19:00:00 5.46667 C 6.37 g/m*3 4 C 6.83333 km/h
1742 17-02-2012 20:00:00 5.55 C 6.34 g/m*3 3.66 C 8.48333 km/h
1743 17-02-2012 21:00:00 5.65 C 6.31 g/m*3 3.78 C 8.48333 km/h
1744 17-02-2012 22:00:00 5.54167 C 6.23 g/m*3 3.94 C 7.375 km/h
1745 17-02-2012 23:00:00 5.45833 C 6.22 g/m*3 3.69 C 7.93333 km/h
1746 18-02-2012 00:00:00 5.25 C 6.19 g/m*3 3.71 C 6.95833 km/h
1747 18-02-2012 01:00:00 4.66667 C 6.09 g/m*3 4.67 C 4.675 km/h
1748 18-02-2012 02:00:00 4.98333 C 6.17 g/m*3 4.98 C 3.875 km/h
1749 18-02-2012 03:00:00 5.225 C 6.24 g/m*3 5.23 C 3.6 km/h
1750 18-02-2012 04:00:00 5.04167 C 6.26 g/m*3 5.04 C 2.53333 km/h
Sensor: Nr:Datum:Temp:Abs-Feuchte:Windchill:Wind:
Aussen-T/F 1751 18-02-2012 05:00:00 5.26667 C 6.34 g/m*3 5.27 C 3.06667 km/h
1752 18-02-2012 06:00:00 4.775 C 6.22 g/m*3 4.78 C 4 km/h
1753 18-02-2012 07:00:00 5.56667 C 6.45 g/m*3 4.7 C 5.06667 km/h
1754 18-02-2012 08:00:00 5.50833 C 6.49 g/m*3 5.51 C 4.68333 km/h
1755 18-02-2012 09:00:00 6.4 C 6.64 g/m*3 5.54 C 5.35833 km/h
1756 18-02-2012 10:00:00 6.725 C 6.62 g/m*3 5.53 C 6.58333 km/h
1757 18-02-2012 11:00:00 7.30833 C 6.71 g/m*3 5.9 C 7.78333 km/h
1758 18-02-2012 12:00:00 7.26667 C 6.69 g/m*3 5.51 C 9.29167 km/h
1759 18-02-2012 13:00:00 7.29167 C 6.71 g/m*3 5.98 C 7.375 km/h
1760 18-02-2012 14:00:00 7.35833 C 6.75 g/m*3 6.23 C 6.7 km/h
1761 18-02-2012 15:00:00 7.45 C 6.78 g/m*3 6.65 C 5.63333 km/h
1762 18-02-2012 16:00:00 7.48333 C 6.79 g/m*3 7.48 C 4.675 km/h
1763 18-02-2012 17:00:00 7.10833 C 6.68 g/m*3 7.11 C 4.14167 km/h
1764 18-02-2012 18:00:00 6.49167 C 6.61 g/m*3 6.49 C 3.475 km/h
1765 18-02-2012 19:00:00 6.425 C 6.63 g/m*3 6.43 C 3.86667 km/h
1766 18-02-2012 20:00:00 7.19167 C 6.77 g/m*3 6.23 C 6.03333 km/h
1767 18-02-2012 21:00:00 7.45 C 6.83 g/m*3 5.35 C 11.3 km/h
1768 18-02-2012 22:00:00 7.38333 C 6.75 g/m*3 5 C 12.9 km/h
1769 18-02-2012 23:00:00 7.28333 C 6.72 g/m*3 5.29 C 10.49167 km/h
1770 19-02-2012 00:00:00 6.90833 C 6.77 g/m*3 5.43 C 7.78333 km/h
1771 19-02-2012 01:00:00 7.01667 C 6.78 g/m*3 5.65 C 7.39167 km/h
1772 19-02-2012 02:00:00 7.275 C 6.82 g/m*3 5.7 C 8.46667 km/h
1773 19-02-2012 03:00:00 4.15833 C 5.69 g/m*3 0.73 C 14.89167 km/h
1774 19-02-2012 04:00:00 3.09167 C 5.43 g/m*3 1.82 C 5.23333 km/h
1775 19-02-2012 05:00:00 2.7 C 5.37 g/m*3 2.7 C 4.28333 km/h
Sensor: Nr:Datum:Temp:Abs-Feuchte:Windchill:Wind:
Aussen-T/F 1776 19-02-2012 06:00:00 2.09167 C 5.16 g/m*3 2.09 C 4.94167 km/h
1777 19-02-2012 07:00:00 2.575 C 4.96 g/m*3 0.39 C 7.65833 km/h
1778 19-02-2012 08:00:00 2.79167 C 4.83 g/m*3 1.28 C 5.74167 km/h
1779 19-02-2012 09:00:00 3.2 C 5.01 g/m*3 1.9 C 5.35 km/h
1780 19-02-2012 10:00:00 4.225 C 5.13 g/m*3 1.96 C 9.01667 km/h
1781 19-02-2012 11:00:00 4.21667 C 5.09 g/m*3 1.09 C 13.15 km/h
1782 19-02-2012 12:00:00 2.45 C 5.18 g/m*3 1.04 C 5.35 km/h
1783 19-02-2012 13:00:00 3.225 C 5.35 g/m*3 1.27 C 7.23333 km/h
1784 19-02-2012 14:00:00 1.35 C 4.91 g/m*3 -1.25 C 8.325 km/h
1785 19-02-2012 15:00:00 2.45833 C 5.1 g/m*3 0.25 C 7.65833 km/h
1786 19-02-2012 16:00:00 2.13333 C 5.07 g/m*3 0.63 C 5.475 km/h
1787 19-02-2012 17:00:00 1.71667 C 4.86 g/m*3 0 C 5.875 km/h
1788 19-02-2012 18:00:00 1.88333 C 4.73 g/m*3 0.51 C 5.08333 km/h
1789 19-02-2012 19:00:00 0.89167 C 4.73 g/m*3 0.89 C 3.33333 km/h
1790 19-02-2012 20:00:00 1.15 C 4.79 g/m*3 1.15 C 3.2 km/h
1791 19-02-2012 21:00:00 1.24167 C 4.82 g/m*3 1.24 C 2.8 km/h
1792 19-02-2012 22:00:00 1.60833 C 4.76 g/m*3 1.61 C 3.73333 km/h
1793 19-02-2012 23:00:00 1.46667 C 4.72 g/m*3 1.47 C 2.675 km/h
1794 20-02-2012 00:00:00 1.28333 C 4.73 g/m*3 1.28 C 3.2 km/h
1795 20-02-2012 01:00:00 1.55 C 4.74 g/m*3 1.55 C 4.28333 km/h
1796 20-02-2012 02:00:00 0.94167 C 4.65 g/m*3 0.94 C 4.14167 km/h
1797 20-02-2012 03:00:00 0.875 C 4.65 g/m*3 0.88 C 2.53333 km/h
1798 20-02-2012 04:00:00 0.575 C 4.47 g/m*3 0.57 C 2.4 km/h
1799 20-02-2012 05:00:00 0.025 C 4.47 g/m*3 0.03 C 2.66667 km/h
1800 20-02-2012 06:00:00 0.23333 C 4.57 g/m*3 0.23 C 4.28333 km/h
Sensor: Nr:Datum:Temp:Abs-Feuchte:Windchill:Wind:
Aussen-T/F 1801 20-02-2012 07:00:00 0.50833 C 4.59 g/m*3 0.51 C 3.06667 km/h
1802 20-02-2012 08:00:00 0.675 C 4.63 g/m*3 0.68 C 1.86667 km/h
1803 20-02-2012 09:00:00 1.14167 C 4.69 g/m*3 1.14 C 1.46667 km/h
1804 20-02-2012 10:00:00 1.69167 C 4.76 g/m*3 1.69 C 2.13333 km/h
1805 20-02-2012 11:00:00 2.25833 C 4.75 g/m*3 2.26 C 3.2 km/h
1806 20-02-2012 12:00:00 2.975 C 4.47 g/m*3 2.98 C 4.94167 km/h
1807 20-02-2012 13:00:00 3.38333 C 4.28 g/m*3 3.38 C 2.93333 km/h
1808 20-02-2012 14:00:00 4.03333 C 4.29 g/m*3 4.03 C 3.86667 km/h
1809 20-02-2012 15:00:00 4.825 C 4.3 g/m*3 4.83 C 4.93333 km/h
1810 20-02-2012 16:00:00 3.66667 C 4.37 g/m*3 3.67 C 3.33333 km/h
1811 20-02-2012 17:00:00 1.71667 C 4.47 g/m*3 1.72 C 3.2 km/h
1812 20-02-2012 18:00:00 0.33333 C 4.36 g/m*3 0.33 C 3.2 km/h
1813 20-02-2012 19:00:00 0.06667 C 4.3 g/m*3 0.07 C 2.4 km/h
1814 20-02-2012 20:00:00 -0.46667 C 4.24 g/m*3 -0.47 C 1.33333 km/h
1815 20-02-2012 21:00:00 -0.85833 C 4.09 g/m*3 -0.86 C 0.8 km/h
1816 20-02-2012 22:00:00 -1.28333 C 3.96 g/m*3 -1.28 C 0.8 km/h
1817 20-02-2012 23:00:00 -1.75 C 3.84 g/m*3 -1.75 C 1.06667 km/h
1818 21-02-2012 00:00:00 -1.96667 C 3.8 g/m*3 -1.97 C 0.26667 km/h
1819 21-02-2012 01:00:00 -2.16667 C 3.76 g/m*3 -2.17 C 2.66667 km/h
1820 21-02-2012 02:00:00 -2.575 C 3.7 g/m*3 -2.58 C 0.26667 km/h
1821 21-02-2012 03:00:00 -2.675 C 3.71 g/m*3 -2.68 C 1.33333 km/h
1822 21-02-2012 04:00:00 -2.48333 C 3.71 g/m*3 -2.48 C 2.93333 km/h
1823 21-02-2012 05:00:00 -2.35 C 3.71 g/m*3 -2.35 C 3.74167 km/h
1824 21-02-2012 06:00:00 -2.63333 C 3.68 g/m*3 -2.63 C 2.13333 km/h
1825 21-02-2012 07:00:00 -2.35 C 3.73 g/m*3 -2.35 C 2 km/h
Sensor: Nr:Datum:Temp:Abs-Feuchte:Windchill:Wind:
Aussen-T/F 1826 21-02-2012 08:00:00 -1.13333 C 3.9 g/m*3 -1.13 C 4.00833 km/h
1827 21-02-2012 09:00:00 0.61667 C 4.03 g/m*3 -1.99 C 7.93333 km/h
1828 21-02-2012 10:00:00 1.99167 C 4.05 g/m*3 -0.65 C 8.88333 km/h
1829 21-02-2012 11:00:00 3.325 C 4.2 g/m*3 0.8 C 9.4 km/h
1830 21-02-2012 12:00:00 4.56667 C 4.42 g/m*3 2.88 C 7.10833 km/h
1831 21-02-2012 13:00:00 6.08333 C 4.73 g/m*3 4.56 C 7.39167 km/h
1832 21-02-2012 14:00:00 7.28333 C 4.88 g/m*3 5.65 C 8.75 km/h
1833 21-02-2012 15:00:00 7.175 C 4.94 g/m*3 5.81 C 7.51667 km/h
1834 21-02-2012 16:00:00 6.66667 C 4.92 g/m*3 5.14 C 7.79167 km/h
1835 21-02-2012 17:00:00 5.825 C 4.89 g/m*3 4.26 C 7.38333 km/h
1836 21-02-2012 18:00:00 4.50833 C 4.82 g/m*3 2.33 C 8.88333 km/h
1837 21-02-2012 19:00:00 4.16667 C 4.71 g/m*3 2.06 C 8.35833 km/h
1838 21-02-2012 20:00:00 4.15 C 4.7 g/m*3 2.35 C 7.25 km/h
1839 21-02-2012 21:00:00 3.66667 C 4.68 g/m*3 2.38 C 5.49167 km/h
1840 21-02-2012 22:00:00 2.93333 C 4.59 g/m*3 1.49 C 5.60833 km/h
1841 21-02-2012 23:00:00 1.675 C 4.52 g/m*3 1.68 C 3.33333 km/h
1842 22-02-2012 00:00:00 0.975 C 4.48 g/m*3 0.98 C 3.46667 km/h
1843 22-02-2012 01:00:00 0.73333 C 4.44 g/m*3 0.73 C 3.6 km/h
1844 22-02-2012 02:00:00 0.375 C 4.4 g/m*3 0.38 C 3.33333 km/h
1845 22-02-2012 03:00:00 0.15833 C 4.36 g/m*3 0.16 C 3.6 km/h
1846 22-02-2012 04:00:00 -0.21667 C 4.29 g/m*3 -0.22 C 3.33333 km/h
1847 22-02-2012 05:00:00 -0.59167 C 4.21 g/m*3 -0.59 C 2.26667 km/h
1848 22-02-2012 06:00:00 -0.95 C 4.14 g/m*3 -0.95 C 1.33333 km/h
1849 22-02-2012 07:00:00 -1.28333 C 4.08 g/m*3 -1.28 C 0.13333 km/h
1850 22-02-2012 08:00:00 -1.31667 C 4.11 g/m*3 -1.32 C 0 km/h
Sensor: Nr:Datum:Temp:Abs-Feuchte:Windchill:Wind:
Aussen-T/F 1851 22-02-2012 09:00:00 -0.51667 C 4.35 g/m*3 -0.52 C 1.86667 km/h
1852 22-02-2012 10:00:00 0.85 C 4.6 g/m*3 0.85 C 3.46667 km/h
1853 22-02-2012 11:00:00 2.29167 C 4.94 g/m*3 2.29 C 4.13333 km/h
1854 22-02-2012 12:00:00 4.38333 C 5.32 g/m*3 4.38 C 4.26667 km/h
1855 22-02-2012 13:00:00 7.55833 C 5.51 g/m*3 6.58 C 6.3 km/h
1856 22-02-2012 14:00:00 9.31667 C 5.56 g/m*3 8.5 C 6.7 km/h
1857 22-02-2012 15:00:00 9.84167 C 5.49 g/m*3 8.95 C 7.38333 km/h
1858 22-02-2012 16:00:00 8.10833 C 5.61 g/m*3 7.29 C 6.01667 km/h
1859 22-02-2012 17:00:00 6.04167 C 5.53 g/m*3 6.04 C 4.93333 km/h
1860 22-02-2012 18:00:00 4.48333 C 5.29 g/m*3 3.42 C 5.2 km/h
1861 22-02-2012 19:00:00 4.275 C 5.23 g/m*3 4.28 C 4.93333 km/h
1862 22-02-2012 20:00:00 4.75833 C 5.2 g/m*3 3.68 C 5.34167 km/h
1863 22-02-2012 21:00:00 4.975 C 5.18 g/m*3 3.47 C 6.7 km/h
1864 22-02-2012 22:00:00 6.05833 C 5.17 g/m*3 4.17 C 8.875 km/h
1865 22-02-2012 23:00:00 6 C 5.05 g/m*3 3.72 C 10.63333 km/h
1866 23-02-2012 00:00:00 5.90833 C 4.97 g/m*3 3.67 C 10.34167 km/h
1867 23-02-2012 01:00:00 5.6 C 5.05 g/m*3 2.85 C 12.75 km/h
1868 23-02-2012 02:00:00 5.55833 C 5.06 g/m*3 2.94 C 11.95833 km/h
1869 23-02-2012 03:00:00 5.675 C 4.97 g/m*3 2.7 C 14.23333 km/h
1870 23-02-2012 04:00:00 5.54167 C 5.04 g/m*3 3.12 C 10.9 km/h
1871 23-02-2012 05:00:00 5.225 C 5.43 g/m*3 2.26 C 13.56667 km/h
1872 23-02-2012 06:00:00 4.90833 C 5.59 g/m*3 1.57 C 15.43333 km/h
1873 23-02-2012 07:00:00 4.68333 C 5.67 g/m*3 1.48 C 14.23333 km/h
1874 23-02-2012 08:00:00 4.875 C 5.72 g/m*3 1.65 C 14.63333 km/h
1875 23-02-2012 09:00:00 5.05833 C 5.82 g/m*3 1.73 C 15.56667 km/h
Sensor: Nr:Datum:Temp:Abs-Feuchte:Windchill:Wind:
Aussen-T/F 1876 23-02-2012 10:00:00 5.43333 C 5.98 g/m*3 2.1 C 16.23333 km/h
1877 23-02-2012 11:00:00 6.35833 C 6.13 g/m*3 3.31 C 15.83333 km/h
1878 23-02-2012 12:00:00 6.96667 C 6.26 g/m*3 4.11 C 15.43333 km/h
1879 23-02-2012 13:00:00 7.39167 C 6.44 g/m*3 5.16 C 11.96667 km/h
1880 23-02-2012 14:00:00 7.62727 C 6.49 g/m*3 5.36 C 12.46364 km/h
1881 23-02-2012 15:00:00 7.64167 C 6.54 g/m*3 5.55 C 11.43333 km/h
1882 23-02-2012 16:00:00 7.425 C 6.55 g/m*3 5.31 C 11.3 km/h
1883 23-02-2012 17:00:00 6.84167 C 6.51 g/m*3 4.45 C 12.23333 km/h
1884 23-02-2012 18:00:00 6.59167 C 6.52 g/m*3 4.26 C 11.56667 km/h
1885 23-02-2012 19:00:00 6.425 C 6.55 g/m*3 4.24 C 10.625 km/h
1886 23-02-2012 20:00:00 6.4 C 6.66 g/m*3 4.37 C 9.825 km/h
1887 23-02-2012 21:00:00 6.5 C 6.74 g/m*3 4.63 C 9.14167 km/h
1888 23-02-2012 22:00:00 6.75833 C 6.79 g/m*3 4.32 C 12.36667 km/h
1889 23-02-2012 23:00:00 6.89167 C 6.85 g/m*3 4.44 C 12.63333 km/h
1890 24-02-2012 00:00:00 7.15833 C 6.96 g/m*3 4.54 C 14.1 km/h
1891 24-02-2012 01:00:00 7.40833 C 7.03 g/m*3 4.91 C 13.7 km/h
1892 24-02-2012 02:00:00 7.43333 C 7.09 g/m*3 5.6 C 9.825 km/h
1893 24-02-2012 03:00:00 7.44167 C 7.1 g/m*3 5.43 C 10.75833 km/h
1894 24-02-2012 04:00:00 7.475 C 7.11 g/m*3 5.84 C 8.875 km/h
1895 24-02-2012 05:00:00 7.6 C 7.22 g/m*3 6.08 C 8.46667 km/h
1896 24-02-2012 06:00:00 7.6 C 7.25 g/m*3 5.57 C 11.025 km/h
1897 24-02-2012 07:00:00 7.75 C 7.32 g/m*3 5.68 C 11.43333 km/h
1898 24-02-2012 08:00:00 7.9 C 7.39 g/m*3 6.18 C 9.7 km/h
1899 24-02-2012 10:00:00 9.56667 C 7.86 g/m*3 8.12 C 9.96667 km/h
1900 24-02-2012 11:00:00 10.36667 C 8.09 g/m*3 8.78 C 11.83333 km/h
Sensor: Nr:Datum:Temp:Abs-Feuchte:Windchill:Wind:
Aussen-T/F 1901 24-02-2012 12:00:00 11.20833 C 8.33 g/m*3 11.21 C 14.5 km/h
1902 24-02-2012 13:00:00 11.05833 C 8.3 g/m*3 11.06 C 13.56667 km/h
1903 24-02-2012 14:00:00 10.95 C 8.3 g/m*3 9.43 C 12.23333 km/h
1904 24-02-2012 15:00:00 11.48333 C 8.43 g/m*3 11.48 C 14.9 km/h
1905 24-02-2012 16:00:00 10.95833 C 8.38 g/m*3 9.37 C 12.76667 km/h
1906 24-02-2012 17:00:00 10.58333 C 8.38 g/m*3 8.79 C 13.7 km/h
1907 24-02-2012 18:00:00 10.24167 C 8.36 g/m*3 8.69 C 11.43333 km/h
1908 24-02-2012 19:00:00 10.10833 C 8.4 g/m*3 9.01 C 8.6 km/h
1909 24-02-2012 20:00:00 9.99167 C 8.27 g/m*3 9.64 C 5.35 km/h
1910 24-02-2012 21:00:00 9.94167 C 8.11 g/m*3 9.94 C 4.13333 km/h
1911 24-02-2012 22:00:00 9.91818 C 8.08 g/m*3 9.92 C 4.81818 km/h
1912 24-02-2012 23:00:00 10.4 C 8.23 g/m*3 9.58 C 7.51667 km/h
1913 25-02-2012 00:00:00 9.52727 C 8.26 g/m*3 9.01 C 5.69091 km/h
1914 25-02-2012 01:00:00 8.93333 C 8.19 g/m*3 8.93 C 2.93333 km/h
1915 25-02-2012 02:00:00 8.88333 C 8.16 g/m*3 8.88 C 3.2 km/h
1916 25-02-2012 03:00:00 8.675 C 7.97 g/m*3 8.68 C 3.46667 km/h
1917 25-02-2012 04:00:00 8.24167 C 7.75 g/m*3 8.24 C 1.6 km/h
1918 25-02-2012 05:00:00 7.73333 C 7.49 g/m*3 7.73 C 1.86667 km/h
1919 25-02-2012 06:00:00 7.33333 C 7.24 g/m*3 7.33 C 2.4 km/h
1920 25-02-2012 07:00:00 6.6 C 7.01 g/m*3 6.6 C 2.93333 km/h
1921 25-02-2012 08:00:00 6.81667 C 7.2 g/m*3 6.82 C 0.93333 km/h
1922 25-02-2012 09:00:00 7.32727 C 7.4 g/m*3 7.33 C 1.45455 km/h
1923 25-02-2012 10:00:00 9.01818 C 7.97 g/m*3 9.02 C 3.63636 km/h
1924 25-02-2012 11:00:00 10.425 C 7.99 g/m*3 10.43 C 4.81667 km/h
1925 25-02-2012 12:00:00 11.53333 C 6.98 g/m*3 11.53 C 10.35833 km/h
Sensor: Nr:Datum:Temp:Abs-Feuchte:Windchill:Wind:
Aussen-T/F 1926 25-02-2012 13:00:00 12.225 C 7.2 g/m*3 12.23 C 9.275 km/h
1927 25-02-2012 14:00:00 11.96667 C 6.97 g/m*3 11.97 C 10.9 km/h
1928 25-02-2012 15:00:00 11.35 C 6.62 g/m*3 11.35 C 12.09167 km/h
1929 25-02-2012 16:00:00 10.48333 C 6.61 g/m*3 9 C 11.29167 km/h
1930 25-02-2012 17:00:00 9.23333 C 6.38 g/m*3 7.46 C 11.55 km/h
1931 25-02-2012 18:00:00 7.79167 C 5.8 g/m*3 6.31 C 8.45833 km/h
1932 25-02-2012 19:00:00 6.73333 C 5.58 g/m*3 5.8 C 5.74167 km/h
1933 25-02-2012 20:00:00 6.51667 C 5.57 g/m*3 5.42 C 6.15 km/h
1934 25-02-2012 21:00:00 6.45 C 5.58 g/m*3 6.45 C 4.00833 km/h
1935 25-02-2012 22:00:00 6.68333 C 5.62 g/m*3 5.23 C 7.525 km/h
1936 25-02-2012 23:00:00 6.36667 C 5.62 g/m*3 5.16 C 6.43333 km/h
1937 26-02-2012 00:00:00 6.01667 C 5.64 g/m*3 5.16 C 5.20833 km/h
1938 26-02-2012 01:00:00 5.68333 C 5.59 g/m*3 4.73 C 5.35833 km/h
1939 26-02-2012 02:00:00 5.35833 C 5.61 g/m*3 5.36 C 4.14167 km/h
1940 26-02-2012 03:00:00 5.05833 C 5.63 g/m*3 5.06 C 3.86667 km/h
1941 26-02-2012 04:00:00 4.775 C 5.66 g/m*3 4.78 C 4.54167 km/h
1942 26-02-2012 05:00:00 4.66667 C 5.72 g/m*3 4.67 C 4.81667 km/h
1943 26-02-2012 06:00:00 4.425 C 5.78 g/m*3 4.43 C 4.00833 km/h
1944 26-02-2012 07:00:00 4.66667 C 5.86 g/m*3 4.67 C 3.46667 km/h
1945 26-02-2012 08:00:00 4.79167 C 5.96 g/m*3 4.79 C 2.53333 km/h
1946 26-02-2012 09:00:00 5.01667 C 6.05 g/m*3 5.02 C 1.86667 km/h
1947 26-02-2012 10:00:00 5.025 C 6.19 g/m*3 5.03 C 2.66667 km/h
1948 26-02-2012 11:00:00 5.20833 C 6.38 g/m*3 5.21 C 1.86667 km/h
1949 26-02-2012 12:00:00 5.525 C 6.56 g/m*3 5.53 C 2.93333 km/h
1950 26-02-2012 13:00:00 6.14167 C 6.68 g/m*3 6.14 C 4.94167 km/h
Sensor: Nr:Datum:Temp:Abs-Feuchte:Windchill:Wind:
Aussen-T/F 1951 26-02-2012 14:00:00 6.4 C 6.63 g/m*3 4.54 C 9.00833 km/h
1952 26-02-2012 15:00:00 6.4 C 6.65 g/m*3 5.45 C 5.63333 km/h
1953 26-02-2012 16:00:00 6.325 C 6.62 g/m*3 6.33 C 4.54167 km/h
1954 26-02-2012 17:00:00 6.20833 C 6.54 g/m*3 5.43 C 5.06667 km/h
1955 26-02-2012 18:00:00 5.875 C 6.46 g/m*3 5.88 C 3.86667 km/h
1956 26-02-2012 19:00:00 5.31667 C 6.37 g/m*3 5.32 C 3.33333 km/h
1957 26-02-2012 20:00:00 5.2 C 6.33 g/m*3 5.2 C 3.6 km/h
1958 26-02-2012 21:00:00 4.28333 C 6.01 g/m*3 4.28 C 2.93333 km/h
1959 26-02-2012 22:00:00 4.41667 C 6.18 g/m*3 4.42 C 1.06667 km/h
1960 26-02-2012 23:00:00 4.21667 C 6.03 g/m*3 4.22 C 2 km/h
1961 27-02-2012 00:00:00 3.71667 C 5.9 g/m*3 3.72 C 1.6 km/h
1962 27-02-2012 01:00:00 4.05833 C 6 g/m*3 4.06 C 2.8 km/h
1963 27-02-2012 02:00:00 4.18333 C 6.02 g/m*3 4.18 C 2.66667 km/h
1964 27-02-2012 03:00:00 4.18333 C 6 g/m*3 4.18 C 1.86667 km/h
1965 27-02-2012 04:00:00 3.9 C 5.91 g/m*3 3.9 C 0.8 km/h
1966 27-02-2012 05:00:00 3.39167 C 5.74 g/m*3 3.39 C 1.2 km/h
1967 27-02-2012 06:00:00 2.68333 C 5.49 g/m*3 2.68 C 2.53333 km/h
1968 27-02-2012 07:00:00 2.83333 C 5.55 g/m*3 2.83 C 4.4 km/h
1969 27-02-2012 08:00:00 3.43 C 5.64 g/m*3 3.43 C 4.96 km/h
1970 27-02-2012 09:00:00 3.91667 C 5.78 g/m*3 2.77 C 5.20833 km/h
1971 27-02-2012 10:00:00 4.675 C 5.97 g/m*3 4.68 C 4.8 km/h
1972 27-02-2012 11:00:00 6.075 C 6.19 g/m*3 6.08 C 4.26667 km/h
1973 27-02-2012 12:00:00 7.25833 C 5.89 g/m*3 6.62 C 5.075 km/h
1974 27-02-2012 13:00:00 8.19167 C 5.78 g/m*3 7.39 C 6.025 km/h
1975 27-02-2012 14:00:00 8.60833 C 5.65 g/m*3 7.87 C 6.01667 km/h
Sensor: Nr:Datum:Temp:Abs-Feuchte:Windchill:Wind:
Aussen-T/F 1976 27-02-2012 15:00:00 8.89167 C 5.59 g/m*3 8.43 C 5.2 km/h
1977 27-02-2012 16:00:00 9.225 C 5.62 g/m*3 9.23 C 3.86667 km/h
1978 27-02-2012 17:00:00 8.65 C 6.1 g/m*3 8.65 C 2.93333 km/h
1979 27-02-2012 18:00:00 7.375 C 6.04 g/m*3 7.38 C 4.26667 km/h
1980 27-02-2012 19:00:00 6.85 C 6.09 g/m*3 6.85 C 3.6 km/h
1981 27-02-2012 20:00:00 7.025 C 6.11 g/m*3 7.03 C 4.14167 km/h
1982 27-02-2012 21:00:00 6.70833 C 6.33 g/m*3 6.71 C 2.4 km/h
1983 27-02-2012 22:00:00 6.75 C 6.37 g/m*3 6.75 C 3.06667 km/h
1984 27-02-2012 23:00:00 7.1 C 6.42 g/m*3 7.1 C 3.74167 km/h
1985 28-02-2012 00:00:00 7.15 C 6.55 g/m*3 7.15 C 3.73333 km/h
1986 28-02-2012 01:00:00 7.05 C 6.67 g/m*3 7.05 C 3.06667 km/h
1987 28-02-2012 02:00:00 6.85833 C 6.67 g/m*3 6.86 C 2.26667 km/h
1988 28-02-2012 03:00:00 6.93333 C 6.67 g/m*3 6.93 C 2.93333 km/h
1989 28-02-2012 04:00:00 6.8 C 6.71 g/m*3 6.8 C 2.93333 km/h
1990 28-02-2012 05:00:00 6.86667 C 6.8 g/m*3 6.87 C 3.73333 km/h
1991 28-02-2012 06:00:00 7.04167 C 6.86 g/m*3 6.28 C 5.33333 km/h
1992 28-02-2012 07:00:00 7.01667 C 6.78 g/m*3 6.16 C 5.60833 km/h
1993 28-02-2012 08:00:00 7.35 C 6.83 g/m*3 6.08 C 7.25 km/h
1994 28-02-2012 09:00:00 8.05833 C 6.97 g/m*3 6.87 C 7.38333 km/h
1995 28-02-2012 10:00:00 8.51667 C 7.15 g/m*3 6.75 C 10.63333 km/h
1996 28-02-2012 11:00:00 9.33333 C 7.35 g/m*3 7.79 C 10.23333 km/h
1997 28-02-2012 12:00:00 10.18333 C 7.57 g/m*3 8.95 C 9.43333 km/h
1998 28-02-2012 13:00:00 10.075 C 7.57 g/m*3 9.23 C 7.375 km/h
1999 28-02-2012 14:00:00 10.225 C 7.7 g/m*3 9.62 C 6.43333 km/h
2000 28-02-2012 15:00:00 10.45833 C 7.8 g/m*3 9.51 C 8.2 km/h
Sensor: Nr:Datum:Temp:Abs-Feuchte:Windchill:Wind:
Aussen-T/F 2001 28-02-2012 16:00:00 9.95 C 7.81 g/m*3 9.48 C 5.74167 km/h
2002 28-02-2012 17:00:00 9.45 C 7.86 g/m*3 9.45 C 4.4 km/h
2003 28-02-2012 18:00:00 9.25833 C 7.86 g/m*3 9.26 C 3.33333 km/h
2004 28-02-2012 19:00:00 9.59167 C 7.95 g/m*3 9.11 C 5.60833 km/h
2005 28-02-2012 20:00:00 9.525 C 8.02 g/m*3 9.53 C 4.675 km/h
2006 28-02-2012 21:00:00 9.36667 C 8.11 g/m*3 8.4 C 7.375 km/h
2007 28-02-2012 22:00:00 9.375 C 8.08 g/m*3 8.78 C 5.88333 km/h
2008 28-02-2012 23:00:00 9.4 C 8 g/m*3 8.85 C 5.74167 km/h
2009 29-02-2012 00:00:00 9.09167 C 7.98 g/m*3 9.09 C 2.26667 km/h
2010 29-02-2012 01:00:00 8.65 C 8 g/m*3 8.65 C 2.8 km/h
2011 29-02-2012 02:00:00 8.4 C 7.97 g/m*3 8.4 C 2.66667 km/h
2012 29-02-2012 03:00:00 8.325 C 7.99 g/m*3 8.32 C 1.86667 km/h
2013 29-02-2012 04:00:00 8.31667 C 7.95 g/m*3 8.32 C 1.06667 km/h
2014 29-02-2012 05:00:00 8.30909 C 7.93 g/m*3 8.31 C 0.58182 km/h
2015 29-02-2012 06:00:00 8.3 C 8.01 g/m*3 8.3 C 0.53333 km/h
2016 29-02-2012 07:00:00 8.34167 C 8.07 g/m*3 8.34 C 2.66667 km/h
2017 29-02-2012 08:00:00 8.47273 C 8.18 g/m*3 8.47 C 2.90909 km/h
2018 29-02-2012 09:00:00 8.725 C 8.32 g/m*3 8.73 C 3.06667 km/h
2019 29-02-2012 10:00:00 9.15833 C 8.47 g/m*3 9.16 C 2.4 km/h
2020 29-02-2012 11:00:00 9.875 C 8.72 g/m*3 9.88 C 2 km/h
2021 29-02-2012 12:00:00 10.76667 C 9.01 g/m*3 10.77 C 0.93333 km/h
2022 29-02-2012 13:00:00 11.68333 C 9.21 g/m*3 11.68 C 2 km/h
2023 29-02-2012 14:00:00 12.06667 C 9.25 g/m*3 12.07 C 2.8 km/h
2024 29-02-2012 15:00:00 12.3 C 9.3 g/m*3 12.3 C 2.26667 km/h
2025 29-02-2012 16:00:00 12.575 C 9.4 g/m*3 12.58 C 2 km/h
Sensor: Nr:Datum:Temp:Abs-Feuchte:Windchill:Wind:
Aussen-T/F 2026 29-02-2012 17:00:00 12.26667 C 9.27 g/m*3 12.27 C 0.93333 km/h
2027 29-02-2012 18:00:00 9.99167 C 8.46 g/m*3 9.99 C 3.06667 km/h
2028 29-02-2012 19:00:00 8.61667 C 8.04 g/m*3 8.62 C 2.93333 km/h
2029 29-02-2012 20:00:00 8.7 C 8.22 g/m*3 8.7 C 0 km/h
2030 29-02-2012 21:00:00 8.41667 C 8 g/m*3 8.42 C 0.66667 km/h
2031 29-02-2012 22:00:00 8.23333 C 8.01 g/m*3 8.23 C 0 km/h
2032 29-02-2012 23:00:00 8.325 C 8.02 g/m*3 8.32 C 0 km/h
2033 01-03-2012 00:00:00 8.29167 C 7.99 g/m*3 8.29 C 0.4 km/h
2034 01-03-2012 01:00:00 8.08333 C 7.93 g/m*3 8.08 C 0.13333 km/h
2035 01-03-2012 02:00:00 8.03333 C 7.96 g/m*3 8.03 C 0 km/h
2036 01-03-2012 03:00:00 7.99167 C 7.98 g/m*3 7.99 C 0 km/h
2037 01-03-2012 04:00:00 8 C 8.02 g/m*3 8 C 0 km/h
2038 01-03-2012 05:00:00 7.90833 C 7.97 g/m*3 7.91 C 0 km/h
2039 01-03-2012 06:00:00 7.85 C 7.94 g/m*3 7.85 C 0.13333 km/h
2040 01-03-2012 07:00:00 7.75 C 7.89 g/m*3 7.75 C 0.13333 km/h
2041 01-03-2012 08:00:00 7.76667 C 7.9 g/m*3 7.77 C 0.66667 km/h
2042 01-03-2012 09:00:00 7.95 C 7.9 g/m*3 7.95 C 1.46667 km/h
2043 01-03-2012 10:00:00 8.34167 C 7.98 g/m*3 8.34 C 2.93333 km/h
2044 01-03-2012 11:00:00 8.725 C 8.07 g/m*3 8.73 C 4.4 km/h
2045 01-03-2012 12:00:00 9.21667 C 8.24 g/m*3 9.22 C 4.4 km/h
2046 01-03-2012 13:00:00 10.09167 C 8.53 g/m*3 10.09 C 4.15 km/h
2047 01-03-2012 14:00:00 10.64167 C 8.69 g/m*3 10.46 C 5.06667 km/h
2048 01-03-2012 15:00:00 10.79167 C 8.7 g/m*3 10.79 C 3.2 km/h
2049 01-03-2012 16:00:00 10.95 C 8.77 g/m*3 10.95 C 2.53333 km/h
2050 01-03-2012 17:00:00 10.625 C 8.72 g/m*3 10.63 C 2.93333 km/h
Sensor: Nr:Datum:Temp:Abs-Feuchte:Windchill:Wind:
Aussen-T/F 2051 01-03-2012 18:00:00 10.15833 C 8.65 g/m*3 10.16 C 1.2 km/h
2052 01-03-2012 19:00:00 9.89167 C 8.6 g/m*3 9.89 C 0.4 km/h
2053 01-03-2012 20:00:00 9.68333 C 8.59 g/m*3 9.68 C 2.13333 km/h
2054 01-03-2012 21:00:00 9.36667 C 8.5 g/m*3 9.37 C 0.4 km/h
2055 01-03-2012 22:00:00 9.34167 C 8.56 g/m*3 9.34 C 1.86667 km/h
2056 01-03-2012 23:00:00 8.925 C 8.36 g/m*3 8.93 C 0.4 km/h
2057 02-03-2012 00:00:00 8.53333 C 8.21 g/m*3 8.53 C 1.86667 km/h
2058 02-03-2012 01:00:00 8.20833 C 8.06 g/m*3 8.21 C 1.86667 km/h
2059 02-03-2012 02:00:00 8.04167 C 8.03 g/m*3 8.04 C 0.53333 km/h
2060 02-03-2012 03:00:00 7.9 C 7.97 g/m*3 7.9 C 0.8 km/h
2061 02-03-2012 04:00:00 7.75 C 7.89 g/m*3 7.75 C 1.33333 km/h
2062 02-03-2012 05:00:00 7.7 C 7.87 g/m*3 7.7 C 1.6 km/h
2063 02-03-2012 06:00:00 7.53333 C 7.71 g/m*3 7.53 C 0.66667 km/h
2064 02-03-2012 07:00:00 7.34167 C 7.61 g/m*3 7.34 C 0.8 km/h
2065 02-03-2012 08:00:00 7.35833 C 7.61 g/m*3 7.36 C 0.53333 km/h
2066 02-03-2012 09:00:00 7.59167 C 7.73 g/m*3 7.59 C 2.4 km/h
2067 02-03-2012 10:00:00 8.3 C 7.97 g/m*3 8.3 C 2.53333 km/h
2068 02-03-2012 11:00:00 8.75 C 8.08 g/m*3 8.75 C 2.4 km/h
2069 02-03-2012 12:00:00 9.43333 C 8.16 g/m*3 8.93 C 5.61667 km/h
2070 02-03-2012 13:00:00 9.95833 C 8.3 g/m*3 9.96 C 3.06667 km/h
2071 02-03-2012 14:00:00 10.95833 C 8.48 g/m*3 10.96 C 4.54167 km/h
2072 02-03-2012 15:00:00 11.33333 C 8.43 g/m*3 11.33 C 5.61667 km/h
2073 02-03-2012 16:00:00 10.46667 C 8.28 g/m*3 10.47 C 4.94167 km/h
2074 02-03-2012 17:00:00 9.81667 C 8.06 g/m*3 9.82 C 3.6 km/h
2075 02-03-2012 18:00:00 9.05 C 7.93 g/m*3 9.05 C 3.73333 km/h
Sensor: Nr:Datum:Temp:Abs-Feuchte:Windchill:Wind:
Aussen-T/F 2076 02-03-2012 19:00:00 8.59167 C 7.82 g/m*3 8.59 C 3.06667 km/h
2077 02-03-2012 20:00:00 8.21667 C 7.75 g/m*3 8.22 C 2.13333 km/h
2078 02-03-2012 21:00:00 7.81667 C 7.65 g/m*3 7.82 C 1.86667 km/h
2079 02-03-2012 22:00:00 7.7 C 7.57 g/m*3 7.7 C 1.46667 km/h
2080 02-03-2012 23:00:00 7.56667 C 7.54 g/m*3 7.57 C 0.13333 km/h
2081 03-03-2012 00:00:00 7.4 C 7.55 g/m*3 7.4 C 0 km/h
2082 03-03-2012 01:00:00 7.4 C 7.57 g/m*3 7.4 C 0.66667 km/h
2083 03-03-2012 02:00:00 7.4 C 7.54 g/m*3 7.4 C 1.06667 km/h
2084 03-03-2012 03:00:00 7.4 C 7.43 g/m*3 7.4 C 1.6 km/h
2085 03-03-2012 04:00:00 7.34167 C 7.38 g/m*3 7.34 C 1.73333 km/h
2086 03-03-2012 05:00:00 7.30833 C 7.35 g/m*3 7.31 C 0.66667 km/h
2087 03-03-2012 06:00:00 7.25 C 7.39 g/m*3 7.25 C 0.8 km/h
2088 03-03-2012 07:00:00 7.3 C 7.39 g/m*3 7.3 C 1.06667 km/h
2089 03-03-2012 08:00:00 7.31667 C 7.36 g/m*3 7.32 C 0.4 km/h
2090 03-03-2012 09:00:00 7.46667 C 7.39 g/m*3 7.47 C 2.26667 km/h
2091 03-03-2012 10:00:00 7.76667 C 7.36 g/m*3 7.77 C 3.33333 km/h
2092 03-03-2012 11:00:00 7.84167 C 7.39 g/m*3 7.84 C 2.53333 km/h
2093 03-03-2012 12:00:00 8.175 C 7.49 g/m*3 8.18 C 1.6 km/h
2094 03-03-2012 13:00:00 8.575 C 7.46 g/m*3 8.57 C 4.15 km/h
2095 03-03-2012 14:00:00 8.65833 C 7.42 g/m*3 8.66 C 4.68333 km/h
2096 03-03-2012 15:00:00 8.78333 C 7.43 g/m*3 8.78 C 4 km/h
2097 03-03-2012 16:00:00 9.00833 C 7.45 g/m*3 9.01 C 1.2 km/h
2098 03-03-2012 17:00:00 9.14167 C 7.51 g/m*3 9.14 C 0.66667 km/h
2099 03-03-2012 18:00:00 8.43333 C 7.54 g/m*3 8.43 C 1.33333 km/h
2100 03-03-2012 19:00:00 7.925 C 7.4 g/m*3 7.93 C 2.13333 km/h
Sensor: Nr:Datum:Temp:Abs-Feuchte:Windchill:Wind:
Aussen-T/F 2101 03-03-2012 20:00:00 7.91667 C 7.38 g/m*3 7.92 C 1.6 km/h
2102 03-03-2012 21:00:00 7.91667 C 7.31 g/m*3 7.92 C 2.26667 km/h
2103 03-03-2012 22:00:00 8.05833 C 7.32 g/m*3 8.06 C 2.53333 km/h
2104 03-03-2012 23:00:00 8.2 C 7.32 g/m*3 8.2 C 4.41667 km/h
2105 04-03-2012 00:00:00 8.13333 C 7.35 g/m*3 8.13 C 1.46667 km/h
2106 04-03-2012 01:00:00 7.10833 C 7.02 g/m*3 7.11 C 2.4 km/h
2107 04-03-2012 02:00:00 6.20833 C 6.78 g/m*3 6.21 C 2.4 km/h
2108 04-03-2012 03:00:00 5.99167 C 6.68 g/m*3 5.99 C 0.4 km/h
2109 04-03-2012 04:00:00 5.31667 C 6.54 g/m*3 5.32 C 0.4 km/h
2110 04-03-2012 05:00:00 5.2 C 6.5 g/m*3 5.2 C 0.4 km/h
2111 04-03-2012 06:00:00 5.4 C 6.63 g/m*3 5.4 C 0 km/h
2112 04-03-2012 07:00:00 5.75833 C 6.74 g/m*3 5.76 C 0.93333 km/h
2113 04-03-2012 08:00:00 6.75833 C 7.09 g/m*3 6.76 C 1.33333 km/h
2114 04-03-2012 09:00:00 8.4 C 7.5 g/m*3 8.4 C 1.2 km/h
2115 04-03-2012 10:00:00 9.775 C 7.81 g/m*3 9.78 C 1.33333 km/h
2116 04-03-2012 11:00:00 10.80833 C 7.9 g/m*3 10.81 C 2.66667 km/h
2117 04-03-2012 12:00:00 11.81667 C 7.66 g/m*3 11.82 C 6.15 km/h
2118 04-03-2012 13:00:00 12.09167 C 7.31 g/m*3 12.09 C 6.7 km/h
2119 04-03-2012 14:00:00 12.29167 C 6.96 g/m*3 12.29 C 6.56667 km/h
2120 04-03-2012 15:00:00 11.83333 C 6.77 g/m*3 11.83 C 7.10833 km/h
2121 04-03-2012 16:00:00 11.03333 C 6.93 g/m*3 11.03 C 4.54167 km/h
2122 04-03-2012 17:00:00 10.69167 C 7.01 g/m*3 10.69 C 0.93333 km/h
2123 04-03-2012 18:00:00 9.675 C 7.06 g/m*3 9.68 C 2.26667 km/h
2124 04-03-2012 19:00:00 9.25 C 6.79 g/m*3 9.25 C 4.54167 km/h
2125 04-03-2012 20:00:00 9.56667 C 6.59 g/m*3 9.57 C 4.14167 km/h
Sensor: Nr:Datum:Temp:Abs-Feuchte:Windchill:Wind:
Aussen-T/F 2126 04-03-2012 21:00:00 8.75 C 6.64 g/m*3 8.75 C 2.26667 km/h
2127 04-03-2012 22:00:00 8.09167 C 6.69 g/m*3 8.09 C 2.93333 km/h
2128 04-03-2012 23:00:00 7.8 C 6.69 g/m*3 7.8 C 2.93333 km/h
2129 05-03-2012 00:00:00 7.24167 C 6.58 g/m*3 7.24 C 3.46667 km/h
2130 05-03-2012 01:00:00 7.675 C 6.54 g/m*3 7.04 C 5.225 km/h
2131 05-03-2012 02:00:00 7.23333 C 6.8 g/m*3 6.21 C 6.28333 km/h
2132 05-03-2012 03:00:00 6.55 C 6.82 g/m*3 6.55 C 4.26667 km/h
2133 05-03-2012 04:00:00 6.30833 C 6.82 g/m*3 6.31 C 3.6 km/h
2134 05-03-2012 05:00:00 5.7 C 6.34 g/m*3 3.21 C 11.41667 km/h
2135 05-03-2012 06:00:00 4.44167 C 5.67 g/m*3 1.16 C 14.36667 km/h
2136 05-03-2012 07:00:00 4.1 C 5.5 g/m*3 1.69 C 9.55 km/h
2137 05-03-2012 08:00:00 4.48333 C 5.43 g/m*3 2.34 C 8.73333 km/h
2138 05-03-2012 09:00:00 5.15833 C 5.44 g/m*3 2.89 C 9.8 km/h
2139 05-03-2012 10:00:00 5.725 C 5.36 g/m*3 3.48 C 10.21667 km/h
2140 05-03-2012 11:00:00 6.08333 C 5.14 g/m*3 3.26 C 13.83333 km/h
2141 05-03-2012 12:00:00 6.275 C 4.99 g/m*3 3.06 C 16.9 km/h
2142 05-03-2012 13:00:00 6.55 C 5.05 g/m*3 3.86 C 13.7 km/h
2143 05-03-2012 14:00:00 6.35833 C 4.97 g/m*3 3.64 C 13.55833 km/h
2144 05-03-2012 15:00:00 6.35 C 4.94 g/m*3 4.23 C 10.2 km/h
2145 05-03-2012 16:00:00 6.24167 C 4.99 g/m*3 4.55 C 8.19167 km/h
2146 05-03-2012 17:00:00 6.025 C 5.11 g/m*3 4.93 C 5.9 km/h
2147 05-03-2012 18:00:00 5.65 C 5.12 g/m*3 5.65 C 4.80833 km/h
2148 05-03-2012 19:00:00 5.3 C 5.21 g/m*3 5.3 C 3.86667 km/h
2149 05-03-2012 20:00:00 5.30833 C 5.16 g/m*3 4.41 C 5.06667 km/h
2150 05-03-2012 21:00:00 5.125 C 5.26 g/m*3 5.13 C 4.14167 km/h
Sensor: Nr:Datum:Temp:Abs-Feuchte:Windchill:Wind:
Aussen-T/F 2151 05-03-2012 22:00:00 4.825 C 5.26 g/m*3 4.83 C 3.34167 km/h
2152 05-03-2012 23:00:00 4.875 C 5.24 g/m*3 4.88 C 2.80833 km/h
2153 06-03-2012 00:00:00 4.91667 C 5.23 g/m*3 4.92 C 3.875 km/h
2154 06-03-2012 01:00:00 4.78333 C 5.29 g/m*3 4.78 C 3.875 km/h
2155 06-03-2012 02:00:00 4.35833 C 5.24 g/m*3 4.36 C 3.86667 km/h
2156 06-03-2012 03:00:00 3.29167 C 5.18 g/m*3 3.29 C 3.6 km/h
2157 06-03-2012 04:00:00 2.81667 C 5.08 g/m*3 2.82 C 3.6 km/h
2158 06-03-2012 05:00:00 2.24167 C 5.04 g/m*3 2.24 C 3.46667 km/h
2159 06-03-2012 06:00:00 2.85833 C 5.14 g/m*3 2.86 C 4.55 km/h
2160 06-03-2012 07:00:00 3.16667 C 5.02 g/m*3 1.81 C 5.48333 km/h
2161 06-03-2012 08:00:00 3.25 C 5.11 g/m*3 3.25 C 1.6 km/h
2162 06-03-2012 09:00:00 4.98333 C 5.31 g/m*3 4.98 C 4.275 km/h
2163 06-03-2012 10:00:00 6.1 C 5.31 g/m*3 5.25 C 5.20833 km/h
2164 06-03-2012 11:00:00 7.28333 C 5.32 g/m*3 5.93 C 7.51667 km/h
2165 06-03-2012 12:00:00 8.23333 C 5.15 g/m*3 7.01 C 7.65 km/h
2166 06-03-2012 13:00:00 9.95 C 4.82 g/m*3 8.78 C 8.86667 km/h
2167 06-03-2012 14:00:00 10.96667 C 4.53 g/m*3 10.13 C 8.05833 km/h
2168 06-03-2012 15:00:00 9.925 C 4.5 g/m*3 9.45 C 5.75 km/h
2169 06-03-2012 16:00:00 10.33333 C 4.41 g/m*3 10.33 C 3.86667 km/h
2170 06-03-2012 17:00:00 9.925 C 4.86 g/m*3 9.93 C 2.26667 km/h
2171 06-03-2012 18:00:00 6.48333 C 5.37 g/m*3 6.48 C 3.86667 km/h
2172 06-03-2012 19:00:00 4.875 C 5.21 g/m*3 4.88 C 3.33333 km/h
2173 06-03-2012 20:00:00 3.8 C 5.01 g/m*3 3.8 C 2.4 km/h
2174 06-03-2012 21:00:00 2.775 C 4.81 g/m*3 2.78 C 1.33333 km/h
2175 06-03-2012 22:00:00 1.975 C 4.68 g/m*3 1.98 C 0.8 km/h
Sensor: Nr:Datum:Temp:Abs-Feuchte:Windchill:Wind:
Aussen-T/F 2176 06-03-2012 23:00:00 1.25 C 4.55 g/m*3 1.25 C 1.46667 km/h
2177 07-03-2012 00:00:00 0.625 C 4.43 g/m*3 0.63 C 0.66667 km/h
2178 07-03-2012 01:00:00 0.11667 C 4.31 g/m*3 0.12 C 1.6 km/h
2179 07-03-2012 02:00:00 -0.3 C 4.24 g/m*3 -0.3 C 2 km/h
2180 07-03-2012 03:00:00 -0.75 C 4.14 g/m*3 -0.75 C 1.2 km/h
2181 07-03-2012 04:00:00 -1.08333 C 4.08 g/m*3 -1.08 C 0.93333 km/h
2182 07-03-2012 05:00:00 -1.35 C 4.02 g/m*3 -1.35 C 0.8 km/h
2183 07-03-2012 06:00:00 -1.56667 C 4 g/m*3 -1.57 C 1.06667 km/h
2184 07-03-2012 07:00:00 -1.39091 C 4.07 g/m*3 -1.39 C 0.58182 km/h
2185 07-03-2012 08:00:00 -0.46667 C 4.27 g/m*3 -0.47 C 0.71111 km/h
2186 07-03-2012 09:00:00 0.55 C 4.41 g/m*3 0.55 C 0.66667 km/h
2187 07-03-2012 10:00:00 2.79091 C 4.82 g/m*3 2.79 C 3.2 km/h
2188 07-03-2012 11:00:00 5.275 C 5.1 g/m*3 4.17 C 5.61667 km/h
2189 07-03-2012 12:00:00 7.01667 C 5.27 g/m*3 4.97 C 10.49167 km/h
2190 07-03-2012 13:00:00 7.34167 C 5 g/m*3 4.84 C 13.56667 km/h
2191 07-03-2012 14:00:00 7.675 C 4.98 g/m*3 5.91 C 9.69167 km/h
2192 07-03-2012 15:00:00 7.45833 C 5 g/m*3 5.76 C 9.16667 km/h
2193 07-03-2012 16:00:00 7.25833 C 4.96 g/m*3 5.11 C 11.3 km/h
2194 07-03-2012 17:00:00 7.13333 C 5.04 g/m*3 5.11 C 10.48333 km/h
2195 07-03-2012 19:00:00 5.88333 C 5.35 g/m*3 3.73 C 9.93333 km/h
2196 07-03-2012 20:00:00 4.31667 C 5.62 g/m*3 1.95 C 9.525 km/h
2197 07-03-2012 21:00:00 4.01667 C 5.59 g/m*3 0.95 C 12.63333 km/h
2198 07-03-2012 22:00:00 4.01667 C 5.58 g/m*3 0.82 C 13.3 km/h
2199 07-03-2012 23:00:00 3.91667 C 5.48 g/m*3 0.2 C 16.36667 km/h
2200 08-03-2012 00:00:00 3.88333 C 5.51 g/m*3 0.48 C 14.36667 km/h
Sensor: Nr:Datum:Temp:Abs-Feuchte:Windchill:Wind:
Aussen-T/F 2201 08-03-2012 01:00:00 3.9 C 5.76 g/m*3 1.61 C 8.875 km/h
2202 08-03-2012 02:00:00 5.125 C 6.2 g/m*3 2.97 C 9.25833 km/h
2203 08-03-2012 03:00:00 5.83333 C 5.98 g/m*3 3.27 C 11.95833 km/h
2204 08-03-2012 04:00:00 5.46667 C 5.8 g/m*3 3.41 C 9.125 km/h
2205 08-03-2012 05:00:00 5.20833 C 5.78 g/m*3 2.81 C 10.475 km/h
2206 08-03-2012 06:00:00 5.05833 C 5.75 g/m*3 2.99 C 8.86667 km/h
2207 08-03-2012 07:00:00 4.95833 C 5.65 g/m*3 2.71 C 9.54167 km/h
2208 08-03-2012 08:00:00 4.86667 C 5.72 g/m*3 2.4 C 10.48333 km/h
2209 08-03-2012 09:00:00 5.125 C 5.81 g/m*3 3.16 C 8.475 km/h
2210 08-03-2012 10:00:00 5.40833 C 5.8 g/m*3 3.21 C 9.68333 km/h
2211 08-03-2012 11:00:00 5.30833 C 5.86 g/m*3 3.19 C 9.26667 km/h
2212 08-03-2012 12:00:00 6.54167 C 5.87 g/m*3 4.45 C 10.225 km/h
2213 08-03-2012 13:00:00 7.55 C 5.47 g/m*3 5.4 C 11.7 km/h
2214 08-03-2012 14:00:00 8.625 C 5 g/m*3 6.72 C 11.55833 km/h
2215 08-03-2012 15:00:00 8.08333 C 4.82 g/m*3 6.02 C 11.83333 km/h
2216 08-03-2012 16:00:00 7.25833 C 4.98 g/m*3 5.59 C 8.85833 km/h
2217 08-03-2012 17:00:00 6.475 C 5.02 g/m*3 5.59 C 5.475 km/h
2218 08-03-2012 18:00:00 5.53333 C 5.3 g/m*3 4.12 C 6.69167 km/h
2219 08-03-2012 19:00:00 3.91667 C 5.32 g/m*3 3.92 C 4.80833 km/h
2220 08-03-2012 20:00:00 4.31667 C 5.62 g/m*3 4.32 C 4.54167 km/h
2221 08-03-2012 21:00:00 3.46667 C 5.46 g/m*3 3.47 C 3.2 km/h
2222 08-03-2012 22:00:00 3.25833 C 5.5 g/m*3 3.26 C 0.93333 km/h
2223 08-03-2012 23:00:00 3.43333 C 5.57 g/m*3 3.43 C 2 km/h
2224 09-03-2012 00:00:00 3.61667 C 5.61 g/m*3 3.62 C 1.2 km/h
2225 09-03-2012 01:00:00 2.59167 C 5.26 g/m*3 2.59 C 2.26667 km/h
Sensor: Nr:Datum:Temp:Abs-Feuchte:Windchill:Wind:
Aussen-T/F 2226 09-03-2012 02:00:00 1.85 C 5.1 g/m*3 1.85 C 3.06667 km/h
2227 09-03-2012 03:00:00 0.96667 C 4.83 g/m*3 0.97 C 2.26667 km/h
2228 09-03-2012 04:00:00 0.45 C 4.73 g/m*3 0.45 C 2.13333 km/h
2229 09-03-2012 05:00:00 0.2 C 4.68 g/m*3 0.2 C 1.2 km/h
2230 09-03-2012 06:00:00 -0.075 C 4.63 g/m*3 -0.08 C 1.46667 km/h
2231 09-03-2012 07:00:00 -0.21667 C 4.58 g/m*3 -0.22 C 1.2 km/h
2232 09-03-2012 08:00:00 -0.14167 C 4.61 g/m*3 -0.14 C 2.4 km/h
2233 09-03-2012 09:00:00 0.43333 C 4.83 g/m*3 0.43 C 1.6 km/h
2234 09-03-2012 10:00:00 1.70833 C 5.28 g/m*3 1.71 C 2.4 km/h
2235 09-03-2012 11:00:00 4.14167 C 5.78 g/m*3 4.14 C 2.26667 km/h
2236 09-03-2012 12:00:00 7.95833 C 5.77 g/m*3 6.89 C 6.85833 km/h
2237 09-03-2012 13:00:00 9.69167 C 5.15 g/m*3 8.57 C 8.35 km/h
2238 09-03-2012 14:00:00 10.81667 C 4.76 g/m*3 9.88 C 8.46667 km/h
2239 09-03-2012 15:00:00 11.61667 C 4.47 g/m*3 11.62 C 7.10833 km/h
2240 09-03-2012 16:00:00 11.55 C 4.58 g/m*3 11.55 C 6.575 km/h
2241 09-03-2012 17:00:00 9.90833 C 5.33 g/m*3 9.91 C 3.73333 km/h
2242 09-03-2012 18:00:00 7.23333 C 5.34 g/m*3 7.23 C 4.93333 km/h
2243 09-03-2012 19:00:00 6.80833 C 5.49 g/m*3 6.81 C 4.13333 km/h
2244 09-03-2012 20:00:00 6.825 C 5.57 g/m*3 6.83 C 3.86667 km/h
2245 09-03-2012 21:00:00 6.79167 C 5.64 g/m*3 6.79 C 4.26667 km/h
2246 09-03-2012 22:00:00 6.30833 C 5.57 g/m*3 6.31 C 4.53333 km/h
2247 09-03-2012 23:00:00 6.19167 C 5.44 g/m*3 6.19 C 4.13333 km/h
2248 10-03-2012 00:00:00 6.675 C 5.3 g/m*3 6.68 C 4.13333 km/h
2249 10-03-2012 01:00:00 6.56667 C 5.42 g/m*3 6.57 C 3.46667 km/h
2250 10-03-2012 02:00:00 6.475 C 5.57 g/m*3 6.48 C 3.73333 km/h
Sensor: Nr:Datum:Temp:Abs-Feuchte:Windchill:Wind:
Aussen-T/F 2251 10-03-2012 03:00:00 6.43333 C 5.57 g/m*3 6.43 C 3.86667 km/h
2252 10-03-2012 04:00:00 6.45833 C 5.56 g/m*3 6.46 C 4 km/h
2253 10-03-2012 05:00:00 6.31667 C 5.66 g/m*3 6.32 C 4.26667 km/h
2254 10-03-2012 06:00:00 6.36667 C 5.67 g/m*3 6.37 C 4.26667 km/h
2255 10-03-2012 07:00:00 6.46667 C 5.65 g/m*3 6.47 C 4.13333 km/h
2256 10-03-2012 08:00:00 7.14167 C 5.83 g/m*3 7.14 C 4.26667 km/h
2257 10-03-2012 09:00:00 8.08333 C 6.03 g/m*3 7.46 C 5.35833 km/h
2258 10-03-2012 10:00:00 9.36667 C 6.45 g/m*3 8.49 C 6.975 km/h
2259 10-03-2012 11:00:00 10.83333 C 6.88 g/m*3 10.61 C 5.33333 km/h
2260 10-03-2012 12:00:00 11.3 C 7.05 g/m*3 11.3 C 3.73333 km/h
2261 10-03-2012 13:00:00 11.25 C 7.43 g/m*3 11.25 C 4.26667 km/h
2262 10-03-2012 14:00:00 11.16667 C 7.85 g/m*3 11.17 C 2.4 km/h
2263 10-03-2012 15:00:00 10.19167 C 8.2 g/m*3 10.19 C 4.94167 km/h
2264 10-03-2012 16:00:00 10.1 C 7.9 g/m*3 9.65 C 5.75 km/h
2265 10-03-2012 17:00:00 10.06 C 7.86 g/m*3 9.78 C 5.13 km/h
2266 10-03-2012 18:00:00 9.625 C 7.92 g/m*3 9.63 C 3.06667 km/h
2267 10-03-2012 19:00:00 9.15714 C 8.1 g/m*3 9.16 C 2.74286 km/h
2268 10-03-2012 20:00:00 9.15 C 8.25 g/m*3 9.15 C 2.8 km/h
2269 10-03-2012 21:00:00 8.86667 C 8.13 g/m*3 8.87 C 1.46667 km/h
2270 10-03-2012 22:00:00 9.025 C 8.12 g/m*3 9.03 C 3.48333 km/h
2271 10-03-2012 23:00:00 9.45833 C 8.06 g/m*3 9.46 C 3.74167 km/h
2272 11-03-2012 00:00:00 8.525 C 7.68 g/m*3 8.53 C 3.33333 km/h
2273 11-03-2012 01:00:00 8.50833 C 7.69 g/m*3 8.51 C 2 km/h
2274 11-03-2012 02:00:00 8.35 C 7.57 g/m*3 8.35 C 2.8 km/h
2275 11-03-2012 03:00:00 8.10833 C 7.49 g/m*3 8.11 C 1.6 km/h
Sensor: Nr:Datum:Temp:Abs-Feuchte:Windchill:Wind:
Aussen-T/F 2276 11-03-2012 04:00:00 8.06667 C 7.59 g/m*3 8.07 C 2.66667 km/h
2277 11-03-2012 05:00:00 7.89167 C 7.63 g/m*3 7.89 C 2.4 km/h
2278 11-03-2012 06:00:00 8.15 C 7.6 g/m*3 8.15 C 2.53333 km/h
2279 11-03-2012 07:00:00 8.35 C 7.55 g/m*3 8.35 C 2.13333 km/h
2280 11-03-2012 08:00:00 8.4 C 7.55 g/m*3 8.4 C 1.6 km/h
2281 11-03-2012 09:00:00 8.76667 C 7.57 g/m*3 8.77 C 4.62222 km/h
2282 11-03-2012 10:00:00 9.35 C 7.6 g/m*3 8.72 C 6.03333 km/h
2283 11-03-2012 11:00:00 10.33333 C 7.64 g/m*3 9.5 C 7.51667 km/h
2284 11-03-2012 12:00:00 10.29167 C 7.58 g/m*3 9.51 C 7.24167 km/h
2285 11-03-2012 13:00:00 10.575 C 7.23 g/m*3 9.42 C 9.425 km/h
2286 11-03-2012 14:00:00 10.69167 C 7.16 g/m*3 10.13 C 6.56667 km/h
2287 11-03-2012 15:00:00 10.6 C 7.27 g/m*3 10.19 C 5.89167 km/h
2288 11-03-2012 16:00:00 10.43333 C 7.25 g/m*3 10.43 C 4.66667 km/h
2289 11-03-2012 17:00:00 10.26667 C 7.2 g/m*3 10.27 C 3.48333 km/h
2290 11-03-2012 18:00:00 9.725 C 7.21 g/m*3 9.73 C 2.53333 km/h
2291 11-03-2012 19:00:00 9.65 C 7.17 g/m*3 9.33 C 5.075 km/h
2292 11-03-2012 20:00:00 9.79167 C 7.18 g/m*3 9.79 C 4.8 km/h
2293 11-03-2012 21:00:00 9.44167 C 7.25 g/m*3 9.44 C 2.53333 km/h
2294 11-03-2012 22:00:00 9.03333 C 7.3 g/m*3 9.03 C 1.33333 km/h
2295 11-03-2012 23:00:00 8.35 C 7.12 g/m*3 8.35 C 3.46667 km/h
2296 12-03-2012 00:00:00 8.075 C 7.08 g/m*3 8.07 C 4.26667 km/h
2297 12-03-2012 01:00:00 7.53333 C 6.85 g/m*3 7.53 C 4.8 km/h
2298 12-03-2012 02:00:00 7.44167 C 6.96 g/m*3 6.64 C 5.63333 km/h
2299 12-03-2012 03:00:00 7.70833 C 7.01 g/m*3 7.71 C 2.93333 km/h
2300 12-03-2012 04:00:00 7.53333 C 7.05 g/m*3 7.53 C 3.875 km/h
Sensor: Nr:Datum:Temp:Abs-Feuchte:Windchill:Wind:
Aussen-T/F 2301 12-03-2012 05:00:00 7.56667 C 7.02 g/m*3 7.57 C 4.54167 km/h
2302 12-03-2012 06:00:00 7.34167 C 7.01 g/m*3 6.58 C 5.48333 km/h
2303 12-03-2012 07:00:00 7.2 C 7.03 g/m*3 7.2 C 4.825 km/h
2304 12-03-2012 08:00:00 7.36667 C 7.08 g/m*3 7.37 C 4.275 km/h
2305 12-03-2012 09:00:00 7.71667 C 7.15 g/m*3 6.61 C 6.84167 km/h
2306 12-03-2012 10:00:00 7.75833 C 7.16 g/m*3 6.27 C 8.475 km/h
2307 12-03-2012 11:00:00 8.075 C 7.18 g/m*3 7.21 C 6.15833 km/h
2308 12-03-2012 12:00:00 8.175 C 7.2 g/m*3 7.08 C 7.10833 km/h
2309 12-03-2012 13:00:00 8.36364 C 7.26 g/m*3 7.59 C 6 km/h
2310 12-03-2012 14:00:00 9.06667 C 7.39 g/m*3 8.59 C 5.35 km/h
2311 12-03-2012 15:00:00 10.075 C 7.4 g/m*3 9.41 C 6.56667 km/h
2312 12-03-2012 16:00:00 9.70833 C 7.45 g/m*3 9.1 C 6.14167 km/h
2313 12-03-2012 17:00:00 9.425 C 7.42 g/m*3 9.43 C 4.54167 km/h
2314 12-03-2012 18:00:00 8.65833 C 7.34 g/m*3 8.21 C 5.075 km/h
2315 12-03-2012 19:00:00 8.18333 C 7.33 g/m*3 8.18 C 4.275 km/h
2316 12-03-2012 20:00:00 7.86 C 7.34 g/m*3 7.86 C 1.28 km/h
2317 12-03-2012 21:00:00 7.4 C 7.24 g/m*3 7.4 C 0 km/h
2318 12-03-2012 22:00:00 7.34167 C 7.24 g/m*3 7.34 C 0 km/h
2319 12-03-2012 23:00:00 7.24167 C 7.23 g/m*3 7.24 C 0 km/h
2320 13-03-2012 00:00:00 7.16667 C 7.21 g/m*3 7.17 C 0 km/h
2321 13-03-2012 01:00:00 7.175 C 7.21 g/m*3 7.18 C 0 km/h
2322 13-03-2012 02:00:00 7.2 C 7.22 g/m*3 7.2 C 0.8 km/h
2323 13-03-2012 03:00:00 7.13333 C 7.19 g/m*3 7.13 C 0.13333 km/h
2324 13-03-2012 04:00:00 6.70833 C 7.06 g/m*3 6.71 C 0.26667 km/h
2325 13-03-2012 05:00:00 6.8 C 7.14 g/m*3 6.8 C 0.4 km/h
Sensor: Nr:Datum:Temp:Abs-Feuchte:Windchill:Wind:
Aussen-T/F 2326 13-03-2012 06:00:00 6.86667 C 7.15 g/m*3 6.87 C 0.53333 km/h
2327 13-03-2012 07:00:00 7 C 7.24 g/m*3 7 C 0.53333 km/h
2328 13-03-2012 08:00:00 7.41667 C 7.38 g/m*3 7.42 C 0.8 km/h
2329 13-03-2012 09:00:00 7.68333 C 7.03 g/m*3 6.5 C 7.13333 km/h
2330 13-03-2012 10:00:00 7.76667 C 6.68 g/m*3 6.71 C 6.7 km/h
2331 13-03-2012 11:00:00 7.95833 C 6.52 g/m*3 7.04 C 6.3 km/h
2332 13-03-2012 12:00:00 8.13333 C 6.56 g/m*3 7.53 C 5.34167 km/h
2333 13-03-2012 13:00:00 8.38333 C 6.58 g/m*3 8.38 C 4.66667 km/h
2334 13-03-2012 14:00:00 8.56667 C 6.59 g/m*3 8.57 C 4 km/h
2335 13-03-2012 15:00:00 8.65833 C 6.59 g/m*3 8.66 C 4.8 km/h
2336 13-03-2012 16:00:00 8.7 C 6.51 g/m*3 8.7 C 4.54167 km/h
2337 13-03-2012 17:00:00 8.63333 C 6.47 g/m*3 8.63 C 3.73333 km/h
2338 13-03-2012 18:00:00 8.34167 C 6.4 g/m*3 8.34 C 2.53333 km/h
2339 13-03-2012 19:00:00 7.96667 C 6.42 g/m*3 7.97 C 1.46667 km/h
2340 13-03-2012 20:00:00 7.76667 C 6.37 g/m*3 7.77 C 1.86667 km/h
2341 13-03-2012 21:00:00 7.61667 C 6.28 g/m*3 7.62 C 4.13333 km/h
2342 13-03-2012 22:00:00 7.51667 C 6.21 g/m*3 7.52 C 3.33333 km/h
2343 13-03-2012 23:00:00 7.23333 C 6.21 g/m*3 7.23 C 1.73333 km/h
2344 14-03-2012 00:00:00 6.925 C 6.26 g/m*3 6.93 C 1.46667 km/h
2345 14-03-2012 01:00:00 6.825 C 6.19 g/m*3 6.83 C 1.6 km/h
2346 14-03-2012 02:00:00 6.675 C 6.23 g/m*3 6.68 C 0.93333 km/h
2347 14-03-2012 03:00:00 6.40833 C 6.16 g/m*3 6.41 C 0.4 km/h
2348 14-03-2012 04:00:00 6.24167 C 6.17 g/m*3 6.24 C 0.13333 km/h
2349 14-03-2012 05:00:00 6.15833 C 6.17 g/m*3 6.16 C 0.26667 km/h
2350 14-03-2012 06:00:00 6.09167 C 6.16 g/m*3 6.09 C 0.13333 km/h
Sensor: Nr:Datum:Temp:Abs-Feuchte:Windchill:Wind:
Aussen-T/F 2351 14-03-2012 07:00:00 6.06667 C 6.14 g/m*3 6.07 C 0 km/h
2352 14-03-2012 08:00:00 6.49167 C 6.05 g/m*3 6.49 C 1.33333 km/h
2353 14-03-2012 09:00:00 6.88333 C 6.06 g/m*3 6.88 C 3.06667 km/h
2354 14-03-2012 10:00:00 7.25 C 6.08 g/m*3 7.25 C 3.875 km/h
2355 14-03-2012 11:00:00 7.69167 C 6.11 g/m*3 7.69 C 4.53333 km/h
2356 14-03-2012 12:00:00 8.15 C 6.16 g/m*3 8.15 C 4.53333 km/h
2357 14-03-2012 13:00:00 8.64167 C 6.22 g/m*3 7.98 C 5.74167 km/h
2358 14-03-2012 14:00:00 10.10833 C 6.31 g/m*3 9.56 C 6.14167 km/h
2359 14-03-2012 15:00:00 10.56667 C 6.3 g/m*3 10.16 C 5.875 km/h
2360 14-03-2012 16:00:00 11.10833 C 6.27 g/m*3 11.11 C 4.66667 km/h
2361 14-03-2012 17:00:00 10.85 C 6.27 g/m*3 10.85 C 3.06667 km/h
2362 14-03-2012 18:00:00 7.75833 C 6.19 g/m*3 7.76 C 3.2 km/h
2363 14-03-2012 19:00:00 5.675 C 5.91 g/m*3 5.68 C 3.33333 km/h
2364 14-03-2012 20:00:00 4.71667 C 5.72 g/m*3 4.72 C 3.33333 km/h
2365 14-03-2012 21:00:00 3.83333 C 5.56 g/m*3 3.83 C 1.73333 km/h
2366 14-03-2012 22:00:00 3.025 C 5.36 g/m*3 3.03 C 1.33333 km/h
2367 14-03-2012 23:00:00 2.30833 C 5.2 g/m*3 2.31 C 0.66667 km/h
2368 15-03-2012 00:00:00 1.75 C 5.07 g/m*3 1.75 C 1.06667 km/h
2369 15-03-2012 01:00:00 1.13333 C 4.91 g/m*3 1.13 C 0 km/h
2370 15-03-2012 02:00:00 0.66667 C 4.77 g/m*3 0.67 C 0.13333 km/h
2371 15-03-2012 03:00:00 0.23333 C 4.67 g/m*3 0.23 C 0 km/h
2372 15-03-2012 04:00:00 -0.16667 C 4.55 g/m*3 -0.17 C 0.26667 km/h
2373 15-03-2012 05:00:00 -0.25 C 4.56 g/m*3 -0.25 C 0.8 km/h
2374 15-03-2012 06:00:00 -0.31667 C 4.55 g/m*3 -0.32 C 1.73333 km/h
2375 15-03-2012 07:00:00 -0.28333 C 4.56 g/m*3 -0.28 C 0.66667 km/h
Sensor: Nr:Datum:Temp:Abs-Feuchte:Windchill:Wind:
Aussen-T/F 2376 15-03-2012 08:00:00 0.05833 C 4.7 g/m*3 0.06 C 2.13333 km/h
2377 15-03-2012 09:00:00 0.8 C 4.97 g/m*3 0.8 C 2.53333 km/h
2378 15-03-2012 10:00:00 2.74167 C 5.67 g/m*3 2.74 C 2.26667 km/h
2379 15-03-2012 11:00:00 5.66667 C 6.51 g/m*3 5.67 C 1.86667 km/h
2380 15-03-2012 12:00:00 10.68333 C 7.26 g/m*3 10.68 C 1.86667 km/h
2381 15-03-2012 13:00:00 15.08333 C 7.43 g/m*3 15.08 C 3.2 km/h
2382 15-03-2012 14:00:00 17.86667 C 7.33 g/m*3 17.87 C 3.73333 km/h
2383 15-03-2012 15:00:00 19.1 C 7.42 g/m*3 19.1 C 3.2 km/h
2384 15-03-2012 16:00:00 19.05 C 7.48 g/m*3 19.05 C 3.46667 km/h
2385 15-03-2012 17:00:00 17.06667 C 7.37 g/m*3 17.07 C 5.35 km/h
2386 15-03-2012 18:00:00 13.825 C 7.18 g/m*3 13.83 C 6.00833 km/h
2387 15-03-2012 19:00:00 11.71667 C 6.93 g/m*3 11.72 C 5.20833 km/h
2388 15-03-2012 20:00:00 9.89167 C 6.89 g/m*3 9.89 C 4.8 km/h
2389 15-03-2012 21:00:00 8.95 C 6.74 g/m*3 8.95 C 3.86667 km/h
2390 15-03-2012 22:00:00 7.86667 C 6.56 g/m*3 7.87 C 3.06667 km/h
2391 15-03-2012 23:00:00 6.74167 C 6.3 g/m*3 6.74 C 1.2 km/h
2392 16-03-2012 00:00:00 5.24167 C 5.96 g/m*3 5.24 C 0.53333 km/h
2393 16-03-2012 01:00:00 4.4 C 5.8 g/m*3 4.4 C 0.26667 km/h
2394 16-03-2012 02:00:00 3.63333 C 5.62 g/m*3 3.63 C 0.26667 km/h
2395 16-03-2012 03:00:00 3.00833 C 5.48 g/m*3 3.01 C 0.66667 km/h
2396 16-03-2012 04:00:00 2.61667 C 5.41 g/m*3 2.62 C 0.66667 km/h
2397 16-03-2012 05:00:00 1.98333 C 5.21 g/m*3 1.98 C 1.2 km/h
2398 16-03-2012 06:00:00 1.60833 C 5.11 g/m*3 1.61 C 1.33333 km/h
2399 16-03-2012 07:00:00 1.74167 C 5.2 g/m*3 1.74 C 0.53333 km/h
2400 16-03-2012 08:00:00 2.60833 C 5.5 g/m*3 2.61 C 1.33333 km/h
Sensor: Nr:Datum:Temp:Abs-Feuchte:Windchill:Wind:
Aussen-T/F 2401 16-03-2012 09:00:00 4.31667 C 6.03 g/m*3 4.32 C 1.06667 km/h
2402 16-03-2012 10:00:00 7.85 C 7.03 g/m*3 7.85 C 1.33333 km/h
2403 16-03-2012 11:00:00 12.29167 C 7.74 g/m*3 12.29 C 3.875 km/h
2404 16-03-2012 12:00:00 17.71667 C 7.19 g/m*3 17.72 C 6.28333 km/h
2405 16-03-2012 13:00:00 20.20833 C 6.4 g/m*3 20.21 C 6.425 km/h
2406 16-03-2012 14:00:00 21.725 C 5.91 g/m*3 21.73 C 6.28333 km/h
2407 16-03-2012 15:00:00 22.35833 C 5.91 g/m*3 22.36 C 6.55833 km/h
2408 16-03-2012 16:00:00 22.6 C 5.73 g/m*3 22.6 C 6.01667 km/h
2409 16-03-2012 17:00:00 19.98333 C 6.2 g/m*3 19.98 C 5.075 km/h
2410 16-03-2012 18:00:00 15.11429 C 6.55 g/m*3 15.11 C 5.02857 km/h
2411 16-03-2012 19:00:00 13.34167 C 6.47 g/m*3 13.34 C 4 km/h
2412 16-03-2012 20:00:00 11.46667 C 6.39 g/m*3 11.47 C 2 km/h
2413 16-03-2012 21:00:00 9.91667 C 6.25 g/m*3 9.92 C 1.2 km/h
2414 16-03-2012 22:00:00 8.86667 C 6.08 g/m*3 8.87 C 0.93333 km/h
2415 16-03-2012 23:00:00 7.93333 C 6.01 g/m*3 7.93 C 0 km/h
2416 17-03-2012 00:00:00 6.65 C 5.98 g/m*3 6.65 C 0.8 km/h
2417 17-03-2012 01:00:00 6.05 C 5.95 g/m*3 6.05 C 1.06667 km/h
2418 17-03-2012 02:00:00 5.49167 C 5.9 g/m*3 5.49 C 1.2 km/h
2419 17-03-2012 03:00:00 4.9 C 5.81 g/m*3 4.9 C 0.26667 km/h
2420 17-03-2012 04:00:00 4.35833 C 5.75 g/m*3 4.36 C 1.73333 km/h
2421 17-03-2012 05:00:00 4.3 C 5.77 g/m*3 4.3 C 1.73333 km/h
2422 17-03-2012 06:00:00 4.10833 C 5.72 g/m*3 4.11 C 0.66667 km/h
2423 17-03-2012 07:00:00 3.59167 C 5.63 g/m*3 3.59 C 0.53333 km/h
2424 17-03-2012 08:00:00 4.40833 C 5.96 g/m*3 4.41 C 0.4 km/h
2425 17-03-2012 09:00:00 6.60833 C 6.55 g/m*3 6.61 C 0.66667 km/h
Sensor: Nr:Datum:Temp:Abs-Feuchte:Windchill:Wind:
Aussen-T/F 2426 17-03-2012 10:00:00 11.48333 C 6.66 g/m*3 11.48 C 5.49167 km/h
2427 17-03-2012 11:00:00 15.525 C 5.79 g/m*3 15.53 C 11.43333 km/h
2428 17-03-2012 12:00:00 16.83333 C 6.11 g/m*3 16.83 C 11.28333 km/h
2429 17-03-2012 13:00:00 16.64167 C 6.76 g/m*3 16.64 C 12.5 km/h
2430 17-03-2012 14:00:00 15.66667 C 7.13 g/m*3 15.67 C 13.43333 km/h
2431 17-03-2012 15:00:00 15.01667 C 7.75 g/m*3 15.02 C 14.63333 km/h
2432 17-03-2012 16:00:00 13.25833 C 7.67 g/m*3 13.26 C 15.16667 km/h
2433 17-03-2012 17:00:00 12.45 C 7.68 g/m*3 12.45 C 9.80833 km/h
2434 17-03-2012 18:00:00 12.01667 C 7.73 g/m*3 12.02 C 7.25 km/h
2435 17-03-2012 19:00:00 10.61667 C 7.64 g/m*3 10.62 C 3.6 km/h
2436 17-03-2012 20:00:00 10 C 7.61 g/m*3 10 C 3.86667 km/h
2437 17-03-2012 21:00:00 8.925 C 7.39 g/m*3 8.93 C 4 km/h
2438 17-03-2012 22:00:00 8.675 C 7.37 g/m*3 8.68 C 3.73333 km/h
2439 17-03-2012 23:00:00 8.725 C 7.38 g/m*3 8.73 C 3.86667 km/h
2440 18-03-2012 00:00:00 8.70833 C 7.33 g/m*3 8.71 C 2.26667 km/h
2441 18-03-2012 01:00:00 8.18333 C 7.31 g/m*3 8.18 C 0.93333 km/h
2442 18-03-2012 02:00:00 8.23333 C 7.46 g/m*3 8.23 C 2 km/h
2443 18-03-2012 03:00:00 8.48333 C 7.83 g/m*3 8.48 C 2.4 km/h
2444 18-03-2012 04:00:00 8.63333 C 8.07 g/m*3 8.63 C 2.93333 km/h
2445 18-03-2012 05:00:00 8.34167 C 7.98 g/m*3 8.34 C 2.26667 km/h
2446 18-03-2012 06:00:00 8.8 C 7.91 g/m*3 7.71 C 7.49167 km/h
2447 18-03-2012 07:00:00 8.93333 C 7.82 g/m*3 8.93 C 2.8 km/h
2448 18-03-2012 08:00:00 8.74167 C 8.01 g/m*3 8.74 C 1.46667 km/h
2449 18-03-2012 09:00:00 9.35 C 8.14 g/m*3 9.35 C 3.875 km/h
2450 18-03-2012 10:00:00 10.09167 C 8.05 g/m*3 9.47 C 6.41667 km/h
Sensor: Nr:Datum:Temp:Abs-Feuchte:Windchill:Wind:
Aussen-T/F 2451 18-03-2012 11:00:00 10.375 C 7.75 g/m*3 9.73 C 6.7 km/h
2452 18-03-2012 12:00:00 10.175 C 7.35 g/m*3 9.17 C 8.2 km/h
2453 18-03-2012 13:00:00 10.25 C 7.14 g/m*3 8.92 C 10.075 km/h
2454 18-03-2012 14:00:00 10.14167 C 6.87 g/m*3 9.05 C 8.6 km/h
2455 18-03-2012 15:00:00 10.15833 C 6.54 g/m*3 9.23 C 7.80833 km/h
2456 18-03-2012 16:00:00 10.19167 C 6.4 g/m*3 9.65 C 6.15 km/h
2457 18-03-2012 17:00:00 9.76667 C 6.53 g/m*3 9.77 C 3.20833 km/h
2458 18-03-2012 18:00:00 7.90833 C 6.77 g/m*3 7.91 C 3.2 km/h
2459 18-03-2012 19:00:00 6.70833 C 6.56 g/m*3 6.71 C 3.2 km/h
2460 18-03-2012 20:00:00 6.09167 C 6.32 g/m*3 6.09 C 3.46667 km/h
2461 18-03-2012 21:00:00 6 C 6.47 g/m*3 6 C 3.06667 km/h
2462 18-03-2012 22:00:00 6.89167 C 6.34 g/m*3 6.89 C 3.6 km/h
2463 18-03-2012 23:00:00 6.425 C 6.36 g/m*3 6.43 C 3.06667 km/h
2464 19-03-2012 00:00:00 6.175 C 6.41 g/m*3 6.18 C 2 km/h
2465 19-03-2012 01:00:00 6.08333 C 6.38 g/m*3 6.08 C 1.33333 km/h
2466 19-03-2012 02:00:00 5.63333 C 6.23 g/m*3 5.63 C 2.8 km/h
2467 19-03-2012 03:00:00 5.525 C 6.16 g/m*3 5.53 C 2.93333 km/h
2468 19-03-2012 04:00:00 4.41667 C 5.98 g/m*3 4.42 C 2.93333 km/h
2469 19-03-2012 05:00:00 4.33333 C 6 g/m*3 4.33 C 1.6 km/h
2470 19-03-2012 06:00:00 4.26667 C 6.03 g/m*3 4.27 C 0.93333 km/h
2471 19-03-2012 07:00:00 4.375 C 6.01 g/m*3 4.38 C 0.13333 km/h
2472 19-03-2012 08:00:00 5.17273 C 6.05 g/m*3 5.17 C 1.01818 km/h
2473 19-03-2012 09:00:00 6.49167 C 6.11 g/m*3 6.49 C 4.81667 km/h
2474 19-03-2012 10:00:00 7.5 C 6.01 g/m*3 6.4 C 6.70833 km/h
2475 19-03-2012 11:00:00 8.19167 C 5.51 g/m*3 7.27 C 6.43333 km/h
Sensor: Nr:Datum:Temp:Abs-Feuchte:Windchill:Wind:
Aussen-T/F 2476 19-03-2012 12:00:00 9.00833 C 5.2 g/m*3 7.77 C 8.33333 km/h
2477 19-03-2012 13:00:00 9.525 C 5.1 g/m*3 8.52 C 7.65833 km/h
2478 19-03-2012 14:00:00 10.53333 C 5.04 g/m*3 9.59 C 8.20833 km/h
2479 19-03-2012 15:00:00 11.41667 C 4.91 g/m*3 11.42 C 6.96667 km/h
2480 19-03-2012 16:00:00 11.48333 C 4.73 g/m*3 11.48 C 6.96667 km/h
2481 19-03-2012 17:00:00 10.98333 C 4.52 g/m*3 10.32 C 7.24167 km/h
2482 19-03-2012 18:00:00 9.48333 C 4.3 g/m*3 9.15 C 5.075 km/h
2483 19-03-2012 19:00:00 7.35 C 4.6 g/m*3 7.35 C 3.6 km/h
2484 19-03-2012 20:00:00 5.64 C 4.88 g/m*3 5.64 C 3.52 km/h
2485 20-03-2012 00:00:00 1.45714 C 4.55 g/m*3 1.46 C 1.6 km/h
2486 20-03-2012 01:00:00 0.84 C 4.46 g/m*3 0.84 C 0.96 km/h
2487 20-03-2012 02:00:00 0.40833 C 4.4 g/m*3 0.41 C 2.13333 km/h
2488 20-03-2012 03:00:00 -0.12727 C 4.3 g/m*3 -0.13 C 0.58182 km/h
2489 20-03-2012 04:00:00 -0.4 C 4.24 g/m*3 -0.4 C 0 km/h
2490 20-03-2012 07:00:00 -0.9 C 4.21 g/m*3 -0.9 C 0.45714 km/h
2491 20-03-2012 08:00:00 0.02222 C 4.44 g/m*3 0.02 C 0.71111 km/h
2492 20-03-2012 09:00:00 1.6 C 4.77 g/m*3 1.6 C 1.6 km/h
2493 20-03-2012 10:00:00 4.78333 C 5.3 g/m*3 4.78 C 1.2 km/h
2494 20-03-2012 11:00:00 8.075 C 5.5 g/m*3 8.07 C 1.73333 km/h
2495 20-03-2012 12:00:00 10.75 C 5.48 g/m*3 10.55 C 5.20833 km/h
2496 20-03-2012 13:00:00 12.64167 C 5.23 g/m*3 12.64 C 5.06667 km/h
2497 20-03-2012 14:00:00 13.85833 C 5.16 g/m*3 13.86 C 5.475 km/h
2498 20-03-2012 15:00:00 14.475 C 4.69 g/m*3 14.48 C 5.75833 km/h
2499 20-03-2012 16:00:00 14.68333 C 4.35 g/m*3 14.68 C 4.66667 km/h
2500 20-03-2012 17:00:00 13.53333 C 4.98 g/m*3 13.53 C 3.2 km/h
Sensor: Nr:Datum:Temp:Abs-Feuchte:Windchill:Wind:
Aussen-T/F 2501 20-03-2012 18:00:00 9.55833 C 5.51 g/m*3 9.56 C 4.66667 km/h
2502 20-03-2012 19:00:00 7.825 C 5.37 g/m*3 7.83 C 4.53333 km/h
2503 20-03-2012 20:00:00 7.20833 C 5.36 g/m*3 7.21 C 2.53333 km/h
2504 20-03-2012 21:00:00 5.975 C 5.25 g/m*3 5.98 C 2.26667 km/h
2505 20-03-2012 22:00:00 5.125 C 5.1 g/m*3 5.13 C 1.86667 km/h
2506 20-03-2012 23:00:00 4.325 C 5.01 g/m*3 4.33 C 1.73333 km/h
2507 21-03-2012 00:00:00 3.2 C 4.87 g/m*3 3.2 C 0.66667 km/h
2508 21-03-2012 01:00:00 2.53333 C 4.76 g/m*3 2.53 C 1.06667 km/h
2509 21-03-2012 02:00:00 2.00833 C 4.69 g/m*3 2.01 C 3.06667 km/h
2510 21-03-2012 03:00:00 1.43333 C 4.58 g/m*3 1.43 C 1.33333 km/h
2511 21-03-2012 04:00:00 0.675 C 4.47 g/m*3 0.68 C 0.93333 km/h
2512 21-03-2012 05:00:00 0.26667 C 4.43 g/m*3 0.27 C 1.33333 km/h
2513 21-03-2012 06:00:00 -0.10833 C 4.36 g/m*3 -0.11 C 0.8 km/h
2514 21-03-2012 07:00:00 0 C 4.42 g/m*3 0 C 0.4 km/h
2515 21-03-2012 08:00:00 0.8 C 4.65 g/m*3 0.8 C 0 km/h
2516 21-03-2012 09:00:00 3.04167 C 5.06 g/m*3 3.04 C 0 km/h
2517 21-03-2012 10:00:00 6.20833 C 5.48 g/m*3 6.21 C 1.06667 km/h
2518 21-03-2012 11:00:00 9.9 C 5.89 g/m*3 9.9 C 2.8 km/h
2519 21-03-2012 12:00:00 13.84167 C 6.1 g/m*3 13.84 C 4.53333 km/h
2520 21-03-2012 13:00:00 16.35 C 5.87 g/m*3 16.35 C 5.08333 km/h
2521 21-03-2012 14:00:00 17.825 C 5.26 g/m*3 17.83 C 7.64167 km/h
2522 21-03-2012 15:00:00 18.26667 C 5.14 g/m*3 18.27 C 8.6 km/h
2523 21-03-2012 16:00:00 18.46667 C 5.46 g/m*3 18.47 C 7.24167 km/h
2524 21-03-2012 17:00:00 17.7 C 5.62 g/m*3 17.7 C 5.075 km/h
2525 21-03-2012 18:00:00 13.58333 C 6.16 g/m*3 13.58 C 4.93333 km/h
Sensor: Nr:Datum:Temp:Abs-Feuchte:Windchill:Wind:
Aussen-T/F 2526 21-03-2012 19:00:00 10.53636 C 6.19 g/m*3 10.54 C 4.8 km/h
2527 21-03-2012 20:00:00 9.13333 C 6.34 g/m*3 9.13 C 3.2 km/h
2528 21-03-2012 21:00:00 8.10833 C 6.29 g/m*3 8.11 C 1.6 km/h
2529 21-03-2012 22:00:00 6.8 C 5.99 g/m*3 6.8 C 0 km/h
2530 21-03-2012 23:00:00 5.4 C 5.79 g/m*3 5.4 C 1.33333 km/h
2531 22-03-2012 00:00:00 4.875 C 5.67 g/m*3 4.88 C 1.86667 km/h
2532 22-03-2012 01:00:00 3.93333 C 5.45 g/m*3 3.93 C 0.8 km/h
2533 22-03-2012 02:00:00 3.06667 C 5.29 g/m*3 3.07 C 0.53333 km/h
2534 22-03-2012 03:00:00 2.45 C 5.17 g/m*3 2.45 C 0.66667 km/h
2535 22-03-2012 04:00:00 2.05 C 5.09 g/m*3 2.05 C 0.93333 km/h
2536 22-03-2012 05:00:00 1.525 C 4.91 g/m*3 1.53 C 0 km/h
2537 22-03-2012 06:00:00 1.19167 C 4.87 g/m*3 1.19 C 0.4 km/h
2538 22-03-2012 07:00:00 1.38182 C 4.95 g/m*3 1.38 C 0.58182 km/h
2539 22-03-2012 08:00:00 2.33333 C 5.28 g/m*3 2.33 C 0.26667 km/h
2540 22-03-2012 09:00:00 4.68333 C 6.08 g/m*3 4.68 C 0 km/h
2541 22-03-2012 10:00:00 8.65 C 7.2 g/m*3 8.65 C 0.66667 km/h
2542 22-03-2012 11:00:00 13.075 C 7.73 g/m*3 13.08 C 3.86667 km/h
2543 22-03-2012 12:00:00 16.75833 C 7.8 g/m*3 16.76 C 4.14167 km/h
2544 22-03-2012 13:00:00 19.46667 C 6.87 g/m*3 19.47 C 9.95833 km/h
2545 22-03-2012 14:00:00 20.275 C 6.83 g/m*3 20.27 C 7.78333 km/h
2546 22-03-2012 15:00:00 20.66667 C 6.62 g/m*3 20.67 C 9.4 km/h
2547 22-03-2012 16:00:00 20.425 C 6.67 g/m*3 20.43 C 9.01667 km/h
2548 22-03-2012 17:00:00 19.61667 C 6.94 g/m*3 19.62 C 7.8 km/h
2549 22-03-2012 18:00:00 16.33333 C 7.3 g/m*3 16.33 C 5.20833 km/h
2550 22-03-2012 19:00:00 13.275 C 7.22 g/m*3 13.28 C 5.06667 km/h
Sensor: Nr:Datum:Temp:Abs-Feuchte:Windchill:Wind:
Aussen-T/F 2551 22-03-2012 20:00:00 12.33333 C 7.42 g/m*3 12.33 C 6.01667 km/h
2552 22-03-2012 21:00:00 11.58333 C 7.49 g/m*3 11.58 C 4.93333 km/h
2553 22-03-2012 22:00:00 10.85833 C 7.51 g/m*3 10.67 C 5.2 km/h
2554 22-03-2012 23:00:00 10.30833 C 7.48 g/m*3 10.05 C 5.2 km/h
2555 23-03-2012 00:00:00 9.36667 C 7.43 g/m*3 9.37 C 4.8 km/h
2556 23-03-2012 01:00:00 8.65 C 7.32 g/m*3 8.65 C 4.13333 km/h
2557 23-03-2012 02:00:00 8.04167 C 7.19 g/m*3 8.04 C 2.13333 km/h
2558 23-03-2012 03:00:00 6.63333 C 6.77 g/m*3 6.63 C 1.33333 km/h
2559 23-03-2012 04:00:00 5.70833 C 6.55 g/m*3 5.71 C 0.66667 km/h
2560 23-03-2012 05:00:00 5.20833 C 6.42 g/m*3 5.21 C 0.93333 km/h
2561 23-03-2012 06:00:00 4.525 C 6.19 g/m*3 4.53 C 0.4 km/h
2562 23-03-2012 07:00:00 4.60833 C 6.29 g/m*3 4.61 C 0 km/h
2563 23-03-2012 08:00:00 5.3 C 6.58 g/m*3 5.3 C 0 km/h
2564 23-03-2012 09:00:00 7.46667 C 7.41 g/m*3 7.47 C 0.26667 km/h
2565 23-03-2012 10:00:00 10.925 C 8.16 g/m*3 10.93 C 1.86667 km/h
2566 23-03-2012 11:00:00 14.39167 C 8.57 g/m*3 14.39 C 3.33333 km/h
2567 23-03-2012 12:00:00 17.40833 C 8.55 g/m*3 17.41 C 4.13333 km/h
2568 23-03-2012 13:00:00 19.40833 C 7.96 g/m*3 19.41 C 5.60833 km/h
2569 23-03-2012 14:00:00 20.35833 C 7.43 g/m*3 20.36 C 7.25 km/h
2570 23-03-2012 15:00:00 20.79167 C 6.95 g/m*3 20.79 C 7.66667 km/h
2571 23-03-2012 16:00:00 21.10833 C 6.7 g/m*3 21.11 C 6.84167 km/h
2572 23-03-2012 17:00:00 20.45833 C 6.75 g/m*3 20.46 C 4.40833 km/h
2573 23-03-2012 18:00:00 16.25 C 7.42 g/m*3 16.25 C 4.53333 km/h
2574 23-03-2012 19:00:00 13.26667 C 7.24 g/m*3 13.27 C 4.8 km/h
2575 23-03-2012 20:00:00 11.76667 C 7.17 g/m*3 11.77 C 3.46667 km/h
Sensor: Nr:Datum:Temp:Abs-Feuchte:Windchill:Wind:
Aussen-T/F 2576 23-03-2012 21:00:00 10.71667 C 7.05 g/m*3 10.72 C 1.6 km/h
2577 23-03-2012 22:00:00 9.6 C 6.9 g/m*3 9.6 C 0.53333 km/h
2578 23-03-2012 23:00:00 8.63333 C 6.79 g/m*3 8.63 C 0.26667 km/h
2579 24-03-2012 00:00:00 7.71667 C 6.62 g/m*3 7.72 C 0.26667 km/h
2580 24-03-2012 01:00:00 6.83333 C 6.5 g/m*3 6.83 C 1.06667 km/h
2581 24-03-2012 02:00:00 6.40833 C 6.44 g/m*3 6.41 C 0.13333 km/h
2582 24-03-2012 03:00:00 5.625 C 6.26 g/m*3 5.63 C 0.26667 km/h
2583 24-03-2012 04:00:00 4.98333 C 6.14 g/m*3 4.98 C 0.26667 km/h
2584 24-03-2012 05:00:00 4.51667 C 6.03 g/m*3 4.52 C 0.4 km/h
2585 24-03-2012 06:00:00 4.06667 C 5.92 g/m*3 4.07 C 0.53333 km/h
2586 24-03-2012 07:00:00 4.18333 C 6.02 g/m*3 4.18 C 0.4 km/h
2587 24-03-2012 08:00:00 4.99167 C 6.35 g/m*3 4.99 C 0 km/h
2588 24-03-2012 09:00:00 7.31667 C 7.13 g/m*3 7.32 C 0.26667 km/h
2589 24-03-2012 10:00:00 10.925 C 7.85 g/m*3 10.93 C 0.93333 km/h
2590 24-03-2012 11:00:00 14.59167 C 8.1 g/m*3 14.59 C 2.66667 km/h
2591 24-03-2012 12:00:00 17.525 C 7.99 g/m*3 17.52 C 4.26667 km/h
2592 24-03-2012 13:00:00 18.95 C 7.61 g/m*3 18.95 C 7.79167 km/h
2593 24-03-2012 14:00:00 20.15833 C 7.25 g/m*3 20.16 C 6.56667 km/h
2594 24-03-2012 15:00:00 21.1 C 7.06 g/m*3 21.1 C 6.03333 km/h
2595 24-03-2012 16:00:00 20.91667 C 6.62 g/m*3 20.92 C 5.76667 km/h
2596 24-03-2012 17:00:00 20.16667 C 6.88 g/m*3 20.17 C 2.93333 km/h
2597 24-03-2012 18:00:00 15.95833 C 7.41 g/m*3 15.96 C 4.8 km/h
2598 24-03-2012 19:00:00 14.15833 C 7.48 g/m*3 14.16 C 5.06667 km/h
2599 24-03-2012 20:00:00 13.4 C 7.86 g/m*3 13.4 C 4.66667 km/h
2600 24-03-2012 21:00:00 12.49167 C 7.93 g/m*3 12.49 C 3.33333 km/h
Sensor: Nr:Datum:Temp:Abs-Feuchte:Windchill:Wind:
Aussen-T/F 2601 24-03-2012 22:00:00 11.6 C 7.83 g/m*3 11.6 C 2.13333 km/h
2602 24-03-2012 23:00:00 10.45833 C 7.59 g/m*3 10.46 C 0.93333 km/h
2603 25-03-2012 00:00:00 9.20833 C 7.13 g/m*3 9.21 C 0.8 km/h
2604 25-03-2012 01:00:00 8.51667 C 7.16 g/m*3 8.52 C 0.26667 km/h
2605 25-03-2012 02:00:00 7.60833 C 6.94 g/m*3 7.61 C 0.26667 km/h
2606 25-03-2012 04:00:00 6.96667 C 6.86 g/m*3 6.97 C 1.06667 km/h
2607 25-03-2012 05:00:00 6.47273 C 6.73 g/m*3 6.47 C 0.14545 km/h
2608 25-03-2012 06:00:00 5.84167 C 6.58 g/m*3 5.84 C 0.4 km/h
2609 25-03-2012 07:00:00 5.31667 C 6.44 g/m*3 5.32 C 0.13333 km/h
2610 25-03-2012 08:00:00 5.35833 C 6.53 g/m*3 5.36 C 0.26667 km/h
2611 25-03-2012 09:00:00 6.23333 C 6.92 g/m*3 6.23 C 0.13333 km/h
2612 25-03-2012 10:00:00 8.625 C 7.7 g/m*3 8.63 C 0 km/h
2613 25-03-2012 11:00:00 12.275 C 8.38 g/m*3 12.28 C 1.86667 km/h
2614 25-03-2012 12:00:00 15.39167 C 8.48 g/m*3 15.39 C 2.8 km/h
2615 25-03-2012 13:00:00 18.55833 C 7.98 g/m*3 18.56 C 3.73333 km/h
2616 25-03-2012 14:00:00 20.25833 C 7.16 g/m*3 20.26 C 5.225 km/h
2617 25-03-2012 15:00:00 21.83333 C 6.01 g/m*3 21.83 C 6.84167 km/h
2618 25-03-2012 16:00:00 22.375 C 5.26 g/m*3 22.38 C 6.29167 km/h
2619 25-03-2012 17:00:00 22.65 C 4.77 g/m*3 22.65 C 8.725 km/h
2620 25-03-2012 18:00:00 21.68333 C 4.03 g/m*3 21.68 C 9.28333 km/h
2621 25-03-2012 19:00:00 19.525 C 4.29 g/m*3 19.52 C 6.29167 km/h
2622 25-03-2012 20:00:00 14.525 C 5.25 g/m*3 14.53 C 5.06667 km/h
2623 25-03-2012 21:00:00 13.05 C 5.09 g/m*3 13.05 C 6.15833 km/h
2624 25-03-2012 22:00:00 11.53333 C 5.34 g/m*3 11.53 C 5.46667 km/h
2625 25-03-2012 23:00:00 10.26667 C 5.55 g/m*3 10.27 C 4.4 km/h
Sensor: Nr:Datum:Temp:Abs-Feuchte:Windchill:Wind:
Aussen-T/F 2626 26-03-2012 00:00:00 9.44167 C 5.61 g/m*3 9.44 C 3.6 km/h
2627 26-03-2012 01:00:00 8.13333 C 5.65 g/m*3 8.13 C 1.73333 km/h
2628 26-03-2012 02:00:00 6.725 C 5.48 g/m*3 6.73 C 1.86667 km/h
2629 26-03-2012 03:00:00 5.9 C 5.32 g/m*3 5.9 C 1.46667 km/h
2630 26-03-2012 04:00:00 4.9 C 5.27 g/m*3 4.9 C 0.66667 km/h
2631 26-03-2012 05:00:00 4.24167 C 5.21 g/m*3 4.24 C 1.73333 km/h
2632 26-03-2012 06:00:00 3.75833 C 5.14 g/m*3 3.76 C 1.06667 km/h
2633 26-03-2012 07:00:00 3.08333 C 5.07 g/m*3 3.08 C 0.26667 km/h
2634 26-03-2012 08:00:00 3.29167 C 5.2 g/m*3 3.29 C 0.53333 km/h
2635 26-03-2012 09:00:00 4.33333 C 5.49 g/m*3 4.33 C 0.66667 km/h
2636 26-03-2012 10:00:00 6.86667 C 6.14 g/m*3 6.87 C 0.66667 km/h
2637 26-03-2012 11:00:00 11.025 C 6.33 g/m*3 11.03 C 1.6 km/h
2638 26-03-2012 12:00:00 14.16667 C 5.91 g/m*3 14.17 C 4.41667 km/h
2639 26-03-2012 13:00:00 16.68333 C 5.8 g/m*3 16.68 C 4.53333 km/h
2640 26-03-2012 14:00:00 19.075 C 5.62 g/m*3 19.08 C 6.41667 km/h
2641 26-03-2012 15:00:00 19.81667 C 5.27 g/m*3 19.82 C 7.25 km/h
2642 26-03-2012 16:00:00 20.56667 C 5.27 g/m*3 20.57 C 5.49167 km/h
2643 26-03-2012 17:00:00 20.86667 C 5.18 g/m*3 20.87 C 8.48333 km/h
2644 26-03-2012 18:00:00 19.89167 C 5.18 g/m*3 19.89 C 7.65 km/h
2645 26-03-2012 19:00:00 18.21667 C 5.08 g/m*3 18.22 C 4.53333 km/h
2646 26-03-2012 20:00:00 14.39167 C 5.4 g/m*3 14.39 C 4.93333 km/h
2647 26-03-2012 21:00:00 11.875 C 5.61 g/m*3 11.88 C 5.06667 km/h
2648 26-03-2012 22:00:00 10.54167 C 5.69 g/m*3 10.54 C 4.8 km/h
2649 26-03-2012 23:00:00 10.24167 C 5.82 g/m*3 10.24 C 4.93333 km/h
2650 27-03-2012 00:00:00 9.65 C 6.13 g/m*3 9.65 C 4.4 km/h
Sensor: Nr:Datum:Temp:Abs-Feuchte:Windchill:Wind:
Aussen-T/F 2651 27-03-2012 01:00:00 8.66667 C 6.1 g/m*3 8.67 C 4.26667 km/h
2652 27-03-2012 02:00:00 7.575 C 5.95 g/m*3 7.58 C 2.66667 km/h
2653 27-03-2012 03:00:00 6.275 C 5.76 g/m*3 6.28 C 1.46667 km/h
2654 27-03-2012 04:00:00 5.11667 C 5.52 g/m*3 5.12 C 1.33333 km/h
2655 27-03-2012 05:00:00 4.23333 C 5.39 g/m*3 4.23 C 1.06667 km/h
2656 27-03-2012 06:00:00 3.59167 C 5.35 g/m*3 3.59 C 0.66667 km/h
2657 27-03-2012 07:00:00 3.15833 C 5.31 g/m*3 3.16 C 0.8 km/h
2658 27-03-2012 08:00:00 3.39167 C 5.45 g/m*3 3.39 C 0.13333 km/h
2659 27-03-2012 09:00:00 4.58333 C 5.85 g/m*3 4.58 C 0 km/h
2660 27-03-2012 10:00:00 7.54167 C 6.57 g/m*3 7.54 C 0.8 km/h
2661 27-03-2012 11:00:00 11.35833 C 7.23 g/m*3 11.36 C 2.4 km/h
2662 27-03-2012 12:00:00 14.01667 C 7.26 g/m*3 14.02 C 4.26667 km/h
2663 27-03-2012 13:00:00 16.99167 C 7.13 g/m*3 16.99 C 6.01667 km/h
2664 27-03-2012 14:00:00 18.63333 C 6.86 g/m*3 18.63 C 6.43333 km/h
2665 27-03-2012 15:00:00 19.625 C 6.66 g/m*3 19.63 C 10.63333 km/h
2666 27-03-2012 16:00:00 19.56667 C 6.64 g/m*3 19.57 C 9.43333 km/h
2667 27-03-2012 17:00:00 19.125 C 6.55 g/m*3 19.13 C 9.80833 km/h
2668 27-03-2012 18:00:00 18.525 C 6.39 g/m*3 18.52 C 9.15833 km/h
2669 27-03-2012 19:00:00 17.24167 C 6.41 g/m*3 17.24 C 7.375 km/h
2670 27-03-2012 20:00:00 14.44167 C 6.88 g/m*3 14.44 C 4.8 km/h
2671 27-03-2012 21:00:00 12.19167 C 7.14 g/m*3 12.19 C 4.66667 km/h
2672 27-03-2012 22:00:00 10.975 C 7.22 g/m*3 10.98 C 4.26667 km/h
2673 27-03-2012 23:00:00 10.09167 C 7.19 g/m*3 10.09 C 3.46667 km/h
2674 28-03-2012 00:00:00 9.04167 C 7.03 g/m*3 9.04 C 2.66667 km/h
2675 28-03-2012 01:00:00 8.18333 C 6.92 g/m*3 8.18 C 1.6 km/h
Sensor: Nr:Datum:Temp:Abs-Feuchte:Windchill:Wind:
Aussen-T/F 2676 28-03-2012 02:00:00 7.39167 C 6.78 g/m*3 7.39 C 2 km/h
2677 28-03-2012 03:00:00 6.71667 C 6.67 g/m*3 6.72 C 1.73333 km/h
2678 28-03-2012 04:00:00 6.325 C 6.61 g/m*3 6.33 C 1.06667 km/h
2679 28-03-2012 05:00:00 5.68333 C 6.46 g/m*3 5.68 C 1.2 km/h
2680 28-03-2012 06:00:00 5.13333 C 6.3 g/m*3 5.13 C 0.93333 km/h
2681 28-03-2012 07:00:00 4.80833 C 6.26 g/m*3 4.81 C 0.53333 km/h
2682 28-03-2012 08:00:00 4.84167 C 6.32 g/m*3 4.84 C 0.13333 km/h
2683 28-03-2012 09:00:00 6.05 C 6.85 g/m*3 6.05 C 0.93333 km/h
2684 28-03-2012 10:00:00 9.05 C 7.86 g/m*3 9.05 C 0.4 km/h
2685 28-03-2012 11:00:00 12.40833 C 8.2 g/m*3 12.41 C 2.13333 km/h
2686 28-03-2012 12:00:00 14.91667 C 7.59 g/m*3 14.92 C 4.4 km/h
2687 28-03-2012 13:00:00 17.50833 C 6.6 g/m*3 17.51 C 6.43333 km/h
2688 28-03-2012 14:00:00 19.54167 C 5.5 g/m*3 19.54 C 8.59167 km/h
2689 28-03-2012 15:00:00 20.34167 C 5.67 g/m*3 20.34 C 7.38333 km/h
2690 28-03-2012 16:00:00 20.525 C 6.34 g/m*3 20.53 C 8.46667 km/h
2691 28-03-2012 17:00:00 19.54167 C 6.29 g/m*3 19.54 C 8.05833 km/h
2692 28-03-2012 18:00:00 18.46667 C 6.43 g/m*3 18.47 C 8.475 km/h
2693 28-03-2012 19:00:00 17.125 C 6.34 g/m*3 17.13 C 6.03333 km/h
2694 28-03-2012 20:00:00 14.43333 C 6.37 g/m*3 14.43 C 4.94167 km/h
2695 28-03-2012 21:00:00 12.9 C 6.48 g/m*3 12.9 C 5.33333 km/h
2696 28-03-2012 22:00:00 11.44167 C 6.74 g/m*3 11.44 C 3.46667 km/h
2697 28-03-2012 23:00:00 9.43333 C 6.57 g/m*3 9.43 C 2.53333 km/h
2698 29-03-2012 00:00:00 8.80833 C 6.61 g/m*3 8.81 C 3.46667 km/h
2699 29-03-2012 01:00:00 8.11667 C 6.55 g/m*3 8.12 C 4.14167 km/h
2700 29-03-2012 02:00:00 8.34167 C 6.64 g/m*3 8.34 C 4.8 km/h
Sensor: Nr:Datum:Temp:Abs-Feuchte:Windchill:Wind:
Aussen-T/F 2701 29-03-2012 03:00:00 8.05833 C 6.47 g/m*3 8.06 C 4.26667 km/h
2702 29-03-2012 04:00:00 6.8 C 6.23 g/m*3 6.8 C 2.66667 km/h
2703 29-03-2012 05:00:00 5.48333 C 5.93 g/m*3 5.48 C 2.53333 km/h
2704 29-03-2012 06:00:00 4.96667 C 5.83 g/m*3 4.97 C 3.2 km/h
2705 29-03-2012 07:00:00 4.75833 C 5.76 g/m*3 4.76 C 3.6 km/h
2706 29-03-2012 08:00:00 4.63333 C 5.8 g/m*3 4.63 C 2.93333 km/h
2707 29-03-2012 09:00:00 5.56667 C 6.03 g/m*3 5.57 C 3.6 km/h
2708 29-03-2012 10:00:00 7.8 C 6.53 g/m*3 7.8 C 3.33333 km/h
2709 29-03-2012 11:00:00 10.675 C 6.74 g/m*3 9.59 C 9.125 km/h
2710 29-03-2012 12:00:00 12.925 C 6.74 g/m*3 12.93 C 9.95 km/h
2711 29-03-2012 13:00:00 13.23333 C 6.78 g/m*3 13.23 C 15.83333 km/h
2712 29-03-2012 14:00:00 13.80833 C 6.9 g/m*3 13.81 C 15.96667 km/h
2713 29-03-2012 15:00:00 13.31667 C 6.91 g/m*3 13.32 C 15.43333 km/h
2714 29-03-2012 16:00:00 13.175 C 6.6 g/m*3 13.18 C 19.43333 km/h
2715 29-03-2012 17:00:00 12.8 C 6.56 g/m*3 12.8 C 13.16667 km/h
2716 29-03-2012 18:00:00 12.425 C 6.49 g/m*3 12.43 C 13.96667 km/h
2717 29-03-2012 19:00:00 12 C 6.43 g/m*3 12 C 12.225 km/h
2718 29-03-2012 20:00:00 11.43333 C 6.48 g/m*3 11.43 C 10.225 km/h
2719 29-03-2012 21:00:00 10.86667 C 6.49 g/m*3 9.63 C 10.2 km/h
2720 29-03-2012 22:00:00 10.18333 C 6.39 g/m*3 8.52 C 12.1 km/h
2721 29-03-2012 23:00:00 9.79167 C 6.38 g/m*3 8.51 C 9.275 km/h
2722 30-03-2012 00:00:00 9.54167 C 6.23 g/m*3 8.05 C 10.20833 km/h
2723 30-03-2012 01:00:00 9.275 C 6.15 g/m*3 7.77 C 9.95 km/h
2724 30-03-2012 02:00:00 9.2 C 6.23 g/m*3 7.97 C 8.45 km/h
2725 30-03-2012 03:00:00 9.15833 C 6.72 g/m*3 7.38 C 11.43333 km/h
Sensor: Nr:Datum:Temp:Abs-Feuchte:Windchill:Wind:
Aussen-T/F 2726 30-03-2012 04:00:00 8.75 C 7.23 g/m*3 7.3 C 9.14167 km/h
2727 30-03-2012 05:00:00 8.50833 C 7.38 g/m*3 6.79 C 10.33333 km/h
2728 30-03-2012 06:00:00 8.775 C 7.14 g/m*3 6.4 C 15.03333 km/h
2729 30-03-2012 07:00:00 8.71667 C 7.06 g/m*3 7.03 C 10.35833 km/h
2730 30-03-2012 08:00:00 8.78333 C 7.12 g/m*3 6.77 C 12.48333 km/h
2731 30-03-2012 09:00:00 8.71667 C 7.25 g/m*3 6.96 C 10.76667 km/h
2732 30-03-2012 10:00:00 8.70833 C 7.36 g/m*3 6.86 C 11.3 km/h
2733 30-03-2012 11:00:00 8.61667 C 7.44 g/m*3 7.17 C 9.01667 km/h
2734 30-03-2012 12:00:00 8.675 C 7.63 g/m*3 7.76 C 6.69167 km/h
2735 30-03-2012 13:00:00 8.86667 C 7.7 g/m*3 7.52 C 8.74167 km/h
2736 30-03-2012 14:00:00 9.16667 C 7.6 g/m*3 7.48 C 10.9 km/h
2737 30-03-2012 15:00:00 9.33333 C 7.56 g/m*3 7.75 C 10.5 km/h
2738 30-03-2012 16:00:00 10.45 C 7.49 g/m*3 9.24 C 9.55833 km/h
2739 30-03-2012 17:00:00 10.875 C 7.25 g/m*3 9.89 C 8.74167 km/h
2740 30-03-2012 18:00:00 10.96667 C 7.27 g/m*3 9.98 C 8.875 km/h
2741 30-03-2012 19:00:00 10.85 C 7.17 g/m*3 10.08 C 7.63333 km/h
2742 30-03-2012 20:00:00 10.525 C 7.11 g/m*3 9.48 C 8.73333 km/h
2743 30-03-2012 21:00:00 10.06667 C 7.12 g/m*3 9.34 C 6.83333 km/h
2744 30-03-2012 22:00:00 9.65 C 7.17 g/m*3 8.7 C 7.53333 km/h
2745 30-03-2012 23:00:00 9.2 C 7.11 g/m*3 9.2 C 4.40833 km/h
2746 31-03-2012 00:00:00 8.53333 C 7.17 g/m*3 7.53 C 6.96667 km/h
2747 31-03-2012 01:00:00 7.84167 C 7.32 g/m*3 7.15 C 5.48333 km/h
2748 31-03-2012 02:00:00 7.375 C 7.27 g/m*3 7.38 C 2.8 km/h
2749 31-03-2012 03:00:00 7.55833 C 7.1 g/m*3 6.82 C 5.48333 km/h
2750 31-03-2012 04:00:00 7.775 C 6.87 g/m*3 7.15 C 5.23333 km/h
Sensor: Nr:Datum:Temp:Abs-Feuchte:Windchill:Wind:
Aussen-T/F 2751 31-03-2012 05:00:00 7.35 C 6.74 g/m*3 7.35 C 4.94167 km/h
2752 31-03-2012 06:00:00 6.71667 C 6.56 g/m*3 6.72 C 4.675 km/h
2753 31-03-2012 07:00:00 7.575 C 6.68 g/m*3 6.8 C 5.61667 km/h
2754 31-03-2012 08:00:00 8.25 C 6.85 g/m*3 7.2 C 6.96667 km/h
2755 31-03-2012 09:00:00 9.04167 C 6.98 g/m*3 7.7 C 8.88333 km/h
2756 31-03-2012 10:00:00 9.91667 C 6.97 g/m*3 8.54 C 9.95833 km/h
2757 31-03-2012 11:00:00 10.33333 C 7.01 g/m*3 9.13 C 9.425 km/h
2758 31-03-2012 12:00:00 10.55833 C 7.22 g/m*3 9.31 C 9.94167 km/h
2759 31-03-2012 13:00:00 9.875 C 7.3 g/m*3 8.42 C 10.35833 km/h
2760 31-03-2012 14:00:00 8.075 C 7.21 g/m*3 6.01 C 11.81667 km/h
2761 31-03-2012 15:00:00 8.15 C 6.87 g/m*3 6.79 C 8.19167 km/h
2762 31-03-2012 16:00:00 8.91667 C 6.62 g/m*3 6.85 C 13.03333 km/h
2763 31-03-2012 17:00:00 7.825 C 6.02 g/m*3 6.5 C 7.79167 km/h
2764 31-03-2012 18:00:00 8.16667 C 5.4 g/m*3 6.33 C 10.6 km/h
2765 31-03-2012 19:00:00 7.95 C 4.77 g/m*3 5.69 C 12.9 km/h
2766 31-03-2012 20:00:00 7.075 C 4.39 g/m*3 5.43 C 8.6 km/h
2767 31-03-2012 21:00:00 6.60833 C 4.2 g/m*3 5.78 C 5.35 km/h
2768 31-03-2012 22:00:00 5.93333 C 4.28 g/m*3 5.06 C 5.21667 km/h
2769 31-03-2012 23:00:00 4.28333 C 4.14 g/m*3 4.28 C 3.86667 km/h
2770 01-04-2012 00:00:00 2.60833 C 4.26 g/m*3 2.61 C 3.46667 km/h
2771 01-04-2012 01:00:00 2.20833 C 4.18 g/m*3 2.21 C 3.6 km/h
2772 01-04-2012 02:00:00 1.45833 C 4.12 g/m*3 1.46 C 2.93333 km/h
2773 01-04-2012 03:00:00 0.51667 C 4.13 g/m*3 0.52 C 0.93333 km/h
2774 01-04-2012 04:00:00 -0.275 C 4.02 g/m*3 -0.28 C 1.6 km/h
2775 01-04-2012 05:00:00 -0.90833 C 3.95 g/m*3 -0.91 C 1.2 km/h
Sensor: Nr:Datum:Temp:Abs-Feuchte:Windchill:Wind:
Aussen-T/F 2776 01-04-2012 06:00:00 -1.375 C 3.88 g/m*3 -1.38 C 1.6 km/h
2777 01-04-2012 07:00:00 -1.63333 C 3.87 g/m*3 -1.63 C 1.33333 km/h
2778 01-04-2012 08:00:00 -1.24167 C 4 g/m*3 -1.24 C 1.6 km/h
2779 01-04-2012 09:00:00 -0.16667 C 4.25 g/m*3 -0.17 C 1.2 km/h
2780 01-04-2012 10:00:00 2.31667 C 4.6 g/m*3 2.32 C 2.13333 km/h
2781 01-04-2012 11:00:00 5.025 C 4.41 g/m*3 5.03 C 4.275 km/h
2782 01-04-2012 12:00:00 6.94167 C 4.01 g/m*3 6.16 C 5.35 km/h
2783 01-04-2012 13:00:00 9.125 C 3.31 g/m*3 8.12 C 7.375 km/h
2784 01-04-2012 14:00:00 10.61667 C 3.03 g/m*3 9.56 C 8.875 km/h
2785 01-04-2012 15:00:00 11.5 C 3.13 g/m*3 11.5 C 7.79167 km/h
2786 01-04-2012 16:00:00 12.19167 C 3.15 g/m*3 12.19 C 9.425 km/h
2787 01-04-2012 17:00:00 12.19167 C 3.43 g/m*3 12.19 C 9.425 km/h
2788 01-04-2012 18:00:00 10.71667 C 3.79 g/m*3 9.37 C 10.75833 km/h
2789 01-04-2012 19:00:00 9.64167 C 3.96 g/m*3 9.09 C 5.89167 km/h
2790 01-04-2012 20:00:00 7.66667 C 4.25 g/m*3 7.67 C 4.275 km/h
2791 01-04-2012 21:00:00 5.88333 C 4.52 g/m*3 5.88 C 4.93333 km/h
2792 01-04-2012 22:00:00 5.15833 C 4.64 g/m*3 5.16 C 4 km/h
2793 01-04-2012 23:00:00 4.40833 C 4.68 g/m*3 4.41 C 2.93333 km/h
2794 02-04-2012 00:00:00 3.775 C 4.64 g/m*3 3.78 C 3.2 km/h
2795 02-04-2012 01:00:00 3.275 C 4.67 g/m*3 3.28 C 2.8 km/h
2796 02-04-2012 02:00:00 2.88333 C 4.66 g/m*3 2.88 C 2.26667 km/h
2797 02-04-2012 03:00:00 2.16667 C 4.66 g/m*3 2.17 C 1.73333 km/h
2798 02-04-2012 04:00:00 1.44167 C 4.55 g/m*3 1.44 C 1.2 km/h
2799 02-04-2012 05:00:00 0.81667 C 4.46 g/m*3 0.82 C 1.73333 km/h
2800 02-04-2012 06:00:00 0.4 C 4.4 g/m*3 0.4 C 3.2 km/h
Sensor: Nr:Datum:Temp:Abs-Feuchte:Windchill:Wind:
Aussen-T/F 2801 02-04-2012 07:00:00 0.11667 C 4.35 g/m*3 0.12 C 2.26667 km/h
2802 02-04-2012 08:00:00 1.03333 C 4.6 g/m*3 1.03 C 2.4 km/h
2803 02-04-2012 09:00:00 2.73333 C 4.87 g/m*3 1.43 C 5.2 km/h
2804 02-04-2012 10:00:00 4.85833 C 5.22 g/m*3 4.86 C 3.475 km/h
2805 02-04-2012 11:00:00 6.88333 C 5.48 g/m*3 6.88 C 4.4 km/h
2806 02-04-2012 12:00:00 8.575 C 5.58 g/m*3 8.57 C 4.66667 km/h
2807 02-04-2012 13:00:00 9.99167 C 5.67 g/m*3 9.69 C 5.2 km/h
2808 02-04-2012 14:00:00 10.725 C 5.81 g/m*3 10.73 C 4.66667 km/h
2809 02-04-2012 15:00:00 12.26667 C 5.82 g/m*3 12.27 C 6.15833 km/h
2810 02-04-2012 16:00:00 13.575 C 5.88 g/m*3 13.58 C 6.43333 km/h
2811 02-04-2012 17:00:00 13.61667 C 5.84 g/m*3 13.62 C 5.20833 km/h
2812 02-04-2012 18:00:00 13.2 C 5.76 g/m*3 13.2 C 3.2 km/h
2813 02-04-2012 19:00:00 11.875 C 6.09 g/m*3 11.88 C 3.06667 km/h
2814 02-04-2012 20:00:00 10.16667 C 6.13 g/m*3 10.17 C 3.46667 km/h
2815 02-04-2012 21:00:00 9.125 C 6.12 g/m*3 9.13 C 3.73333 km/h
2816 02-04-2012 22:00:00 8.71667 C 6.25 g/m*3 8.72 C 2.66667 km/h
2817 02-04-2012 23:00:00 8.4 C 6.28 g/m*3 8.4 C 2 km/h
2818 03-04-2012 00:00:00 8.125 C 6.3 g/m*3 8.13 C 2.8 km/h
2819 03-04-2012 01:00:00 7.425 C 6.17 g/m*3 7.43 C 2.26667 km/h
2820 03-04-2012 02:00:00 6.76667 C 6.1 g/m*3 6.77 C 1.86667 km/h
2821 03-04-2012 03:00:00 5.85 C 5.9 g/m*3 5.85 C 1.46667 km/h
2822 03-04-2012 04:00:00 4.74167 C 5.65 g/m*3 4.74 C 2 km/h
2823 03-04-2012 05:00:00 3.75833 C 5.46 g/m*3 3.76 C 1.06667 km/h
2824 03-04-2012 06:00:00 2.99167 C 5.33 g/m*3 2.99 C 1.2 km/h
2825 03-04-2012 07:00:00 2.71667 C 5.34 g/m*3 2.72 C 0.53333 km/h
Sensor: Nr:Datum:Temp:Abs-Feuchte:Windchill:Wind:
Aussen-T/F 2826 03-04-2012 08:00:00 3.26667 C 5.56 g/m*3 3.27 C 0.26667 km/h
2827 03-04-2012 09:00:00 4.84167 C 5.9 g/m*3 4.84 C 1.46667 km/h
2828 03-04-2012 10:00:00 7.525 C 6.39 g/m*3 7.53 C 0.66667 km/h
2829 03-04-2012 11:00:00 11.16667 C 6.85 g/m*3 11.17 C 2.13333 km/h
2830 03-04-2012 12:00:00 14.35833 C 6.22 g/m*3 14.36 C 4 km/h
2831 03-04-2012 13:00:00 16.99167 C 6.12 g/m*3 16.99 C 5.34167 km/h
2832 03-04-2012 14:00:00 18.18333 C 6.07 g/m*3 18.18 C 6.55 km/h
2833 03-04-2012 15:00:00 18.91667 C 5.59 g/m*3 18.92 C 6.28333 km/h
2834 03-04-2012 16:00:00 19.80833 C 5.01 g/m*3 19.81 C 9.8 km/h
2835 03-04-2012 17:00:00 19.69167 C 4.79 g/m*3 19.69 C 9.00833 km/h
2836 03-04-2012 18:00:00 19.2 C 4.81 g/m*3 19.2 C 6.425 km/h
2837 03-04-2012 19:00:00 16.925 C 5.56 g/m*3 16.93 C 5.49167 km/h
2838 03-04-2012 20:00:00 14.03333 C 5.52 g/m*3 14.03 C 5.2 km/h
2839 03-04-2012 21:00:00 12.8 C 5.73 g/m*3 12.8 C 4.53333 km/h
2840 03-04-2012 22:00:00 13.36667 C 6.64 g/m*3 13.37 C 6.56667 km/h
2841 03-04-2012 23:00:00 12.5 C 7.79 g/m*3 12.5 C 5.35 km/h
2842 04-04-2012 00:00:00 11.90833 C 8.34 g/m*3 11.91 C 4.80833 km/h
2843 04-04-2012 01:00:00 10.275 C 8.4 g/m*3 9.37 C 7.79167 km/h
2844 04-04-2012 02:00:00 9.175 C 8.17 g/m*3 9.18 C 4 km/h
2845 04-04-2012 03:00:00 8.875 C 8.22 g/m*3 8.88 C 3.475 km/h
2846 04-04-2012 04:00:00 8.79167 C 8.25 g/m*3 8.79 C 1.86667 km/h
2847 04-04-2012 05:00:00 8.3 C 7.97 g/m*3 8.3 C 2.8 km/h
2848 04-04-2012 06:00:00 7.45833 C 7.58 g/m*3 7.46 C 3.6 km/h
2849 04-04-2012 07:00:00 6.73333 C 7.23 g/m*3 6.73 C 3.06667 km/h
2850 04-04-2012 08:00:00 7.49167 C 7.56 g/m*3 7.49 C 4.66667 km/h
Sensor: Nr:Datum:Temp:Abs-Feuchte:Windchill:Wind:
Aussen-T/F 2851 04-04-2012 09:00:00 8.68333 C 7.54 g/m*3 7.25 C 9.00833 km/h
2852 04-04-2012 10:00:00 9.68333 C 7.6 g/m*3 8.65 C 7.925 km/h
2853 04-04-2012 11:00:00 10.48333 C 7.56 g/m*3 9.85 C 6.70833 km/h
2854 04-04-2012 12:00:00 10.86667 C 7.5 g/m*3 10.24 C 6.975 km/h
2855 04-04-2012 13:00:00 11.84167 C 7.49 g/m*3 11.84 C 7.25 km/h
2856 04-04-2012 14:00:00 12.09167 C 7.48 g/m*3 12.09 C 7.65833 km/h
2857 04-04-2012 15:00:00 12.48333 C 7.52 g/m*3 12.48 C 6.425 km/h
2858 04-04-2012 16:00:00 13.125 C 7.54 g/m*3 13.13 C 6.425 km/h
2859 04-04-2012 17:00:00 13.08333 C 7.74 g/m*3 13.08 C 5.89167 km/h
2860 04-04-2012 18:00:00 12.75 C 7.59 g/m*3 12.75 C 5.49167 km/h
2861 04-04-2012 19:00:00 11.575 C 7.38 g/m*3 11.58 C 2.8 km/h
2862 04-04-2012 20:00:00 9.25 C 7.29 g/m*3 9.25 C 4.26667 km/h
2863 04-04-2012 21:00:00 8.34167 C 7.12 g/m*3 8.34 C 3.73333 km/h
2864 04-04-2012 22:00:00 7.35 C 6.96 g/m*3 7.35 C 2.26667 km/h
2865 04-04-2012 23:00:00 6.91667 C 6.92 g/m*3 6.92 C 0.4 km/h
2866 05-04-2012 00:00:00 6.48333 C 6.84 g/m*3 6.48 C 0.13333 km/h
2867 05-04-2012 01:00:00 6.28333 C 6.82 g/m*3 6.28 C 0.26667 km/h
2868 05-04-2012 02:00:00 6.18333 C 6.82 g/m*3 6.18 C 0.13333 km/h
2869 05-04-2012 03:00:00 6.675 C 7.05 g/m*3 6.68 C 0 km/h
2870 05-04-2012 04:00:00 7.125 C 7.11 g/m*3 7.13 C 0.26667 km/h
2871 05-04-2012 05:00:00 7.375 C 7.04 g/m*3 7.38 C 1.2 km/h
2872 05-04-2012 06:00:00 7.56667 C 7.03 g/m*3 7.57 C 3.06667 km/h
2873 05-04-2012 07:00:00 7.63333 C 6.97 g/m*3 7.63 C 2.26667 km/h
2874 05-04-2012 08:00:00 7.85 C 6.78 g/m*3 7.25 C 5.20833 km/h
2875 05-04-2012 09:00:00 7.88333 C 6.69 g/m*3 6.67 C 7.38333 km/h
Sensor: Nr:Datum:Temp:Abs-Feuchte:Windchill:Wind:
Aussen-T/F 2876 05-04-2012 10:00:00 7.76667 C 6.6 g/m*3 6.08 C 9.41667 km/h
2877 05-04-2012 11:00:00 7.66667 C 6.47 g/m*3 6.52 C 6.96667 km/h
2878 05-04-2012 12:00:00 7.7 C 6.47 g/m*3 6.49 C 7.23333 km/h
2879 05-04-2012 13:00:00 7.80833 C 6.4 g/m*3 6.62 C 7.24167 km/h
2880 05-04-2012 14:00:00 8.275 C 6.35 g/m*3 7.15 C 7.26667 km/h
2881 05-04-2012 15:00:00 8.59167 C 6.33 g/m*3 7.77 C 6.29167 km/h
2882 05-04-2012 16:00:00 8.93333 C 6.42 g/m*3 8.31 C 5.75833 km/h
2883 05-04-2012 17:00:00 8.95 C 6.33 g/m*3 8.3 C 5.86667 km/h
2884 05-04-2012 18:00:00 8.9 C 6.31 g/m*3 8.2 C 6.025 km/h
2885 05-04-2012 19:00:00 8.68333 C 6.19 g/m*3 7.8 C 6.575 km/h
2886 05-04-2012 20:00:00 8.34167 C 6.1 g/m*3 7.56 C 6.01667 km/h
2887 05-04-2012 21:00:00 8.06667 C 6.05 g/m*3 7.54 C 5.075 km/h
2888 05-04-2012 22:00:00 7.71667 C 6.11 g/m*3 7.72 C 3.46667 km/h
2889 05-04-2012 23:00:00 7.425 C 6.11 g/m*3 7.43 C 1.73333 km/h
2890 06-04-2012 00:00:00 7.21667 C 5.88 g/m*3 7.22 C 3.74167 km/h
2891 06-04-2012 01:00:00 6.96667 C 5.79 g/m*3 6.97 C 1.6 km/h
2892 06-04-2012 02:00:00 6.8 C 5.75 g/m*3 6.8 C 4.275 km/h
2893 06-04-2012 03:00:00 6.63333 C 5.71 g/m*3 6.63 C 2.4 km/h
2894 06-04-2012 04:00:00 6.40833 C 5.59 g/m*3 6.41 C 3.075 km/h
2895 06-04-2012 05:00:00 6.3 C 5.57 g/m*3 6.3 C 4.26667 km/h
2896 06-04-2012 06:00:00 6.16667 C 5.59 g/m*3 6.17 C 3.20833 km/h
2897 06-04-2012 07:00:00 5.91667 C 5.67 g/m*3 5.92 C 0.66667 km/h
2898 06-04-2012 08:00:00 6.2 C 5.72 g/m*3 6.2 C 0.66667 km/h
2899 06-04-2012 09:00:00 6.69 C 5.59 g/m*3 6.69 C 3.2 km/h
2900 06-04-2012 10:00:00 7.36667 C 5.54 g/m*3 7.37 C 4.26667 km/h
Sensor: Nr:Datum:Temp:Abs-Feuchte:Windchill:Wind:
Aussen-T/F 2901 06-04-2012 11:00:00 7.88333 C 5.52 g/m*3 7.88 C 4.66667 km/h
2902 06-04-2012 12:00:00 8.06667 C 5.59 g/m*3 8.07 C 4.4 km/h
2903 06-04-2012 13:00:00 8.39167 C 5.59 g/m*3 7.54 C 6.29167 km/h
2904 06-04-2012 14:00:00 9.16667 C 5.47 g/m*3 8.08 C 7.78333 km/h
2905 06-04-2012 15:00:00 10.70833 C 5.5 g/m*3 10.39 C 5.61667 km/h
2906 06-04-2012 16:00:00 11.84167 C 5.24 g/m*3 11.84 C 5.75833 km/h
2907 06-04-2012 17:00:00 12.29167 C 5.15 g/m*3 12.29 C 5.875 km/h
2908 06-04-2012 18:00:00 12.13333 C 5.11 g/m*3 12.13 C 4.675 km/h
2909 06-04-2012 19:00:00 10.74167 C 5.03 g/m*3 10.74 C 4.80833 km/h
2910 06-04-2012 20:00:00 7.83333 C 5.26 g/m*3 7.83 C 4.26667 km/h
2911 06-04-2012 21:00:00 6.48333 C 5.33 g/m*3 6.48 C 4.26667 km/h
2912 06-04-2012 22:00:00 5.73333 C 5.25 g/m*3 5.73 C 2.26667 km/h
2913 06-04-2012 23:00:00 4.88333 C 5.15 g/m*3 4.88 C 1.46667 km/h
2914 07-04-2012 00:00:00 4.65 C 5.18 g/m*3 4.65 C 3.33333 km/h
2915 07-04-2012 01:00:00 4.88333 C 5.3 g/m*3 4.88 C 2.66667 km/h
2916 07-04-2012 02:00:00 5.64167 C 5.15 g/m*3 4.68 C 5.36667 km/h
2917 07-04-2012 03:00:00 5.66667 C 5.09 g/m*3 4.76 C 5.21667 km/h
2918 07-04-2012 04:00:00 5.29167 C 5.05 g/m*3 5.29 C 4.54167 km/h
2919 07-04-2012 05:00:00 5.10833 C 5.05 g/m*3 5.11 C 4.4 km/h
2920 07-04-2012 06:00:00 4.38333 C 5.25 g/m*3 4.38 C 4.80833 km/h
2921 07-04-2012 07:00:00 3.725 C 5.38 g/m*3 3.73 C 4.8 km/h
2922 07-04-2012 08:00:00 3.65833 C 5.58 g/m*3 3.66 C 2.8 km/h
2923 07-04-2012 09:00:00 4.38333 C 5.82 g/m*3 4.38 C 4.675 km/h
2924 07-04-2012 10:00:00 4.90833 C 5.97 g/m*3 4.91 C 4.4 km/h
2925 07-04-2012 11:00:00 6.05833 C 5.87 g/m*3 5.26 C 5.075 km/h
Sensor: Nr:Datum:Temp:Abs-Feuchte:Windchill:Wind:
Aussen-T/F 2926 07-04-2012 12:00:00 7.2 C 5.78 g/m*3 5.83 C 7.525 km/h
2927 07-04-2012 13:00:00 8.15833 C 5.38 g/m*3 6.11 C 11.825 km/h
2928 07-04-2012 14:00:00 6.4 C 5.77 g/m*3 4.31 C 10.08333 km/h
2929 07-04-2012 15:00:00 6.81667 C 5.63 g/m*3 5.22 C 8.19167 km/h
2930 07-04-2012 16:00:00 6.39167 C 5.47 g/m*3 4.36 C 9.80833 km/h
2931 07-04-2012 17:00:00 7.01667 C 4.92 g/m*3 5.56 C 7.775 km/h
2932 07-04-2012 18:00:00 7.06667 C 4.24 g/m*3 5.58 C 7.925 km/h
2933 07-04-2012 19:00:00 6.79167 C 4.13 g/m*3 5.29 C 7.78333 km/h
2934 07-04-2012 20:00:00 5.775 C 4.11 g/m*3 4.48 C 6.43333 km/h
2935 07-04-2012 21:00:00 5.325 C 4.11 g/m*3 5.33 C 3.33333 km/h
2936 07-04-2012 22:00:00 4.66667 C 4.4 g/m*3 4.67 C 2.26667 km/h
2937 07-04-2012 23:00:00 4.76667 C 4.52 g/m*3 4.77 C 4.28333 km/h
2938 08-04-2012 00:00:00 4.61667 C 4.47 g/m*3 3.46 C 5.48333 km/h
2939 08-04-2012 01:00:00 4.325 C 3.8 g/m*3 4.33 C 3.875 km/h
2940 08-04-2012 02:00:00 3.58333 C 3.44 g/m*3 3.58 C 3.2 km/h
2941 08-04-2012 03:00:00 3.175 C 3.41 g/m*3 3.18 C 2.13333 km/h
2942 08-04-2012 04:00:00 2.13333 C 3.52 g/m*3 2.13 C 3.2 km/h
2943 08-04-2012 05:00:00 1.36667 C 3.62 g/m*3 1.37 C 2 km/h
2944 08-04-2012 06:00:00 1.41667 C 3.64 g/m*3 1.42 C 1.86667 km/h
2945 08-04-2012 07:00:00 1.5 C 3.5 g/m*3 1.5 C 2.53333 km/h
2946 08-04-2012 08:00:00 1.61667 C 3.63 g/m*3 1.62 C 2.26667 km/h
2947 08-04-2012 09:00:00 2.05 C 3.75 g/m*3 2.05 C 4.825 km/h
2948 08-04-2012 10:00:00 4.68 C 3.47 g/m*3 3.55 C 5.46 km/h
2949 08-04-2012 11:00:00 5.55 C 3.46 g/m*3 5.55 C 4.80833 km/h
2950 08-04-2012 12:00:00 6.4 C 3.43 g/m*3 5.28 C 6.16667 km/h
Sensor: Nr:Datum:Temp:Abs-Feuchte:Windchill:Wind:
Aussen-T/F 2951 08-04-2012 13:00:00 6.79167 C 3.21 g/m*3 5.78 C 6.01667 km/h
2952 08-04-2012 14:00:00 8.28333 C 3.33 g/m*3 7.49 C 6.01667 km/h
2953 08-04-2012 15:00:00 9.48333 C 3.36 g/m*3 8.66 C 6.83333 km/h
2954 08-04-2012 16:00:00 9.73333 C 3.27 g/m*3 8.79 C 7.53333 km/h
2955 08-04-2012 17:00:00 10.1 C 3.25 g/m*3 9.48 C 6.41667 km/h
2956 08-04-2012 18:00:00 10.01667 C 3.23 g/m*3 10.02 C 4.26667 km/h
2957 08-04-2012 19:00:00 7.94167 C 3.8 g/m*3 7.94 C 3.73333 km/h
2958 08-04-2012 20:00:00 5.2 C 4.08 g/m*3 5.2 C 3.86667 km/h
2959 08-04-2012 21:00:00 4.66667 C 4.13 g/m*3 4.67 C 4.4 km/h
2960 08-04-2012 22:00:00 3.89167 C 4.12 g/m*3 3.89 C 4.8 km/h
2961 08-04-2012 23:00:00 3.69167 C 4.28 g/m*3 3.69 C 3.6 km/h
2962 09-04-2012 00:00:00 4.31667 C 4.32 g/m*3 4.32 C 3.33333 km/h
2963 09-04-2012 01:00:00 4.85 C 4.52 g/m*3 4.85 C 2.66667 km/h
2964 09-04-2012 02:00:00 5.93333 C 4.5 g/m*3 5.06 C 5.225 km/h
2965 09-04-2012 03:00:00 6.61667 C 4.52 g/m*3 5.79 C 5.35 km/h
2966 09-04-2012 04:00:00 6.45833 C 5.1 g/m*3 4.84 C 8.04167 km/h
2967 09-04-2012 05:00:00 5.05 C 5.76 g/m*3 3.86 C 5.75833 km/h
2968 09-04-2012 06:00:00 4.48333 C 6 g/m*3 4.48 C 3.33333 km/h
2969 09-04-2012 07:00:00 4.775 C 6.06 g/m*3 3.65 C 5.48333 km/h
2970 09-04-2012 08:00:00 5.25833 C 6.23 g/m*3 5.26 C 4.94167 km/h
2971 09-04-2012 09:00:00 6.25833 C 6.49 g/m*3 4.84 C 7.10833 km/h
2972 09-04-2012 10:00:00 7 C 6.75 g/m*3 5.64 C 7.35 km/h
2973 09-04-2012 11:00:00 7.84167 C 7.15 g/m*3 6.79 C 6.70833 km/h
2974 09-04-2012 12:00:00 8.225 C 7.22 g/m*3 7.42 C 6.025 km/h
2975 09-04-2012 13:00:00 8.55 C 7.17 g/m*3 8.55 C 4.80833 km/h
Sensor: Nr:Datum:Temp:Abs-Feuchte:Windchill:Wind:
Aussen-T/F 2976 09-04-2012 14:00:00 9.11667 C 7.25 g/m*3 8.14 C 7.225 km/h
2977 09-04-2012 15:00:00 9.5 C 7.37 g/m*3 8.79 C 6.41667 km/h
2978 09-04-2012 16:00:00 9.58333 C 7.47 g/m*3 9.22 C 5.21667 km/h
2979 09-04-2012 17:00:00 9.125 C 7.78 g/m*3 9.13 C 3.73333 km/h
2980 09-04-2012 18:00:00 8.91667 C 7.85 g/m*3 8.92 C 2.4 km/h
2981 09-04-2012 19:00:00 8.50833 C 7.89 g/m*3 8.51 C 1.33333 km/h
2982 09-04-2012 20:00:00 8.26667 C 7.83 g/m*3 8.27 C 3.46667 km/h
2983 09-04-2012 21:00:00 8.5 C 7.88 g/m*3 8.5 C 3.74167 km/h
2984 09-04-2012 22:00:00 8.39167 C 7.97 g/m*3 8.39 C 2.93333 km/h
2985 09-04-2012 23:00:00 8.375 C 7.99 g/m*3 8.38 C 2.66667 km/h
2986 10-04-2012 00:00:00 8.35 C 8.02 g/m*3 8.35 C 2 km/h
2987 10-04-2012 01:00:00 8.46667 C 8.04 g/m*3 8.47 C 4.13333 km/h
2988 10-04-2012 02:00:00 8.525 C 7.87 g/m*3 8.53 C 4.675 km/h
2989 10-04-2012 03:00:00 9.01667 C 7.83 g/m*3 8.45 C 5.61667 km/h
2990 10-04-2012 04:00:00 8.76667 C 7.88 g/m*3 8.77 C 2.66667 km/h
2991 10-04-2012 05:00:00 8.46667 C 7.82 g/m*3 8.47 C 3.475 km/h
2992 10-04-2012 06:00:00 8.675 C 7.76 g/m*3 8.68 C 4.14167 km/h
2993 10-04-2012 07:00:00 8.93333 C 7.81 g/m*3 8.93 C 4 km/h
2994 10-04-2012 08:00:00 9.775 C 7.71 g/m*3 9.21 C 6.01667 km/h
2995 10-04-2012 09:00:00 10.675 C 7.53 g/m*3 10.28 C 5.89167 km/h
2996 10-04-2012 10:00:00 11.175 C 7.37 g/m*3 11.18 C 6.98333 km/h
2997 10-04-2012 11:00:00 11.84167 C 7.47 g/m*3 11.84 C 7.38333 km/h
2998 10-04-2012 12:00:00 12.80833 C 7.63 g/m*3 12.81 C 7.375 km/h
2999 10-04-2012 13:00:00 14.53333 C 7.58 g/m*3 14.53 C 9.15 km/h
3000 10-04-2012 14:00:00 15.4 C 7.45 g/m*3 15.4 C 11.03333 km/h
Sensor: Nr:Datum:Temp:Abs-Feuchte:Windchill:Wind:
Aussen-T/F 3001 10-04-2012 15:00:00 15.69167 C 7.52 g/m*3 15.69 C 10.21667 km/h
3002 10-04-2012 16:00:00 15.38333 C 7.81 g/m*3 15.38 C 5.35833 km/h
3003 10-04-2012 17:00:00 14.8 C 7.96 g/m*3 14.8 C 8.05833 km/h
3004 10-04-2012 18:00:00 13.55833 C 7.9 g/m*3 13.56 C 8.05833 km/h
3005 10-04-2012 19:00:00 12.38333 C 7.77 g/m*3 12.38 C 6.28333 km/h
3006 10-04-2012 20:00:00 11.6 C 7.71 g/m*3 11.6 C 6.975 km/h
3007 10-04-2012 21:00:00 11.26667 C 7.91 g/m*3 11.27 C 4.8 km/h
3008 10-04-2012 22:00:00 10.48333 C 8.34 g/m*3 10.48 C 2.4 km/h
3009 10-04-2012 23:00:00 9.53333 C 8.49 g/m*3 9.53 C 2.26667 km/h
3010 11-04-2012 00:00:00 9.39167 C 8.47 g/m*3 9.39 C 3.88333 km/h
3011 11-04-2012 01:00:00 9.81667 C 8.34 g/m*3 8.96 C 7.24167 km/h
3012 11-04-2012 02:00:00 8.70833 C 7.87 g/m*3 8.71 C 3.6 km/h
3013 11-04-2012 03:00:00 7.80833 C 7.69 g/m*3 7.81 C 1.06667 km/h
3014 11-04-2012 04:00:00 7.61667 C 7.66 g/m*3 7.62 C 0.4 km/h
3015 11-04-2012 05:00:00 7.6 C 7.66 g/m*3 7.6 C 2.66667 km/h
3016 11-04-2012 06:00:00 7.075 C 7.17 g/m*3 6.19 C 5.74167 km/h
3017 11-04-2012 07:00:00 6.575 C 6.91 g/m*3 5.61 C 5.75833 km/h
3018 11-04-2012 08:00:00 7.225 C 6.84 g/m*3 7.23 C 4.81667 km/h
3019 11-04-2012 09:00:00 7.975 C 6.89 g/m*3 7.98 C 4.93333 km/h
3020 11-04-2012 10:00:00 9.03333 C 6.94 g/m*3 8.32 C 6.15833 km/h
3021 11-04-2012 11:00:00 9.89167 C 6.61 g/m*3 8.98 C 7.51667 km/h
3022 11-04-2012 12:00:00 11.21667 C 6.18 g/m*3 11.22 C 8.61667 km/h
3023 11-04-2012 13:00:00 11.425 C 6.04 g/m*3 11.43 C 7.525 km/h
3024 11-04-2012 14:00:00 12.55833 C 6.02 g/m*3 12.56 C 8.33333 km/h
3025 11-04-2012 15:00:00 12.73333 C 5.61 g/m*3 12.73 C 9.00833 km/h
Sensor: Nr:Datum:Temp:Abs-Feuchte:Windchill:Wind:
Aussen-T/F 3026 11-04-2012 16:00:00 13.45 C 5.3 g/m*3 13.45 C 10.63333 km/h
3027 11-04-2012 17:00:00 14 C 5.07 g/m*3 14 C 8.60833 km/h
3028 11-04-2012 18:00:00 14.36667 C 4.76 g/m*3 14.37 C 9.29167 km/h
3029 11-04-2012 19:00:00 13.29167 C 4.85 g/m*3 13.29 C 8.86667 km/h
3030 11-04-2012 20:00:00 9.775 C 5.87 g/m*3 9.78 C 4.94167 km/h
3031 11-04-2012 21:00:00 8.18333 C 5.98 g/m*3 8.18 C 4.8 km/h
3032 11-04-2012 22:00:00 7.09167 C 6.03 g/m*3 7.09 C 2.93333 km/h
3033 11-04-2012 23:00:00 6.28333 C 5.94 g/m*3 6.28 C 2.13333 km/h
3034 12-04-2012 00:00:00 5.51667 C 5.79 g/m*3 5.52 C 1.46667 km/h
3035 12-04-2012 01:00:00 4.6 C 5.6 g/m*3 4.6 C 0.66667 km/h
3036 12-04-2012 02:00:00 4.11667 C 5.54 g/m*3 4.12 C 1.46667 km/h
3037 12-04-2012 03:00:00 3.325 C 5.36 g/m*3 3.33 C 1.06667 km/h
3038 12-04-2012 04:00:00 3.03333 C 5.37 g/m*3 3.03 C 0.4 km/h
3039 12-04-2012 05:00:00 3.03333 C 5.38 g/m*3 3.03 C 0 km/h
3040 12-04-2012 06:00:00 3.4 C 5.52 g/m*3 3.4 C 0.13333 km/h
3041 12-04-2012 07:00:00 4.04167 C 5.72 g/m*3 4.04 C 0.26667 km/h
3042 12-04-2012 08:00:00 4.775 C 5.99 g/m*3 4.78 C 0.8 km/h
3043 12-04-2012 09:00:00 6.30833 C 6.41 g/m*3 6.31 C 2.26667 km/h
3044 12-04-2012 10:00:00 7.78333 C 6.68 g/m*3 7.78 C 2.26667 km/h
3045 12-04-2012 11:00:00 9.49167 C 6.75 g/m*3 8.58 C 7.23333 km/h
3046 12-04-2012 12:00:00 11 C 6.79 g/m*3 10.17 C 8.05833 km/h
3047 12-04-2012 13:00:00 12.26667 C 6.57 g/m*3 12.27 C 7.925 km/h
3048 12-04-2012 14:00:00 11.68333 C 6.57 g/m*3 11.68 C 5.61667 km/h
3049 12-04-2012 15:00:00 9.725 C 6.65 g/m*3 8.62 C 8.325 km/h
3050 12-04-2012 16:00:00 6.825 C 6.81 g/m*3 5.65 C 6.58333 km/h
Sensor: Nr:Datum:Temp:Abs-Feuchte:Windchill:Wind:
Aussen-T/F 3051 12-04-2012 17:00:00 7.9 C 7.32 g/m*3 7.9 C 3.60833 km/h
3052 12-04-2012 18:00:00 8.93333 C 7.19 g/m*3 8.93 C 2.53333 km/h
3053 12-04-2012 19:00:00 6.58333 C 6.85 g/m*3 5.66 C 5.64167 km/h
3054 12-04-2012 20:00:00 5.69167 C 6.66 g/m*3 5.69 C 4 km/h
3055 12-04-2012 21:00:00 5.45 C 6.61 g/m*3 5.45 C 2.53333 km/h
3056 12-04-2012 22:00:00 4.7 C 6.33 g/m*3 4.7 C 3.33333 km/h
3057 12-04-2012 23:00:00 3.83333 C 5.99 g/m*3 3.83 C 2.66667 km/h
3058 13-04-2012 00:00:00 3.55 C 5.9 g/m*3 3.55 C 2 km/h
3059 13-04-2012 01:00:00 3.35 C 5.84 g/m*3 3.35 C 0.93333 km/h
3060 13-04-2012 02:00:00 2.975 C 5.7 g/m*3 2.98 C 1.86667 km/h
3061 13-04-2012 03:00:00 2.79167 C 5.63 g/m*3 2.79 C 2.66667 km/h
3062 13-04-2012 04:00:00 2.525 C 5.56 g/m*3 2.53 C 1.73333 km/h
3063 13-04-2012 05:00:00 2.25 C 5.47 g/m*3 2.25 C 2.8 km/h
3064 13-04-2012 06:00:00 2.05833 C 5.41 g/m*3 2.06 C 1.86667 km/h
3065 13-04-2012 07:00:00 2.00833 C 5.39 g/m*3 2.01 C 1.73333 km/h
3066 13-04-2012 08:00:00 2.71667 C 5.66 g/m*3 2.72 C 2.53333 km/h
3067 13-04-2012 09:00:00 3.425 C 5.88 g/m*3 3.43 C 2.66667 km/h
3068 13-04-2012 10:00:00 4.4 C 6.21 g/m*3 4.4 C 3.2 km/h
3069 13-04-2012 11:00:00 6.25 C 6.85 g/m*3 6.25 C 3.46667 km/h
3070 13-04-2012 12:00:00 9.33333 C 7.62 g/m*3 9.33 C 4.53333 km/h
3071 13-04-2012 13:00:00 11.31667 C 7.21 g/m*3 11.32 C 4.66667 km/h
3072 13-04-2012 14:00:00 12.78333 C 6.43 g/m*3 12.78 C 6.55833 km/h
3073 13-04-2012 15:00:00 13.63333 C 6.27 g/m*3 13.63 C 8.325 km/h
3074 13-04-2012 16:00:00 13.01667 C 6.18 g/m*3 13.02 C 6.3 km/h
3075 13-04-2012 17:00:00 13.94167 C 5.93 g/m*3 13.94 C 6.69167 km/h
Sensor: Nr:Datum:Temp:Abs-Feuchte:Windchill:Wind:
Aussen-T/F 3076 13-04-2012 18:00:00 12.88333 C 5.37 g/m*3 12.88 C 3.73333 km/h
3077 13-04-2012 19:00:00 11.525 C 6.03 g/m*3 11.53 C 3.06667 km/h
3078 13-04-2012 20:00:00 8.325 C 6.33 g/m*3 8.32 C 4 km/h
3079 13-04-2012 21:00:00 6.70833 C 6.03 g/m*3 6.71 C 2.93333 km/h
3080 13-04-2012 22:00:00 5.70833 C 5.99 g/m*3 5.71 C 1.46667 km/h
3081 13-04-2012 23:00:00 4.91667 C 5.73 g/m*3 4.92 C 0.93333 km/h
3082 14-04-2012 00:00:00 3.95 C 5.47 g/m*3 3.95 C 0.26667 km/h
3083 14-04-2012 01:00:00 3.39167 C 5.44 g/m*3 3.39 C 0.66667 km/h
3084 14-04-2012 02:00:00 2.75 C 5.29 g/m*3 2.75 C 0.13333 km/h
3085 14-04-2012 03:00:00 2.25 C 5.18 g/m*3 2.25 C 0.26667 km/h
3086 14-04-2012 04:00:00 1.825 C 5.1 g/m*3 1.83 C 0.13333 km/h
3087 14-04-2012 05:00:00 1.65 C 5.1 g/m*3 1.65 C 0.93333 km/h
3088 14-04-2012 06:00:00 1.425 C 5.02 g/m*3 1.43 C 0 km/h
3089 14-04-2012 07:00:00 1.50833 C 5.1 g/m*3 1.51 C 0 km/h
3090 14-04-2012 08:00:00 2.54167 C 5.47 g/m*3 2.54 C 0 km/h
3091 14-04-2012 09:00:00 4.5 C 5.99 g/m*3 4.5 C 1.06667 km/h
3092 14-04-2012 10:00:00 7.19167 C 6.47 g/m*3 7.19 C 3.2 km/h
3093 14-04-2012 11:00:00 11.00833 C 6.93 g/m*3 11.01 C 3.33333 km/h
3094 14-04-2012 12:00:00 13.475 C 5.5 g/m*3 13.48 C 6.15833 km/h
3095 14-04-2012 13:00:00 13.825 C 5.33 g/m*3 13.83 C 5.74167 km/h
3096 14-04-2012 14:00:00 13.09167 C 5.54 g/m*3 13.09 C 8.6 km/h
3097 14-04-2012 15:00:00 13.16667 C 5.3 g/m*3 13.17 C 6.025 km/h
3098 14-04-2012 16:00:00 14.30833 C 5.25 g/m*3 14.31 C 5.88333 km/h
3099 14-04-2012 17:00:00 14.6 C 4.91 g/m*3 14.6 C 6.69167 km/h
3100 14-04-2012 18:00:00 13.41667 C 4.95 g/m*3 13.42 C 7.26667 km/h
Sensor: Nr:Datum:Temp:Abs-Feuchte:Windchill:Wind:
Aussen-T/F 3101 14-04-2012 19:00:00 12.25 C 5.71 g/m*3 12.25 C 6.55833 km/h
3102 14-04-2012 20:00:00 10.025 C 6.22 g/m*3 10.03 C 4 km/h
3103 14-04-2012 21:00:00 9.94167 C 6.03 g/m*3 9.62 C 5.225 km/h
3104 14-04-2012 22:00:00 8.65 C 6.23 g/m*3 8.65 C 3.6 km/h
3105 14-04-2012 23:00:00 7.18333 C 6.27 g/m*3 7.18 C 4 km/h
3106 15-04-2012 00:00:00 6.69167 C 6.3 g/m*3 6.69 C 3.73333 km/h
3107 15-04-2012 01:00:00 7.04167 C 6.42 g/m*3 7.04 C 3.86667 km/h
3108 15-04-2012 02:00:00 7.24167 C 6.36 g/m*3 6.55 C 5.20833 km/h
3109 15-04-2012 03:00:00 6.6 C 6.35 g/m*3 6.6 C 4.675 km/h
3110 15-04-2012 04:00:00 6.20833 C 6.41 g/m*3 6.21 C 4.13333 km/h
3111 15-04-2012 05:00:00 6.21667 C 6.55 g/m*3 6.22 C 4.54167 km/h
3112 15-04-2012 06:00:00 6.375 C 6.55 g/m*3 6.38 C 3.875 km/h
3113 15-04-2012 07:00:00 6.70833 C 6.5 g/m*3 6.71 C 3.86667 km/h
3114 15-04-2012 08:00:00 7.25 C 6.58 g/m*3 6.22 C 6.30833 km/h
3115 15-04-2012 09:00:00 7.95833 C 6.6 g/m*3 6.3 C 9.425 km/h
3116 15-04-2012 10:00:00 8.8 C 6.56 g/m*3 7.33 C 9.275 km/h
3117 15-04-2012 11:00:00 10.05 C 6.5 g/m*3 8.65 C 10.225 km/h
3118 15-04-2012 12:00:00 11.00833 C 6.42 g/m*3 11.01 C 12.36667 km/h
3119 15-04-2012 13:00:00 11.1 C 6.31 g/m*3 11.1 C 14.63333 km/h
3120 15-04-2012 14:00:00 11.24167 C 6.25 g/m*3 11.24 C 14.36667 km/h
3121 15-04-2012 15:00:00 10.99167 C 6.14 g/m*3 9.06 C 15.7 km/h
3122 15-04-2012 16:00:00 10.60833 C 6.01 g/m*3 9.06 C 11.96667 km/h
3123 15-04-2012 17:00:00 10.33333 C 6.14 g/m*3 8.86 C 11.03333 km/h
3124 15-04-2012 18:00:00 9.9 C 6.15 g/m*3 8.14 C 12.36667 km/h
3125 15-04-2012 19:00:00 9.45833 C 5.98 g/m*3 7.75 C 11.43333 km/h
Sensor: Nr:Datum:Temp:Abs-Feuchte:Windchill:Wind:
Aussen-T/F 3126 15-04-2012 20:00:00 8.925 C 5.94 g/m*3 6.88 C 12.89167 km/h
3127 15-04-2012 21:00:00 8.3 C 5.94 g/m*3 6.49 C 10.63333 km/h
3128 15-04-2012 22:00:00 7.91667 C 5.87 g/m*3 6.2 C 9.68333 km/h
3129 15-04-2012 23:00:00 7.64167 C 5.74 g/m*3 5.83 C 9.94167 km/h
3130 16-04-2012 00:00:00 7.21667 C 5.46 g/m*3 5.21 C 10.475 km/h
3131 16-04-2012 01:00:00 6.74167 C 5.31 g/m*3 4.67 C 10.35 km/h
3132 16-04-2012 02:00:00 5.95833 C 5.18 g/m*3 3.73 C 10.36667 km/h
3133 16-04-2012 03:00:00 5.05 C 5.01 g/m*3 3 C 8.75 km/h
3134 16-04-2012 04:00:00 4.44167 C 4.94 g/m*3 2.36 C 8.46667 km/h
3135 16-04-2012 05:00:00 4.4 C 4.76 g/m*3 1.95 C 9.95833 km/h
3136 16-04-2012 06:00:00 4.3 C 4.76 g/m*3 2.19 C 8.46667 km/h
3137 16-04-2012 07:00:00 4.2 C 4.75 g/m*3 1.71 C 9.95 km/h
3138 16-04-2012 08:00:00 4.4 C 4.7 g/m*3 1.83 C 10.49167 km/h
3139 16-04-2012 09:00:00 5.18333 C 4.8 g/m*3 2.77 C 10.49167 km/h
3140 16-04-2012 10:00:00 6.09167 C 4.47 g/m*3 3.54 C 12.23333 km/h
3141 16-04-2012 11:00:00 7.7 C 4.34 g/m*3 5.36 C 13.03333 km/h
3142 16-04-2012 12:00:00 8.60833 C 4.13 g/m*3 6.79 C 11.025 km/h
3143 16-04-2012 13:00:00 9.79167 C 3.88 g/m*3 7.81 C 13.83333 km/h
3144 16-04-2012 14:00:00 9.925 C 3.97 g/m*3 8.29 C 11.55833 km/h
3145 16-04-2012 15:00:00 9.48571 C 3.83 g/m*3 7.99 C 10.15714 km/h
3146 16-04-2012 19:00:00 8.04286 C 3.81 g/m*3 6.86 C 7.37143 km/h
3147 16-04-2012 20:00:00 6.16667 C 4.06 g/m*3 6.17 C 3.6 km/h
3148 16-04-2012 21:00:00 4.04167 C 4.26 g/m*3 4.04 C 3.06667 km/h
3149 16-04-2012 22:00:00 2.925 C 4.27 g/m*3 2.93 C 2.26667 km/h
3150 16-04-2012 23:00:00 2.10833 C 4.25 g/m*3 2.11 C 2.13333 km/h
Sensor: Nr:Datum:Temp:Abs-Feuchte:Windchill:Wind:
Aussen-T/F 3151 17-04-2012 00:00:00 1.51667 C 4.16 g/m*3 1.52 C 1.86667 km/h
3152 17-04-2012 01:00:00 0.91667 C 4.05 g/m*3 0.92 C 3.33333 km/h
3153 17-04-2012 02:00:00 0.21667 C